GFSSGP_sfc_rhum_000.txt.gz
RH
66 50 43 51 49 29 58 53 31 38 42 40 46 43 53 64 49 60 45 48 48 49 51 56 81 79 77 77 79 79 80 79 81 78 75 72 75 77 77 77 75 75 74 74 72 72 72 71 71
40 44 43 36 24 34 34 31 33 34 36 36 41 45 41 63 55 62 52 49 45 39 39 44 84 78 76 74 77 77 76 74 77 75 73 73 74 74 75 74 74 74 73 72 71 71 71 70 71
34 36 34 21 17 27 33 32 36 36 33 35 42 37 40 54 48 41 42 44 40 45 44 55 77 75 74 74 76 78 76 77 77 74 73 71 71 73 74 72 72 72 71 71 70 69 70 71 71
32 31 29 20 18 23 29 32 35 37 35 35 35 47 42 37 41 38 41 41 39 45 47 65 73 74 73 76 77 78 77 77 77 74 71 71 72 71 70 70 71 70 70 70 70 70 69 69 71
27 23 17 17 21 21 23 30 31 34 35 35 31 43 50 45 40 40 43 40 41 40 43 46 80 78 76 76 76 78 75 75 76 75 73 73 70 69 69 70 70 68 67 68 67 68 69 70 73
23 19 16 17 21 22 24 28 31 34 36 39 35 45 48 43 43 42 41 46 41 39 45 49 76 80 79 78 77 79 76 76 77 75 73 72 69 69 69 68 67 66 65 65 68 70 70 70 72
20 17 19 18 22 24 25 24 28 33 38 36 31 43 48 43 42 42 45 41 39 39 48 48 48 66 78 78 78 77 75 74 73 73 73 71 70 68 69 67 67 66 67 69 68 69 68 70 71
18 15 18 18 20 21 21 24 26 27 36 28 28 44 52 42 42 40 40 42 44 42 43 54 57 56 56 56 77 76 74 70 70 72 71 71 70 67 66 69 69 68 67 67 69 69 70 73 74
20 18 17 18 20 22 21 25 27 26 35 35 32 30 33 36 38 41 46 52 48 44 45 45 48 58 62 54 58 70 70 70 70 68 72 66 40 45 47 67 69 69 66 67 69 71 74 71 72
18 18 16 14 16 20 23 22 29 33 34 35 38 32 33 38 42 44 46 50 47 48 45 42 46 54 52 43 58 57 49 44 44 45 51 44 47 49 49 59 72 69 68 68 71 71 68 64 36
13 17 15 15 15 16 21 24 25 27 33 30 38 39 38 40 42 42 42 42 42 44 43 48 48 55 51 54 48 46 44 42 46 55 53 47 47 46 41 41 41 43 62 39 46 46 38 50 44
13 12 12 14 16 17 20 20 25 26 24 23 28 35 39 42 40 39 40 40 40 44 44 44 48 55 53 71 48 47 43 43 42 44 58 56 49 49 52 43 47 53 41 48 49 41 52 53 51
10 10 9 10 15 16 18 22 24 26 25 24 29 37 38 39 38 37 37 38 40 44 44 45 49 61 60 63 48 46 48 43 40 43 51 46 44 66 53 56 56 54 46 42 49 50 51 55 48
8 9 9 10 14 17 21 24 25 24 22 29 34 38 36 37 37 39 39 40 43 44 45 45 50 58 60 60 64 55 50 44 43 40 44 57 48 69 50 50 48 49 46 44 49 54 55 52 46
8 12 17 15 16 21 20 30 29 24 27 34 35 37 37 37 37 40 40 42 43 43 45 47 52 55 62 65 62 57 47 44 42 42 53 56 60 65 62 50 51 48 57 63 55 56 51 45 43
10 11 15 17 19 22 22 22 26 26 30 35 36 37 38 38 36 39 39 40 42 45 51 51 43 48 56 60 57 52 46 44 43 41 45 59 60 63 61 56 50 50 53 50 48 48 47 43 42
11 14 14 22 20 26 25 20 23 25 27 31 36 35 37 39 39 40 38 40 40 47 52 56 54 52 56 62 56 56 55 60 67 59 53 55 59 58 56 51 50 60 55 68 53 47 50 45 41
14 14 13 15 22 23 25 20 26 26 26 27 34 34 36 36 38 38 39 39 41 46 52 57 53 60 62 76 77 60 59 52 48 48 59 59 66 59 65 59 58 58 69 51 49 62 47 51 45
10 13 14 13 17 22 21 20 21 30 27 27 31 34 34 33 33 35 39 40 42 46 54 59 62 65 63 66 53 51 47 49 54 45 62 62 58 60 63 52 60 59 59 56 58 52 54 42 44
11 12 13 12 18 20 18 21 20 22 30 27 28 31 34 32 32 38 40 39 40 47 54 61 64 67 68 53 60 53 58 43 48 46 58 57 58 63 60 64 60 63 46 62 59 60 46 42 44
11 12 13 15 20 19 18 22 21 18 25 28 25 26 29 32 32 37 39 40 40 46 54 59 66 67 69 66 59 61 64 62 53 55 59 61 63 64 67 66 58 62 54 38 56 55 58 42 52
12 9 11 14 18 23 19 21 18 16 24 27 28 27 25 30 32 34 36 40 39 43 47 57 64 68 66 70 62 74 55 49 41 45 41 49 61 61 63 65 64 60 43 55 53 50 54 60 47
11 9 11 12 16 19 21 23 18 18 19 22 25 26 24 24 29 33 35 37 38 40 44 50 63 70 69 70 71 60 67 45 42 43 58 66 63 64 56 66 61 59 48 59 60 59 63 48 47
8 10 12 12 13 21 19 19 16 14 19 15 17 22 25 23 25 30 32 34 37 37 41 46 62 73 69 68 70 72 65 62 46 53 50 46 44 52 63 64 62 57 51 59 55 60 61 60 56
8 12 19 21 19 20 16 18 18 11 10 11 10 15 23 23 24 27 32 34 38 41 43 46 58 70 67 67 68 70 70 68 66 61 52 50 42 43 58 70 65 51 60 56 56 61 57 58 53
10 11 15 27 18 16 16 20 14 11 10 9 9 12 18 22 20 24 29 32 38 39 43 47 54 67 65 65 72 74 72 58 56 58 46 44 41 40 49 66 58 56 54 55 56 47 46 51 50
10 12 9 12 12 12 11 15 12 10 12 11 12 14 16 20 21 22 26 30 34 39 44 51 59 62 61 59 68 72 71 70 56 59 60 49 55 40 53 59 58 52 55 54 57 45 52 51 53
7 8 13 12 25 24 15 15 15 15 12 9 12 15 16 19 21 19 22 27 30 33 37 44 50 58 57 56 60 61 64 67 65 62 68 61 56 59 56 57 52 53 54 55 61 50 52 56 42
8 9 12 11 13 18 19 14 11 13 13 11 8 14 14 17 22 21 20 22 27 29 32 38 45 52 54 54 59 60 57 58 64 63 74 69 68 64 61 61 55 54 55 56 61 60 51 52 55
6 10 11 14 24 14 14 12 7 9 9 9 8 8 8 15 20 22 21 22 25 30 29 32 37 42 47 51 60 58 57 58 61 70 73 75 74 66 70 61 65 59 53 55 59 57 47 50 52

GFSSGP_sfc_rhum_003.txt.gz
RH
66 50 50 64 92 68 51 35 34 36 38 30 30 60 56 56 64 72 68 50 43 45 48 57 78 75 77 81 80 80 80 79 80 79 78 77 76 80 78 74 74 74 73 72 71 71 70 71 71
37 39 44 39 36 79 70 33 39 34 31 28 29 36 41 74 45 52 50 46 42 35 37 43 82 76 78 78 78 78 74 74 76 76 74 74 74 75 73 72 72 72 72 70 69 69 70 71 71
34 32 52 44 27 40 41 34 27 27 25 28 31 32 45 71 41 43 40 38 39 45 48 56 77 78 78 77 78 78 78 74 73 73 71 70 71 72 70 70 70 71 71 70 69 70 70 70 72
31 29 29 14 15 20 32 26 25 26 25 25 30 39 35 30 36 34 34 35 42 43 46 65 74 76 75 78 80 78 76 76 75 72 70 70 70 68 67 69 69 69 69 68 69 68 68 69 71
26 24 27 14 15 17 22 22 22 27 25 25 28 40 41 34 31 33 33 37 42 41 41 49 78 77 76 77 78 77 75 75 74 72 70 71 69 67 68 69 67 66 66 67 67 68 69 68 70
32 17 22 14 14 16 19 20 21 22 25 28 32 39 43 33 34 34 35 41 41 45 41 49 73 76 76 76 76 75 74 74 75 74 72 70 68 67 67 66 65 64 64 65 66 65 67 69 70
25 29 20 12 16 15 17 17 18 21 26 26 28 39 40 36 33 34 40 40 41 38 44 47 50 67 77 77 75 75 74 74 73 72 71 70 67 65 66 64 61 64 66 67 67 67 67 70 70
16 17 13 18 14 14 13 16 15 19 24 21 23 39 46 38 32 36 40 42 42 38 44 50 50 48 55 57 74 73 73 70 69 71 70 68 66 64 61 61 65 65 64 65 67 68 70 70 71
11 21 15 15 26 14 12 14 16 17 22 22 23 27 31 33 30 35 46 48 47 47 45 41 40 48 55 56 66 72 70 66 68 66 68 64 54 55 52 65 65 66 65 66 67 69 70 68 70
14 41 17 10 17 13 14 13 16 20 23 24 27 25 31 34 33 35 44 53 45 44 40 37 48 52 49 38 61 55 47 44 45 44 52 46 45 57 45 56 67 66 67 66 69 69 69 67 49
10 27 17 11 12 12 13 14 14 18 24 24 29 30 33 35 34 34 39 38 36 35 34 46 61 56 55 73 45 44 41 40 41 48 48 43 44 56 58 76 52 51 62 66 63 60 54 45 42
11 14 13 12 12 13 13 12 14 16 17 18 23 26 31 35 34 33 34 33 34 37 37 40 49 60 54 53 44 39 37 36 37 42 55 55 47 57 48 66 64 56 66 50 54 55 48 48 49
9 10 9 9 11 12 13 14 14 15 15 17 22 26 30 32 33 32 31 30 32 35 36 38 44 54 54 62 42 39 40 36 36 38 46 45 41 64 61 52 45 50 56 61 48 49 48 50 51
8 8 8 9 10 12 15 14 16 15 16 19 24 27 28 29 30 33 33 34 34 36 38 37 44 56 63 63 59 50 43 47 37 36 38 54 48 84 49 68 66 68 58 64 43 56 53 58 52
7 9 10 10 10 12 12 16 16 14 18 21 24 27 27 28 28 32 33 35 35 36 39 41 44 48 58 61 60 52 42 38 43 37 44 48 53 54 61 60 54 46 56 59 63 72 69 50 33
8 9 11 10 10 11 13 20 17 15 17 20 23 27 28 28 26 30 30 32 35 38 44 44 36 42 54 64 60 51 44 62 44 52 58 52 54 60 61 52 49 64 50 64 53 80 60 38 35
9 11 11 13 10 13 15 21 17 17 16 19 22 24 26 28 28 30 29 32 32 39 45 48 46 44 51 66 54 52 57 56 64 51 48 67 56 59 57 51 59 63 57 54 50 56 55 39 38
13 11 11 16 11 14 15 22 17 17 18 16 20 21 26 26 28 28 30 31 33 37 44 50 47 55 56 74 77 61 46 50 49 50 46 54 55 58 58 50 57 56 74 49 83 63 45 46 44
9 10 10 10 10 14 16 16 17 18 18 18 18 20 23 25 25 26 30 30 32 37 45 53 58 66 59 57 65 59 54 49 44 40 57 60 58 60 64 56 63 57 58 70 53 49 51 41 41
9 10 11 10 11 12 14 16 14 20 20 18 18 18 20 22 23 28 31 31 32 40 46 57 62 68 67 57 67 53 59 45 38 39 50 53 66 62 61 68 51 54 53 58 57 58 48 38 44
9 10 10 11 15 14 14 19 15 14 19 20 17 17 18 20 21 28 31 33 33 40 48 57 66 69 68 67 60 64 62 52 52 44 48 53 57 57 61 62 63 64 54 34 56 52 55 44 48
10 8 9 10 16 21 12 19 18 14 15 20 19 18 17 19 20 23 30 34 33 38 44 54 64 68 67 72 62 73 59 49 38 40 37 47 59 58 58 64 57 63 47 59 50 47 57 58 46
9 7 9 10 13 26 14 15 18 13 15 16 18 19 17 17 19 22 27 31 32 34 39 47 64 71 69 72 71 56 64 41 37 34 57 56 64 53 48 53 60 61 45 56 58 56 64 52 47
6 8 9 9 11 17 15 17 18 18 14 13 14 17 19 18 18 23 24 28 32 32 36 43 64 73 72 70 72 74 73 62 41 45 46 44 43 49 54 51 62 60 48 53 53 58 59 60 58
7 9 14 16 15 16 12 16 29 13 10 11 11 11 16 18 18 21 26 28 33 37 39 43 60 74 70 66 68 71 71 71 64 57 48 50 39 39 62 59 70 56 58 53 56 62 59 57 54
8 8 12 25 17 14 12 16 13 10 9 8 8 8 10 16 17 18 24 28 34 36 41 45 55 70 70 66 71 72 72 52 49 57 45 42 40 40 53 58 59 60 52 54 58 48 48 56 51
7 9 7 11 11 12 11 11 9 10 10 9 8 8 8 14 17 19 20 25 31 34 42 47 55 64 64 58 69 72 71 69 53 61 62 45 56 40 46 54 62 60 54 56 60 49 58 54 54
5 5 10 10 23 21 13 13 12 14 12 10 10 8 9 10 17 17 18 22 27 29 34 41 48 59 58 57 61 61 65 68 65 62 64 60 56 56 58 58 59 58 58 61 67 56 60 60 48
6 6 8 9 11 16 16 13 9 12 13 11 10 8 8 11 15 17 17 19 23 25 29 35 42 52 56 55 56 59 59 60 64 62 62 64 61 66 64 68 63 59 58 58 64 62 54 64 64
5 6 7 12 21 12 13 11 7 8 8 9 9 8 8 11 14 16 16 17 20 25 25 29 33 37 46 51 58 59 60 60 61 65 64 70 71 68 68 68 67 57 59 70 64 58 51 54 54

GFSSGP_sfc_rhum_006.txt.gz
RH
71 59 47 75 88 64 63 47 39 74 40 38 42 60 57 56 65 83 65 54 55 54 61 66 80 79 80 82 83 84 83 82 83 82 82 82 82 81 80 79 78 77 76 72 72 72 72 71 69
45 47 66 93 95 85 62 42 55 42 30 42 46 48 54 58 51 56 63 50 46 47 49 55 82 80 80 81 82 81 79 80 80 80 80 81 80 79 77 75 74 73 74 71 71 71 71 71 70
38 42 70 77 53 75 77 78 35 31 38 40 46 41 51 56 51 52 47 43 41 46 51 64 81 81 80 80 81 79 78 78 79 79 77 78 78 76 75 72 71 71 71 71 70 70 69 70 71
50 51 51 58 37 45 41 42 22 26 31 30 34 51 44 38 43 41 39 39 40 44 51 72 80 78 80 80 81 79 79 78 78 76 76 76 75 72 70 70 68 68 68 68 69 69 69 69 72
44 48 61 38 19 28 31 22 28 28 32 33 34 44 43 36 35 36 42 41 49 51 52 59 80 80 80 80 80 78 77 77 78 76 75 73 71 69 70 67 66 66 67 67 67 66 68 68 70
91 51 54 16 15 16 18 21 26 26 33 34 36 47 53 34 35 40 39 44 44 44 49 60 77 80 80 81 81 79 77 76 76 75 72 71 68 68 69 65 64 64 65 66 68 66 68 69 68
85 58 26 22 14 17 17 15 22 22 26 32 33 55 52 37 39 39 40 42 40 44 50 60 62 72 78 80 79 78 75 75 74 72 72 70 67 67 67 65 62 64 65 66 67 65 66 68 68
57 38 26 20 15 14 14 14 16 18 32 23 34 44 54 44 42 39 40 42 44 43 48 57 62 61 69 68 78 74 74 72 72 72 70 69 66 66 67 67 69 65 63 65 67 66 66 66 69
14 20 24 20 16 13 12 14 15 18 21 29 29 31 34 35 38 43 49 46 54 46 52 48 50 63 74 68 68 74 71 69 70 69 70 71 69 69 60 69 70 64 66 66 67 66 66 67 71
16 24 24 22 16 13 12 13 15 18 21 23 28 28 29 34 38 46 50 47 51 47 49 59 54 59 60 48 74 73 61 57 62 60 70 66 84 75 60 63 67 67 70 64 68 69 67 69 58
16 27 18 16 16 14 12 13 12 19 22 23 36 34 32 32 40 45 45 42 45 45 40 45 55 62 58 69 64 59 56 55 57 66 70 66 64 81 91 94 95 86 76 94 69 66 73 57 56
13 14 16 13 11 15 12 12 14 16 18 19 26 32 32 32 33 37 40 39 38 42 49 53 57 65 77 70 63 57 52 58 51 57 68 74 67 80 96 95 94 83 94 84 77 72 62 62 60
9 13 12 9 10 11 11 13 14 14 15 18 22 30 34 32 30 33 33 33 34 35 46 55 63 74 76 75 64 56 60 47 52 61 66 61 72 85 88 78 69 72 68 72 75 70 69 71 65
8 8 9 8 9 10 14 13 13 13 14 18 23 28 31 32 30 32 31 33 36 38 39 47 60 69 75 72 75 73 64 59 56 57 63 69 74 81 74 78 74 75 70 74 71 74 75 72 64
7 9 8 8 8 11 12 16 16 14 13 19 23 26 28 30 30 33 31 33 34 37 41 49 55 60 67 72 72 70 66 47 62 61 72 68 73 80 76 81 75 81 72 72 77 77 78 69 56
7 8 11 9 9 10 12 19 14 14 14 18 22 24 27 28 28 32 32 32 34 39 50 50 37 55 66 71 74 65 58 69 72 68 67 67 70 71 77 80 88 89 77 80 83 83 75 74 60
9 11 11 10 9 10 12 26 18 14 16 17 21 24 24 28 28 32 30 34 35 43 54 54 53 54 65 72 70 69 68 74 74 65 74 76 89 73 77 78 88 81 72 74 82 82 79 69 66
11 11 10 12 12 10 13 43 36 23 15 17 18 21 25 25 27 29 29 32 34 43 53 58 54 64 72 74 83 77 71 73 74 75 72 76 77 70 81 78 75 74 79 82 82 80 71 71 69
9 10 10 10 12 12 18 54 60 33 19 16 19 20 22 25 25 27 29 30 33 43 53 61 64 72 70 74 70 70 69 77 69 65 72 71 71 74 77 74 78 74 83 80 75 70 73 71 70
9 11 11 10 12 13 13 35 38 28 19 17 16 18 19 19 23 28 31 30 33 43 54 65 68 74 73 69 74 70 70 62 65 64 73 72 72 78 78 84 84 82 84 82 78 74 76 72 72
10 10 11 11 11 11 12 15 20 19 16 16 15 16 16 19 20 30 32 33 34 44 55 63 72 74 75 73 74 83 85 82 76 67 69 70 71 77 80 80 80 83 72 75 79 75 72 76 79
11 8 9 9 14 19 14 22 26 20 21 18 16 16 16 18 20 24 30 35 34 42 50 63 71 75 76 77 76 78 69 72 66 69 64 68 70 71 71 78 79 82 77 82 80 72 76 79 78
10 8 9 9 11 18 19 22 21 20 22 21 18 17 16 17 18 21 29 33 34 38 48 56 72 77 77 78 77 74 73 64 61 58 75 80 83 75 74 77 79 82 76 81 76 77 79 80 78
6 8 8 9 10 18 16 20 19 19 22 18 18 17 17 17 18 21 26 32 36 36 45 53 72 79 77 79 79 80 77 72 62 67 70 68 70 70 73 69 80 81 76 81 76 77 78 79 80
6 8 15 16 15 17 12 20 24 18 16 15 27 22 18 18 18 21 26 32 38 41 45 53 69 78 78 77 79 78 77 78 79 76 66 68 62 65 76 78 81 77 79 79 79 83 81 79 78
6 7 13 25 18 15 13 16 15 15 15 17 19 25 15 17 16 19 25 30 38 40 46 51 66 76 77 75 81 81 78 68 68 70 62 64 62 62 73 74 78 78 76 75 80 77 76 78 77
6 8 6 11 11 13 12 11 9 10 15 18 13 10 11 16 18 19 24 28 36 40 46 53 66 74 75 73 78 82 80 76 69 72 73 65 71 62 72 71 77 75 75 77 82 74 78 74 79
5 5 8 9 22 23 14 17 15 15 16 17 17 15 10 11 18 18 20 27 32 35 40 48 56 69 73 72 73 73 76 76 72 72 76 70 68 69 71 73 72 75 76 76 81 76 76 81 76
6 6 7 7 10 17 20 16 12 19 18 16 14 11 10 11 17 16 20 22 30 33 38 43 50 63 69 70 71 72 72 73 74 73 74 72 72 72 75 74 75 77 74 76 81 79 75 78 80
6 7 7 10 21 12 14 13 8 15 13 11 12 11 11 12 14 16 19 21 27 32 35 40 45 51 60 66 70 71 73 74 73 74 73 73 77 74 74 75 77 76 71 76 78 75 65 76 77

GFSSGP_sfc_rhum_009.txt.gz
RH
79 74 61 82 96 89 84 62 58 51 55 46 49 60 70 66 67 91 84 80 71 77 79 76 81 81 82 84 85 84 84 85 85 84 84 84 80 81 81 78 77 78 76 72 72 72 71 70 69
72 68 86 90 92 91 89 62 58 50 49 47 49 51 62 76 64 77 86 64 63 69 74 74 85 83 83 84 84 82 80 80 84 84 84 83 80 81 78 74 75 75 74 71 71 70 71 71 70
60 57 93 96 84 81 86 68 49 56 52 46 48 45 58 78 64 69 61 56 58 62 68 76 84 82 82 83 83 82 81 80 82 82 82 81 79 77 74 73 73 73 72 72 70 70 70 71 70
55 90 94 87 57 61 58 54 66 51 45 41 47 64 55 50 58 56 53 51 59 66 73 80 82 81 80 82 82 80 80 81 81 80 81 79 77 73 72 71 70 70 70 71 70 71 69 69 71
73 89 91 77 45 45 43 51 59 43 42 47 50 65 64 50 47 50 46 53 65 69 74 77 82 81 81 82 81 81 79 78 80 80 79 78 77 74 72 69 68 68 69 70 70 67 69 68 70
89 84 76 43 36 33 34 33 37 39 42 45 52 57 59 47 49 46 49 56 59 67 71 74 80 82 82 79 78 80 79 78 80 80 78 78 77 77 74 70 70 66 66 67 69 67 69 69 69
75 72 48 38 32 26 37 32 41 40 47 47 47 64 55 52 49 46 49 49 54 62 70 78 77 77 79 82 80 79 80 80 80 79 78 77 76 75 72 71 69 66 65 66 67 66 68 69 70
56 58 40 40 33 24 24 24 41 35 44 40 43 59 59 53 47 47 48 51 59 64 72 76 81 81 84 82 78 76 77 77 76 76 76 76 72 68 68 75 73 64 64 65 67 66 70 71 73
38 58 64 45 27 20 19 31 29 28 44 43 46 44 50 44 45 48 55 58 62 64 68 72 77 82 89 85 77 78 75 75 75 76 77 77 82 82 71 73 72 63 65 65 66 70 73 73 74
23 41 35 26 22 17 17 28 32 34 43 50 46 44 47 45 49 52 59 65 66 63 67 68 71 76 77 67 85 89 78 82 85 83 84 84 83 92 83 77 70 69 70 68 70 72 72 72 76
18 28 24 19 18 14 17 18 20 32 43 45 51 52 50 51 54 54 57 58 61 59 59 63 68 71 76 69 82 85 82 81 79 78 83 80 94 90 95 96 89 94 75 90 81 78 79 70 63
19 17 17 19 19 17 16 16 22 23 35 34 40 48 49 54 55 54 53 56 56 57 56 58 65 68 76 76 79 76 72 73 77 80 76 81 91 97 96 94 97 96 93 88 88 92 78 66 61
16 16 13 15 17 17 14 16 22 22 32 33 34 38 47 50 50 50 48 47 48 54 55 58 68 77 70 80 73 67 68 66 69 66 74 74 88 97 97 95 97 96 93 91 92 86 70 77 64
12 12 15 13 13 18 18 16 20 25 32 35 36 38 39 52 50 48 46 46 45 56 62 63 73 78 79 85 83 76 62 63 64 68 73 77 87 91 90 92 75 73 76 81 75 82 77 71 71
10 12 10 11 12 14 20 35 19 23 25 38 40 39 38 39 41 44 44 44 47 54 60 65 73 75 80 84 80 78 78 63 62 72 72 71 78 79 84 90 90 88 82 79 79 76 78 71 68
12 12 15 11 11 12 20 42 25 19 27 35 37 38 39 41 38 38 37 41 40 47 64 68 58 69 79 83 84 82 74 77 74 76 78 78 76 84 84 91 91 94 82 79 89 90 82 83 78
14 15 14 13 10 15 18 34 18 17 26 30 34 35 37 40 39 43 38 42 44 53 61 62 61 66 74 84 85 81 71 82 74 77 81 86 82 82 86 92 89 83 92 89 84 85 79 70 73
17 16 13 14 14 16 28 31 27 21 21 29 30 31 34 37 39 38 38 42 47 56 58 55 67 69 73 80 88 87 88 85 76 81 80 80 83 81 88 86 90 83 91 88 86 78 77 77 77
12 12 13 11 14 17 33 37 32 23 27 30 31 31 32 34 32 37 38 37 48 58 61 62 68 79 75 77 84 91 92 88 82 76 82 80 87 87 86 90 89 85 89 88 74 79 77 79 81
11 13 13 11 13 18 35 34 25 20 21 23 25 30 31 32 32 37 37 38 43 55 60 66 63 84 74 78 79 86 84 83 81 80 82 78 85 85 84 90 91 86 86 84 78 78 86 85 77
12 13 13 14 13 16 32 47 42 27 26 26 24 24 28 30 32 35 36 38 40 53 67 66 65 74 81 81 79 94 93 92 87 86 88 78 81 86 84 89 91 87 84 88 80 79 82 81 85
15 11 11 12 13 22 21 38 50 34 39 38 31 22 24 28 29 32 35 38 40 53 58 66 70 73 78 84 79 87 89 87 81 82 68 77 86 87 83 84 90 88 84 87 82 80 84 88 84
12 11 11 11 14 26 22 29 35 34 42 45 33 20 21 22 26 32 36 36 38 45 57 70 70 71 74 76 80 82 86 72 78 84 81 88 92 83 82 88 90 83 78 88 86 80 79 90 87
6 10 12 12 15 20 24 24 34 33 41 43 25 21 20 20 23 30 32 36 37 45 54 65 76 78 78 76 87 85 84 80 74 86 94 80 79 84 89 84 86 84 86 83 82 84 83 88 88
6 11 17 21 22 25 18 25 33 20 21 21 22 21 21 20 21 25 34 38 39 47 54 67 75 79 80 80 78 86 76 77 86 87 82 81 79 93 90 84 83 83 86 86 84 83 85 84 85
8 8 14 29 25 22 18 19 20 17 19 18 22 20 20 22 20 24 33 35 40 43 56 63 74 76 79 81 82 75 86 66 71 83 83 74 74 75 81 78 81 83 76 88 91 89 88 85 84
9 9 8 15 20 25 18 17 13 18 18 18 20 22 21 19 22 22 28 33 40 43 56 59 75 76 77 80 81 80 78 75 76 86 86 80 67 73 76 85 84 82 82 87 89 90 85 88 87
6 9 11 9 17 23 17 20 21 22 21 24 24 23 20 21 21 22 26 33 40 41 49 56 66 75 76 74 81 80 79 71 74 87 82 81 76 79 73 85 85 88 79 85 89 86 89 88 88
9 8 9 11 11 18 25 19 17 20 25 26 21 18 19 21 20 22 25 30 38 40 46 54 65 73 76 76 77 78 80 77 72 86 80 79 78 82 78 77 88 82 81 83 89 85 82 90 82
7 10 9 17 18 20 15 16 13 10 23 20 18 20 16 23 20 21 23 28 39 42 43 51 66 70 72 73 75 78 79 79 78 72 80 83 74 76 76 80 76 83 79 83 85 82 77 84 90

GFSSGP_sfc_rhum_012.txt.gz
RH
78 74 73 86 96 96 85 68 58 57 58 53 52 62 78 79 69 89 85 84 78 81 81 79 82 80 82 86 84 84 82 82 85 84 81 78 78 78 78 76 75 75 73 72 73 72 71 70 70
74 72 83 89 98 94 82 63 58 56 54 52 55 59 67 81 73 88 92 75 73 78 84 80 84 83 82 84 84 83 80 80 84 83 81 78 78 77 75 75 74 74 73 72 71 71 72 71 70
64 80 95 94 91 86 82 68 62 56 48 45 54 56 68 87 78 82 73 70 75 78 81 82 83 84 82 82 82 83 81 80 82 80 77 76 76 75 74 74 73 73 73 72 71 70 70 71 70
67 95 95 99 73 64 64 76 52 55 50 45 58 73 63 60 68 66 65 66 72 77 78 80 82 80 80 82 81 79 79 78 81 80 76 75 75 73 72 72 71 71 71 70 70 70 68 70 72
77 91 94 92 57 50 63 69 65 56 49 51 52 74 73 59 58 62 62 62 76 82 77 78 81 83 82 82 80 79 77 76 80 80 75 74 74 72 70 69 70 69 69 68 67 67 69 69 71
84 86 86 60 45 46 57 60 70 55 53 58 66 69 74 58 62 58 59 69 75 80 79 78 79 80 82 78 77 78 76 76 79 79 76 75 75 74 71 69 68 67 67 68 67 68 71 72 71
75 75 65 48 40 54 54 56 49 53 59 60 53 75 72 63 56 57 66 69 74 76 81 79 75 72 76 81 77 77 76 76 76 76 77 78 74 73 69 68 67 66 66 68 68 68 70 71 72
62 67 45 52 41 40 43 43 45 51 52 46 50 77 82 60 51 58 64 70 74 77 82 88 87 79 84 83 76 77 78 76 76 75 74 74 71 69 67 76 72 65 64 66 68 67 70 72 72
58 56 46 51 41 35 41 47 41 40 52 46 44 56 56 52 51 59 66 76 79 78 85 88 90 94 96 92 79 78 77 77 76 76 75 81 86 84 77 74 72 66 66 65 66 68 71 74 74
54 56 43 30 32 31 39 41 46 51 52 52 55 51 51 53 57 65 72 81 83 85 83 85 88 90 92 76 87 92 84 88 91 90 89 91 91 94 84 79 63 67 69 67 70 71 69 72 81
30 34 28 25 25 29 39 42 41 52 56 54 64 61 55 57 58 63 66 72 77 78 78 81 83 86 88 82 94 97 93 93 94 91 90 91 94 92 94 95 87 89 80 88 83 79 79 74 71
25 19 21 20 18 22 35 36 46 46 48 47 54 53 55 58 59 62 64 65 70 75 75 76 78 81 85 82 89 90 90 88 91 88 87 93 98 94 94 92 96 92 96 87 93 89 78 77 64
20 17 16 16 20 18 19 33 44 41 44 46 50 52 57 58 57 57 59 59 64 71 68 71 75 79 78 83 85 88 84 80 79 82 86 92 94 96 94 93 94 93 95 96 94 90 78 75 68
17 15 14 16 20 20 18 25 32 42 41 49 52 56 57 58 58 57 58 60 61 64 63 68 74 74 73 80 87 83 77 76 79 70 83 83 91 94 96 94 90 93 94 85 84 85 73 77 73
15 16 13 12 15 20 20 34 44 40 45 53 55 55 56 56 54 56 54 56 57 57 58 66 72 73 76 74 82 77 70 66 70 68 78 77 85 90 91 96 95 96 96 92 84 81 81 75 75
15 18 19 12 14 20 23 42 44 41 46 56 56 54 56 56 54 52 48 50 51 56 62 63 60 74 74 76 85 84 81 79 68 77 84 81 81 85 93 95 93 91 89 87 90 92 86 74 71
19 20 17 14 12 24 28 38 31 40 43 46 47 52 52 56 53 51 48 47 48 59 65 67 64 73 78 85 86 85 78 82 83 86 84 88 86 89 93 94 91 88 92 90 86 88 84 66 76
21 20 17 16 11 22 33 35 29 42 45 47 46 44 44 54 54 46 46 44 51 59 66 69 68 72 76 83 91 90 88 86 87 87 87 90 88 87 91 91 89 89 93 92 91 82 82 80 82
15 16 17 13 13 28 28 28 27 36 44 47 48 47 45 42 41 42 42 43 48 58 67 70 71 72 77 85 89 97 93 91 91 89 80 82 86 88 87 93 94 92 95 89 84 84 79 79 87
12 14 14 13 12 24 34 28 26 31 35 40 42 44 45 43 41 44 41 46 50 63 66 69 70 72 73 74 74 86 96 92 87 85 87 83 86 88 88 93 95 93 94 86 82 80 88 89 86
13 13 13 16 14 24 34 41 35 29 28 31 34 35 38 41 42 42 42 45 49 61 66 66 74 74 74 75 82 96 95 94 94 91 92 88 85 86 90 92 95 94 93 90 82 82 85 80 88
20 12 11 12 18 23 29 46 46 38 36 30 32 33 34 36 36 40 42 42 49 55 59 62 71 79 76 79 78 79 79 84 76 88 86 90 78 85 87 90 90 91 92 88 83 82 87 86 82
14 12 14 14 18 25 24 42 40 38 39 42 33 30 32 32 34 36 40 40 40 48 59 59 64 83 80 80 76 79 81 76 89 89 88 88 95 88 85 90 92 89 90 87 84 88 86 94 84
10 12 15 19 19 30 31 32 37 50 34 32 27 29 27 30 31 33 36 37 41 44 54 61 66 69 82 80 78 80 79 82 83 93 93 92 91 91 87 87 93 86 85 90 89 84 83 94 93
11 14 18 24 23 27 20 33 29 30 28 27 25 29 28 27 30 32 36 38 40 45 54 64 70 69 72 81 80 79 79 78 83 89 90 87 88 97 91 91 93 88 86 87 86 89 88 90 90
14 11 14 24 29 26 21 30 26 25 24 25 22 24 28 23 26 29 33 37 38 44 55 63 72 70 72 76 79 79 77 74 78 86 93 83 78 75 80 85 87 86 85 85 88 90 91 91 88
13 14 9 17 46 29 24 21 18 18 24 26 26 28 26 22 23 25 32 35 38 43 54 63 73 70 73 77 74 78 80 76 74 92 84 80 76 73 86 84 86 81 83 85 94 92 90 93 90
11 10 18 19 18 19 20 24 19 19 20 28 25 27 24 22 21 22 26 33 38 39 51 60 69 70 74 77 74 75 75 79 77 88 87 84 80 79 82 86 84 81 79 85 93 93 89 94 96
13 12 16 13 13 15 26 15 16 18 20 26 26 23 22 22 23 21 23 31 37 39 52 61 68 68 74 76 74 76 77 74 78 85 84 85 77 76 80 83 84 80 82 83 86 92 91 89 92
10 11 12 12 18 17 11 12 14 14 15 25 26 22 22 22 23 24 23 30 36 42 51 58 67 68 69 74 76 76 79 79 76 77 78 85 80 76 77 80 84 84 80 78 85 86 79 92 90

GFSSGP_sfc_rhum_015.txt.gz
RH
80 76 79 88 95 95 92 74 71 60 62 60 54 59 82 86 79 90 89 86 81 84 83 79 80 78 80 82 82 80 79 80 80 79 78 77 77 77 76 76 75 74 73 73 73 72 73 72 71
76 68 82 90 93 95 85 70 66 65 61 59 59 64 75 89 78 94 96 80 75 81 88 82 83 81 80 81 81 80 78 79 79 78 78 77 77 76 75 74 74 73 72 71 72 73 72 71 73
72 71 90 97 96 89 87 72 64 58 53 52 65 62 70 89 82 84 79 74 75 83 88 90 80 82 79 79 80 81 81 78 78 78 77 77 76 75 74 73 73 73 72 72 72 71 72 75 71
74 88 92 94 74 66 74 72 58 56 49 56 64 79 71 66 74 74 73 74 81 84 86 80 78 77 78 78 78 78 78 77 78 76 75 75 74 73 73 72 72 71 71 71 71 71 71 74 66
74 88 93 92 61 58 61 51 62 59 54 59 60 82 86 69 69 71 75 74 85 90 86 80 82 81 78 77 77 76 76 79 78 76 75 75 73 71 71 70 70 69 69 70 69 70 72 71 70
90 90 80 71 51 53 56 53 58 56 56 66 71 74 84 71 74 72 70 78 80 84 86 81 79 80 80 75 76 76 74 77 78 76 74 75 73 71 70 69 68 68 68 69 69 70 73 69 70
79 88 67 50 53 60 55 56 69 59 61 66 57 84 85 78 69 66 71 79 79 79 86 82 79 75 76 78 76 75 74 76 77 76 75 75 74 72 69 67 67 66 66 68 68 68 70 70 72
71 77 58 54 56 60 53 63 51 57 59 50 55 85 92 75 62 67 75 80 83 83 86 89 86 77 84 85 75 74 75 75 76 74 74 74 73 72 69 74 69 66 64 66 67 66 69 70 70
66 78 66 51 47 48 49 58 48 45 58 51 53 61 60 62 64 75 83 86 88 85 92 92 92 94 96 93 80 76 75 75 75 75 74 79 89 87 81 76 69 69 67 65 66 67 70 70 69
71 74 54 36 35 48 47 49 52 57 59 60 61 57 59 60 72 81 87 93 91 91 93 92 96 95 97 81 91 93 87 89 90 90 91 94 92 92 85 79 69 66 68 67 69 69 69 75 80
61 66 40 32 26 39 46 49 46 60 64 64 71 67 61 66 70 77 83 86 86 88 88 91 95 95 96 89 98 99 98 98 98 95 95 95 93 96 96 96 90 87 79 89 82 82 78 78 76
38 40 40 29 19 39 46 44 53 53 52 51 55 59 61 66 71 74 80 83 84 86 84 88 92 94 96 96 97 98 96 98 99 98 95 98 98 95 94 91 94 92 96 88 90 91 78 80 68
34 28 20 18 19 34 39 48 49 52 47 49 53 57 62 65 67 68 71 74 79 84 81 86 88 91 91 95 97 99 98 95 91 93 92 94 98 98 95 92 96 95 95 95 94 90 86 76 70
18 18 18 17 15 32 44 46 48 48 48 55 57 61 62 62 64 66 69 73 76 78 80 81 84 86 88 90 96 95 96 92 89 89 88 89 95 96 95 94 94 94 94 88 86 92 76 75 73
18 20 16 15 14 29 34 47 52 46 53 60 61 61 61 60 59 66 64 68 70 74 74 78 81 82 85 83 89 91 91 83 86 78 79 81 91 92 90 95 95 93 95 92 90 80 84 74 63
17 19 22 16 16 17 30 45 43 51 58 63 61 60 61 62 60 59 60 62 65 70 72 73 69 77 81 81 89 82 84 81 79 80 88 83 89 90 94 97 95 95 93 95 92 93 89 72 66
21 25 21 17 13 26 29 46 50 51 58 63 61 61 62 64 61 58 56 58 60 64 68 73 73 76 79 82 88 85 85 88 78 86 84 91 90 90 96 96 94 92 96 91 89 93 88 76 77
24 22 20 18 15 27 36 46 52 53 57 61 60 59 62 63 63 56 54 53 57 59 63 69 71 76 79 82 88 93 92 87 88 88 92 92 88 90 95 92 93 91 96 95 92 86 87 81 84
18 19 19 16 16 31 31 39 56 54 56 62 62 61 62 62 57 54 52 50 54 60 66 69 70 74 79 86 92 95 88 94 95 92 86 90 90 92 92 94 94 93 95 92 87 88 80 81 91
17 18 17 14 14 20 30 35 51 52 52 55 59 60 60 58 58 55 54 52 50 62 67 72 70 73 76 75 76 80 94 95 90 91 88 88 90 92 91 93 95 95 97 93 92 83 88 91 91
19 19 16 16 17 21 38 47 42 52 48 48 48 48 52 52 59 58 52 52 50 60 69 73 72 71 74 73 77 97 97 97 97 96 94 89 86 88 91 92 95 96 97 96 90 83 82 84 92
25 16 14 14 20 23 36 51 51 44 55 51 50 49 47 45 45 50 51 50 50 58 65 69 71 71 72 76 76 76 80 79 84 94 95 88 87 85 88 91 94 96 98 94 87 82 86 86 83
18 16 16 19 21 27 24 39 38 40 46 45 44 44 45 44 43 44 48 46 47 52 63 68 72 72 71 76 72 75 75 75 93 96 92 94 95 90 88 92 94 95 97 94 87 89 91 90 84
16 18 16 24 26 31 19 27 24 53 36 35 34 36 38 40 41 42 41 43 48 50 60 66 74 75 73 77 75 76 76 85 94 96 90 94 98 97 92 90 92 93 92 91 88 90 89 95 92
18 19 28 25 30 24 19 34 20 28 33 28 31 31 32 33 36 39 41 42 44 52 60 66 72 78 77 80 78 78 76 80 84 87 88 96 98 99 96 93 96 94 90 90 89 91 88 94 94
19 18 30 28 34 24 24 31 25 20 25 27 23 26 27 30 31 34 36 39 43 46 58 64 70 73 80 83 80 78 76 77 76 83 80 83 90 88 89 89 90 95 85 88 91 93 92 94 94
17 19 14 20 43 27 28 23 20 18 22 29 28 24 27 28 30 31 33 35 39 44 51 63 67 65 73 80 79 80 79 77 79 88 81 81 85 84 90 89 92 92 87 86 91 92 94 95 94
13 13 22 24 24 24 23 24 22 22 19 30 33 30 27 30 28 29 31 32 36 39 44 56 62 63 63 71 73 75 79 78 78 85 86 83 85 86 90 90 90 90 87 87 90 92 92 95 96
18 15 19 18 19 19 20 17 15 19 21 23 29 30 29 30 28 25 28 30 32 36 43 54 61 62 61 64 68 70 76 78 79 82 85 85 86 85 85 87 89 89 86 87 88 91 92 93 95
10 12 18 18 21 20 16 16 16 14 15 20 20 27 27 27 27 24 24 27 33 38 42 53 58 63 60 64 68 70 72 76 82 80 82 84 85 86 85 86 88 89 85 84 86 88 84 88 92

GFSSGP_sfc_rhum_018.txt.gz
RH
78 78 84 93 98 94 92 76 71 63 63 68 56 64 76 84 77 87 90 84 80 84 83 79 77 77 79 82 82 80 78 78 79 78 77 77 76 76 76 75 74 74 74 73 72 72 71 70 71
80 76 84 90 90 95 87 78 73 70 68 63 64 70 79 89 81 96 95 81 76 82 88 81 83 81 80 81 80 80 76 77 78 77 78 77 76 76 75 74 73 73 73 72 74 72 71 70 70
69 71 96 96 93 92 88 75 71 63 59 59 71 67 75 90 85 87 81 77 80 90 89 88 81 83 79 78 79 81 78 77 77 76 77 76 75 75 73 73 73 74 74 74 72 71 69 66 65
79 87 91 95 80 68 69 73 62 63 59 62 68 87 77 68 77 78 74 76 86 89 89 79 78 77 78 78 79 79 77 76 76 76 76 75 74 72 72 73 73 73 73 72 72 70 70 63 61
80 86 88 84 70 59 64 59 61 61 62 63 65 87 92 75 74 74 77 76 88 95 90 78 81 80 79 77 78 77 76 76 76 76 75 74 72 71 71 70 70 71 71 71 70 71 69 68 68
83 85 81 77 55 52 60 59 62 60 64 69 73 82 92 78 78 79 76 82 84 90 91 83 80 78 78 76 77 77 77 77 77 75 75 74 72 71 69 68 69 70 70 70 69 70 67 67 75
81 84 69 70 60 61 55 59 72 70 66 69 59 93 93 84 77 77 79 82 83 86 93 89 84 76 75 76 75 74 75 77 77 75 74 75 73 70 68 68 69 68 68 69 67 68 68 69 70
79 79 73 56 66 64 61 63 58 60 63 52 59 91 95 83 75 75 82 86 87 89 92 93 90 84 88 83 74 74 74 75 76 75 74 74 73 69 66 74 70 69 66 67 69 68 66 70 72
67 89 79 55 59 54 67 60 53 50 61 56 55 66 66 72 71 83 91 94 93 90 96 95 90 91 94 92 82 75 73 74 74 74 73 78 91 87 83 74 70 71 68 64 68 67 70 72 71
84 90 64 43 42 52 56 55 57 62 63 63 64 62 69 69 79 88 91 85 93 92 97 94 94 94 96 83 91 91 86 86 87 88 89 91 90 90 81 76 69 66 72 68 69 70 69 72 71
76 82 54 40 35 42 56 55 52 65 70 66 75 76 73 75 80 87 88 82 86 88 89 92 95 96 96 92 96 96 95 94 93 92 93 93 92 94 94 94 89 86 76 84 80 81 78 77 71
63 50 53 43 32 47 52 51 56 60 59 48 63 68 72 80 82 84 87 88 88 90 89 92 94 95 97 97 96 96 96 96 96 95 94 95 96 94 93 90 88 89 91 84 86 88 82 80 72
53 43 29 28 29 37 45 52 54 58 51 56 60 66 72 77 79 77 79 82 83 90 88 93 94 96 96 97 98 98 98 96 94 95 93 92 95 96 92 91 93 91 91 90 90 88 85 79 71
22 27 28 20 20 33 49 51 51 51 54 58 64 68 70 74 74 76 80 83 84 84 86 89 93 94 95 95 98 97 97 96 93 92 90 91 92 94 94 93 90 93 94 88 84 86 81 76 72
19 22 20 19 18 34 42 59 57 52 55 62 65 67 67 71 70 75 76 79 81 82 81 87 90 91 95 94 95 97 96 90 92 89 88 89 94 95 90 95 94 95 96 91 86 82 81 74 66
20 21 23 19 21 32 47 61 52 52 60 66 63 64 67 69 68 68 70 71 75 79 84 85 76 86 92 91 92 93 93 91 89 87 84 85 86 92 94 95 94 94 92 91 88 90 85 76 71
27 29 23 21 14 28 49 48 47 54 62 67 66 64 66 68 66 66 65 68 71 77 82 86 82 84 88 90 94 93 91 89 88 88 86 90 91 90 95 96 92 91 92 89 87 88 83 74 75
30 24 23 22 20 39 46 43 56 58 62 66 66 65 67 67 66 62 64 64 68 74 78 81 81 85 87 87 93 95 94 91 89 88 88 90 90 90 94 92 93 89 93 90 88 85 82 78 80
23 22 22 22 16 27 35 50 68 61 62 65 66 67 67 66 62 60 61 61 64 72 78 80 83 86 86 90 95 96 91 92 91 90 89 92 91 91 91 93 93 89 94 90 85 83 78 78 83
20 22 21 20 15 19 20 26 61 63 63 60 62 66 65 64 64 63 62 60 62 69 74 79 81 83 86 84 85 89 91 92 87 89 89 90 91 90 89 93 94 91 92 90 88 84 81 82 82
24 22 22 21 19 20 34 43 47 60 60 57 56 57 59 62 64 64 63 61 59 67 72 75 79 81 83 83 85 96 96 96 94 92 91 88 89 90 92 91 93 94 92 89 89 86 81 81 85
31 19 17 16 20 23 35 40 54 63 66 59 59 60 59 59 59 61 61 61 58 61 67 72 77 79 81 84 84 87 82 84 81 88 87 88 88 88 90 90 91 93 93 93 89 84 82 85 83
22 17 18 18 21 26 31 30 34 61 74 64 56 55 56 55 56 59 59 57 56 56 61 70 78 80 81 83 80 83 82 78 88 93 92 91 93 89 86 90 92 92 92 92 91 89 87 83 82
18 19 20 29 29 33 23 26 33 58 60 60 53 51 49 48 50 52 55 56 55 54 58 66 79 81 80 82 82 83 82 86 89 94 90 90 92 88 92 90 91 91 91 92 89 89 88 90 84
20 24 35 33 34 28 24 29 20 30 35 38 46 46 46 46 46 47 50 55 56 57 61 68 78 83 80 82 83 81 82 85 86 87 84 91 92 96 94 93 93 90 91 89 90 91 88 90 88
24 24 37 38 35 27 29 28 25 17 29 29 28 32 36 40 42 44 45 48 53 55 60 68 76 82 80 81 83 82 82 78 77 82 81 82 82 83 92 91 90 91 89 88 90 85 83 88 88
24 23 19 26 52 29 30 27 22 23 21 34 30 28 31 33 37 41 42 44 48 52 58 67 74 78 79 78 81 82 81 81 80 82 84 81 86 83 90 90 91 92 89 88 90 84 87 88 88
17 18 23 31 35 36 30 28 26 29 22 25 36 36 30 29 32 33 36 40 43 44 52 60 66 73 74 78 78 77 80 81 80 81 86 85 85 88 91 91 91 92 90 88 89 87 88 90 87
21 21 25 22 29 31 31 23 22 22 26 22 21 32 31 29 30 30 33 34 38 40 46 56 63 68 70 77 80 78 79 80 80 81 84 85 86 89 90 91 92 92 91 89 88 88 87 88 90
14 16 20 22 27 27 28 20 18 17 15 21 21 30 34 36 35 32 30 32 35 40 42 49 58 60 64 70 79 79 79 81 81 84 83 86 87 88 87 90 92 91 89 89 88 87 82 85 88

GFSSGP_sfc_rhum_021.txt.gz
RH
70 65 68 76 94 82 77 67 57 51 53 51 44 53 58 76 72 71 78 70 63 73 60 67 80 78 80 82 80 80 78 78 79 78 76 75 75 76 75 74 74 75 72 71 71 70 69 68 69
67 71 72 72 78 74 70 60 56 53 56 50 53 58 65 87 76 80 80 62 57 53 54 54 82 82 81 82 82 80 76 77 77 77 76 75 76 75 73 73 72 72 72 72 71 69 68 67 67
68 61 86 85 60 58 64 58 55 53 49 50 60 57 64 80 72 70 60 59 55 56 53 60 80 83 80 80 80 80 78 76 77 76 76 75 75 73 73 73 73 74 73 72 71 69 66 65 63
66 76 81 88 57 53 50 52 50 54 52 53 54 71 65 60 65 60 57 57 52 55 51 69 80 78 78 80 79 77 76 76 76 76 75 74 73 72 73 72 73 73 73 70 70 70 67 63 61
62 70 71 65 47 50 49 48 50 50 54 54 55 74 82 65 59 57 58 52 52 51 54 58 80 81 80 80 79 76 76 76 76 75 74 73 72 72 71 72 71 72 71 69 69 68 67 69 71
69 62 58 48 42 47 45 45 46 49 54 58 60 64 77 65 62 59 54 53 50 52 52 58 76 80 80 78 76 76 75 75 75 75 74 72 72 71 70 70 70 70 68 68 68 66 65 69 71
68 54 51 47 42 46 48 44 48 51 55 56 50 68 83 67 58 58 56 54 52 53 55 58 55 68 75 78 76 76 76 76 75 74 74 73 71 69 68 70 67 67 67 66 66 65 65 66 71
57 58 53 42 42 45 48 44 45 48 55 43 45 66 85 68 59 57 57 56 56 56 57 62 56 55 62 61 74 73 75 75 74 74 73 73 72 67 66 69 69 69 65 64 64 63 63 63 64
55 57 51 40 43 40 47 49 45 43 50 47 48 52 50 60 58 60 62 60 60 60 60 58 55 62 69 65 64 71 72 73 74 70 72 68 63 64 62 70 70 70 67 63 63 64 64 66 69
64 58 44 34 32 26 44 43 47 51 50 49 52 52 57 60 63 64 63 62 60 61 58 57 60 61 64 57 68 67 60 55 58 58 65 59 65 67 64 66 69 67 70 68 66 68 65 58 37
65 55 42 31 27 25 35 44 42 49 54 44 53 60 60 61 62 59 57 56 56 57 58 59 65 69 65 64 62 62 59 59 61 71 68 64 66 65 61 60 59 55 60 49 52 51 67 61 43
63 50 42 31 27 29 38 39 44 47 44 37 44 51 56 60 58 56 55 55 57 60 60 58 63 71 69 63 62 59 60 61 60 62 74 71 62 66 69 60 60 62 53 58 59 56 72 74 57
58 39 32 28 26 22 26 41 40 46 38 37 47 52 54 55 55 53 51 53 57 61 60 60 66 74 73 76 63 61 65 60 58 64 68 64 62 70 67 66 61 62 58 56 75 66 78 67 64
30 27 17 18 19 16 26 31 40 38 42 48 52 53 51 53 52 57 58 60 63 62 62 60 67 72 73 74 76 70 66 63 64 60 61 72 63 68 63 66 58 60 62 61 72 78 65 68 53
16 16 13 12 13 14 20 43 43 38 44 52 53 55 53 53 52 58 57 60 62 62 63 65 68 68 74 75 75 68 62 60 60 59 69 68 70 74 75 66 61 59 67 77 77 72 59 57 44
16 15 15 11 12 16 22 19 33 41 45 52 53 54 56 56 53 55 55 56 59 62 68 68 60 65 72 73 73 65 62 61 59 58 60 67 70 74 75 66 60 62 67 83 80 80 69 55 45
15 16 17 14 12 23 29 19 22 39 42 50 53 52 54 56 56 56 53 56 56 63 68 70 68 68 72 76 70 68 69 64 59 58 58 69 72 71 72 65 61 71 63 79 80 71 62 53 48
17 16 15 17 13 16 26 26 30 40 42 47 50 50 53 53 54 53 53 53 55 61 68 70 67 72 77 72 75 65 63 61 58 58 58 70 67 70 73 66 70 69 63 65 63 72 61 54 54
13 13 15 13 12 18 22 26 31 42 43 45 50 50 51 50 46 49 52 51 55 61 67 72 74 78 74 71 68 66 64 62 63 61 68 73 72 75 76 63 73 72 67 70 73 65 66 53 59
14 14 15 14 12 13 15 18 18 37 46 44 48 49 49 47 48 52 52 52 54 61 67 74 76 80 78 68 70 63 65 58 62 61 67 70 71 75 73 74 70 74 65 77 76 72 57 52 57
15 13 14 15 13 12 15 16 21 37 39 42 43 44 45 45 48 52 54 52 53 60 68 73 79 79 78 75 70 71 70 71 69 66 64 67 71 73 76 75 71 74 70 64 75 71 69 53 59
14 11 12 15 16 18 17 20 26 25 42 45 44 45 45 44 46 48 52 54 52 58 62 70 75 79 76 80 74 82 68 66 61 62 61 63 70 69 72 75 75 77 66 72 73 69 66 65 54
14 12 13 14 15 16 15 20 18 34 39 43 42 42 43 41 44 47 50 50 50 52 56 63 75 80 79 82 79 74 74 60 57 59 73 79 73 71 67 74 76 77 69 74 77 78 77 61 52
14 16 16 18 15 22 18 17 17 19 26 31 37 40 42 41 40 45 46 48 50 49 52 58 74 81 80 80 81 83 80 73 64 69 64 62 60 61 72 72 76 76 73 76 74 78 77 70 62
15 15 20 20 20 20 15 18 19 15 21 17 29 37 39 41 41 42 48 49 53 55 56 58 72 80 79 78 79 79 80 80 79 75 65 66 60 59 69 77 78 70 78 74 75 80 76 73 65
17 14 14 24 17 15 20 21 16 14 13 19 20 25 32 37 38 40 43 49 54 54 58 59 66 77 77 76 81 81 80 66 66 70 59 59 57 59 66 73 72 75 75 74 76 69 65 70 66
17 19 11 14 18 16 13 14 15 15 14 16 18 20 26 30 34 38 41 43 50 53 58 61 66 72 73 71 77 80 79 77 69 73 73 61 69 56 66 70 73 74 75 76 78 64 74 71 70
14 12 17 14 22 21 15 20 14 20 17 17 19 18 20 22 28 32 36 39 43 45 50 55 60 67 69 70 70 71 74 76 73 73 76 72 67 69 66 70 71 73 76 77 80 70 74 75 64
16 16 15 13 14 14 14 11 17 20 23 19 17 17 18 20 23 25 31 36 39 41 44 49 56 64 67 69 71 72 71 72 74 72 74 75 72 73 72 74 73 73 75 78 80 76 72 75 73
13 15 15 16 27 16 13 11 12 13 14 18 15 16 18 24 26 26 25 30 35 40 42 44 49 53 59 66 72 72 72 72 71 73 73 75 77 74 76 74 74 74 74 77 79 76 70 75 74

GFSSGP_sfc_rhum_024.txt.gz
RH
64 57 56 76 97 66 58 51 39 38 40 35 41 40 43 68 51 77 60 70 63 69 75 62 80 77 75 76 78 78 77 77 77 76 75 75 75 74 74 75 74 72 71 71 70 70 68 68 69
45 52 57 52 75 65 55 42 39 36 38 35 40 42 49 76 55 66 66 59 53 50 49 47 82 81 78 79 79 77 75 76 76 76 74 75 75 73 72 71 70 72 72 71 70 68 67 66 65
48 51 58 62 45 49 50 42 39 37 36 37 44 41 46 60 56 56 49 53 46 51 48 54 81 83 80 78 78 78 76 76 76 75 74 74 74 72 71 72 70 71 72 71 69 67 64 62 62
60 70 57 68 39 36 38 37 36 39 38 37 39 51 50 51 53 51 48 44 44 41 40 69 80 78 79 78 77 76 75 76 75 74 74 73 72 72 71 73 66 69 70 69 69 66 66 62 61
50 52 62 51 32 34 33 36 38 37 38 39 38 52 67 55 46 48 45 41 39 38 40 51 81 80 80 78 76 76 75 75 75 74 73 72 71 72 71 71 70 70 69 68 66 66 67 66 67
54 41 41 28 28 33 32 32 34 36 38 42 42 52 71 51 48 45 40 39 36 37 38 48 77 80 80 78 76 75 74 75 75 73 72 72 71 70 70 70 69 67 66 66 65 65 66 67 69
51 34 30 27 28 32 33 30 32 34 39 40 36 50 59 52 44 39 38 38 37 38 35 44 47 63 75 79 74 74 74 74 74 73 72 71 70 68 68 69 67 66 64 63 64 64 65 66 68
36 35 30 25 27 34 32 32 31 34 40 32 33 51 63 51 43 39 39 40 40 41 35 42 44 45 54 54 74 74 74 74 73 72 72 70 68 66 66 67 69 64 63 62 62 61 61 61 64
39 36 27 25 26 28 30 34 33 32 35 34 34 34 40 42 40 41 44 44 50 41 37 36 36 45 52 51 58 70 74 73 72 69 70 69 42 47 51 68 68 63 62 61 61 59 60 62 67
40 32 24 21 19 20 25 30 35 35 35 34 39 34 40 42 44 45 45 46 47 42 38 34 38 41 45 38 54 54 46 41 42 42 51 44 49 51 51 61 68 64 63 63 63 61 61 63 26
33 31 22 21 19 18 20 30 30 31 35 32 41 44 44 44 44 42 41 40 39 40 38 37 42 47 45 45 44 43 41 40 45 54 51 49 49 49 41 42 44 42 60 50 53 55 36 61 35
35 28 26 21 19 18 18 23 30 29 27 26 33 38 42 44 42 40 39 38 38 42 41 39 43 51 48 43 42 39 38 39 39 42 57 55 48 49 52 41 44 49 39 44 42 47 43 45 57
35 24 21 20 18 17 14 21 25 29 27 25 32 38 40 40 39 37 35 36 37 40 41 41 47 57 55 56 42 38 41 39 37 43 49 45 46 59 51 52 44 47 40 39 56 47 44 54 46
21 24 21 13 12 13 13 18 23 25 27 31 35 37 36 38 36 38 37 38 40 41 42 42 48 56 56 56 58 50 46 41 42 39 40 56 49 55 46 49 44 43 42 47 49 54 57 50 40
19 20 13 11 11 12 11 15 23 22 30 33 35 36 35 36 35 39 37 39 40 40 42 45 50 52 60 61 60 54 44 41 40 39 49 54 57 61 70 48 46 43 61 55 51 51 46 42 34
14 13 14 12 11 10 12 18 19 22 30 34 34 36 37 36 34 36 36 37 39 42 49 49 43 48 56 58 57 49 43 42 39 37 40 54 58 64 63 59 50 45 55 48 46 47 46 39 36
11 14 15 14 11 12 14 16 15 22 26 30 35 35 36 38 36 37 36 38 38 46 52 55 54 51 56 62 56 54 53 46 39 37 38 54 59 60 61 64 50 58 51 50 48 51 50 42 37
15 14 13 15 12 12 14 16 13 19 23 27 33 34 36 36 37 36 37 37 39 44 51 56 53 59 62 57 62 50 44 45 41 40 40 51 56 58 61 51 56 52 48 58 64 59 48 43 34
11 12 13 12 12 13 14 14 14 18 24 24 31 35 35 35 34 34 37 37 40 44 52 58 61 66 61 57 55 50 45 45 43 41 50 56 58 61 66 52 55 53 56 64 62 58 59 42 40
12 12 12 12 11 12 13 13 13 15 24 24 29 32 33 32 33 37 38 37 38 45 52 61 64 68 67 56 56 47 46 40 42 42 52 56 57 63 62 75 65 58 62 68 65 71 45 43 38
12 13 12 13 12 11 12 14 14 11 15 21 23 27 29 32 33 36 38 38 38 44 53 59 66 67 68 62 55 55 50 48 46 46 48 53 58 60 66 64 64 68 58 76 67 64 61 43 42
13 9 10 10 12 16 12 18 16 13 15 18 20 24 27 30 31 33 35 37 37 42 47 56 63 68 66 69 61 71 53 51 45 48 44 46 58 58 58 62 64 71 51 61 71 56 58 62 45
11 6 8 10 11 13 14 15 15 13 15 14 17 19 24 26 29 32 34 35 34 39 43 50 63 71 69 71 68 59 63 48 44 43 58 67 62 60 54 60 65 66 69 62 67 66 71 53 46
9 9 9 10 10 15 15 14 15 13 16 14 16 19 24 26 27 30 32 32 34 36 41 47 64 76 73 71 72 73 71 63 49 53 47 47 47 49 60 57 62 64 63 64 64 69 70 66 56
11 11 14 14 13 14 12 14 16 12 11 12 12 14 22 25 27 28 33 34 35 39 42 47 60 74 70 68 69 71 71 71 68 61 53 55 44 42 56 64 66 60 68 62 66 72 67 69 60
13 11 10 20 11 10 12 15 13 10 10 10 10 10 16 23 24 26 31 34 38 38 44 48 57 70 69 68 74 75 75 56 56 59 48 48 42 43 51 58 61 64 62 65 67 61 60 63 62
14 14 7 8 10 10 8 10 9 10 10 10 10 10 11 20 24 27 27 31 36 40 45 51 58 67 65 61 70 74 73 71 57 64 62 48 57 42 51 55 63 61 62 65 69 58 66 62 66
10 10 11 9 19 18 10 12 11 13 13 12 11 10 11 15 22 23 25 27 31 34 38 46 52 61 62 60 62 62 65 70 68 65 67 64 55 59 52 59 60 61 63 65 71 61 65 70 57
11 11 11 8 9 12 12 8 9 12 13 12 11 11 10 13 16 19 21 24 25 29 34 40 46 54 55 57 61 63 60 61 66 64 66 68 62 63 64 63 62 60 62 65 71 69 60 71 70
9 12 12 12 19 11 11 8 6 8 8 10 10 10 10 11 13 14 15 19 24 28 30 34 38 42 48 52 63 63 63 63 60 67 66 68 69 65 66 64 65 62 60 64 69 70 58 66 69

GFSSGP_sfc_rhum_027.txt.gz
RH
62 55 61 71 92 68 80 62 36 34 39 29 31 45 50 47 56 91 54 82 76 82 66 64 78 73 73 75 78 78 76 76 77 75 76 74 75 73 74 72 72 71 71 70 70 68 67 68 69
41 54 73 76 87 95 53 43 41 37 31 31 31 33 42 62 46 64 73 69 62 65 47 44 82 79 76 77 78 76 74 75 75 75 75 74 74 72 70 70 71 71 71 69 67 66 65 65 64
46 50 79 60 78 58 42 53 39 30 29 35 35 36 49 57 53 54 58 60 57 56 48 50 80 79 77 77 77 76 74 75 75 74 73 72 72 71 71 66 69 71 70 68 66 64 63 62 62
54 59 53 61 69 25 36 38 31 30 28 28 30 46 42 43 49 48 47 48 45 45 37 68 78 77 78 77 75 74 74 75 74 74 76 72 72 70 70 67 68 68 68 67 65 66 64 63 62
55 44 55 66 49 24 26 27 34 35 31 30 31 44 58 49 41 45 48 45 42 47 38 52 82 81 78 75 75 74 74 75 73 73 71 71 71 70 69 70 68 67 66 66 66 66 67 68 67
60 42 83 54 24 23 24 24 38 39 28 32 42 51 63 47 43 42 42 41 44 45 36 50 76 80 79 75 74 74 74 74 73 72 71 71 70 70 69 69 68 65 65 65 64 65 66 66 70
46 56 76 59 25 24 23 20 31 29 28 30 31 52 58 50 44 40 40 41 40 36 34 43 47 64 76 76 74 74 73 73 72 71 70 70 69 68 68 67 66 64 63 63 63 63 64 65 68
32 30 35 54 48 27 20 18 19 30 30 25 30 51 62 49 40 40 42 41 46 38 32 40 44 46 56 55 72 72 72 72 72 71 69 68 67 67 66 69 66 62 61 61 60 59 61 63 66
26 38 34 22 28 21 19 19 20 22 27 27 28 35 39 38 37 43 44 45 41 36 31 33 35 44 52 50 59 70 72 71 71 67 68 66 76 67 69 67 64 60 61 60 58 58 57 61 64
29 50 70 17 14 17 19 21 21 24 27 29 28 31 36 34 39 47 48 50 46 43 29 29 34 37 40 35 57 54 47 42 45 45 51 89 55 58 56 58 66 64 60 60 57 57 64 65 71
23 37 62 16 14 14 16 20 18 20 26 28 33 38 36 35 38 40 42 41 40 38 28 29 35 42 38 42 42 39 36 35 38 44 47 64 49 56 90 65 68 47 61 69 59 58 61 38 40
23 24 54 16 15 14 16 18 22 20 19 21 28 33 35 35 34 32 34 36 35 32 30 28 34 43 40 36 36 33 32 32 33 38 52 52 52 46 52 64 46 47 63 67 64 52 48 78 44
20 19 17 18 16 14 13 16 25 20 17 19 27 32 34 34 33 30 29 29 31 32 30 30 38 51 50 49 37 32 33 31 30 37 45 41 63 53 59 51 64 58 54 82 44 52 47 49 59
16 18 17 15 14 12 13 13 17 20 18 21 28 32 31 32 31 32 31 32 32 33 33 32 39 50 49 51 53 42 36 33 32 32 37 51 52 52 72 61 66 67 68 78 46 48 72 43 46
15 18 18 18 12 12 12 13 18 19 21 24 28 30 30 30 30 32 31 32 32 33 35 36 40 45 53 54 52 45 36 33 33 33 42 48 53 56 64 73 59 72 53 56 57 51 92 52 31
16 17 20 14 12 11 11 17 13 16 23 25 27 28 30 30 28 30 30 30 32 34 40 40 34 41 50 54 53 44 37 35 33 32 36 48 53 56 60 50 45 77 48 46 67 59 37 41 34
12 16 16 15 11 11 12 15 16 15 20 24 26 27 27 30 29 31 29 30 31 36 42 44 44 44 50 59 50 49 50 40 34 32 32 54 54 56 57 48 66 56 72 44 46 49 44 36 32
15 13 12 14 11 11 12 14 16 16 18 21 25 26 28 27 28 29 29 29 30 36 41 47 44 54 60 54 60 45 40 40 35 34 33 56 52 56 59 61 52 52 82 54 48 63 43 39 31
12 11 11 10 10 11 14 15 13 14 15 17 23 26 27 27 26 26 29 29 31 36 44 52 56 64 57 52 51 47 43 43 38 36 43 49 51 58 63 54 59 52 63 56 58 51 54 36 38
12 12 11 10 9 11 13 14 11 12 14 16 19 23 26 26 26 28 30 29 31 36 45 57 61 67 64 53 56 48 47 37 38 37 49 49 53 58 66 68 54 54 60 61 62 61 72 36 35
10 11 11 10 10 9 12 14 14 11 12 16 16 20 22 25 27 30 31 31 31 38 46 57 66 68 68 64 56 55 49 46 41 41 41 48 53 54 59 61 58 56 60 76 64 59 59 68 37
9 7 8 9 11 14 11 17 16 12 12 16 16 18 21 22 25 29 29 31 31 36 41 55 65 69 67 71 58 67 50 46 38 42 39 44 56 53 53 61 58 71 52 88 70 54 58 60 45
8 6 8 9 10 12 12 15 14 12 13 11 12 16 18 20 22 26 29 30 29 32 37 47 65 71 69 72 70 56 60 41 38 37 56 60 64 57 50 59 66 67 58 66 68 66 67 51 49
7 8 7 8 8 14 13 13 15 12 13 11 11 12 15 17 20 24 27 28 29 29 33 43 65 75 73 72 74 72 68 57 44 48 43 42 42 50 60 54 66 67 64 61 62 68 66 67 55
9 9 11 11 10 12 10 12 14 10 9 10 10 11 12 14 18 23 27 28 30 33 36 42 62 74 73 70 71 71 69 70 67 61 45 49 39 38 58 66 72 59 69 61 65 74 67 67 61
10 9 10 19 11 8 9 13 11 9 8 8 9 9 12 13 16 20 25 28 31 33 39 43 56 71 72 70 74 75 73 53 52 56 42 42 37 38 51 64 62 63 64 64 66 58 58 64 61
11 11 6 7 6 7 6 8 7 8 8 9 9 9 10 13 16 20 23 26 30 32 40 46 55 66 68 65 71 74 74 70 55 62 61 46 54 37 49 56 63 62 63 65 69 56 66 64 66
9 8 9 8 16 15 8 10 9 11 11 10 10 10 10 10 15 18 20 24 27 28 32 40 48 60 64 62 65 65 68 72 66 63 66 61 54 58 52 56 58 63 64 66 72 61 64 71 58
10 10 10 7 8 11 12 9 7 10 11 11 10 9 9 9 14 17 20 20 24 26 29 34 42 52 59 60 63 64 64 64 68 64 64 66 62 62 63 64 63 64 65 67 72 70 62 70 71
8 10 10 11 18 8 8 8 6 6 6 9 10 9 9 9 12 16 17 18 20 25 27 30 35 39 49 55 62 63 62 63 63 68 64 66 68 64 65 65 67 66 64 66 70 70 57 64 69

GFSSGP_sfc_rhum_030.txt.gz
RH
69 58 59 75 99 97 79 80 67 49 39 37 36 49 47 48 55 76 72 79 66 69 64 69 78 76 77 80 82 80 80 80 79 76 76 75 75 74 76 75 75 74 72 71 70 69 69 69 68
49 56 77 90 96 93 90 53 57 43 32 30 33 36 47 67 49 64 69 74 61 57 50 54 81 79 78 81 81 79 76 76 77 75 76 76 76 76 74 73 72 72 71 69 68 67 66 66 66
43 53 90 86 92 89 74 68 48 33 31 35 40 39 50 64 50 53 52 60 54 53 44 64 81 81 79 80 80 79 78 77 76 74 74 73 73 73 71 72 72 71 70 68 67 65 64 63 64
62 80 78 88 77 59 42 37 37 32 32 32 39 55 53 46 52 46 48 42 44 48 42 74 78 77 78 80 79 78 77 75 75 74 74 73 72 71 70 70 70 70 69 68 68 67 66 65 65
57 54 80 78 60 44 29 30 38 40 32 39 43 60 70 54 49 46 45 41 46 43 53 58 82 80 80 79 78 77 75 74 74 76 73 72 71 71 72 70 69 69 69 68 69 69 69 68 68
73 76 77 64 45 28 26 26 28 38 33 40 50 57 63 52 54 51 48 44 42 48 45 60 79 81 80 77 77 76 74 73 73 73 72 72 72 72 71 70 68 68 67 67 67 67 66 69 66
80 95 85 68 54 28 28 27 28 33 27 41 41 61 61 57 51 47 48 50 35 39 45 59 63 72 76 78 77 74 74 73 72 71 71 70 69 69 69 70 69 66 65 64 64 64 64 64 68
44 91 85 74 46 52 22 24 26 30 32 30 39 60 72 58 50 46 50 42 44 35 45 56 58 58 66 66 74 73 72 71 70 70 69 69 67 65 64 74 71 65 63 61 60 60 60 63 68
34 61 65 60 38 43 20 26 26 24 27 29 35 44 48 44 42 46 53 51 45 38 41 44 46 59 67 66 66 71 71 70 70 69 69 77 79 78 69 69 68 63 61 58 57 57 58 70 71
34 92 69 41 39 33 22 20 22 24 26 33 41 42 41 44 45 48 55 54 45 44 36 38 45 51 56 44 72 71 61 59 64 64 72 93 89 82 69 62 71 64 58 60 59 63 69 71 75
26 60 36 32 30 18 22 18 18 22 28 36 47 45 42 47 47 49 50 50 47 38 34 37 47 56 51 59 62 57 54 54 62 81 83 97 92 84 81 67 65 69 70 62 72 67 59 64 61
24 48 52 35 28 14 27 40 19 26 26 28 37 38 41 46 45 46 50 47 41 41 35 34 44 56 53 56 51 49 47 58 49 56 74 89 94 93 78 78 71 74 73 82 76 73 69 64 63
20 35 31 50 39 13 24 46 38 32 20 25 32 35 37 40 42 40 44 40 40 41 33 38 49 62 66 67 51 46 56 43 54 58 64 87 89 85 72 74 70 81 95 96 89 73 76 75 63
17 16 24 29 28 14 13 26 30 31 19 26 32 35 33 34 35 39 42 41 40 42 36 39 50 60 62 65 69 67 58 51 53 51 58 66 81 83 73 74 70 76 79 96 85 82 81 77 66
15 19 17 17 16 14 11 14 18 30 20 25 31 34 33 32 30 33 36 36 36 33 37 46 51 53 64 67 66 64 56 43 48 56 67 60 68 73 74 78 86 86 84 72 77 83 83 79 56
17 16 22 17 16 13 12 17 20 26 21 26 29 32 33 32 29 31 30 30 34 35 44 48 36 50 59 65 67 63 54 52 55 53 60 63 64 69 77 77 84 91 83 77 73 73 79 74 60
18 21 20 19 14 14 12 15 12 22 20 27 27 29 31 33 32 33 29 32 33 40 49 51 49 55 61 70 64 63 63 59 56 54 56 70 69 68 76 75 77 81 91 86 68 72 75 62 55
23 19 16 20 15 13 12 14 15 17 38 25 28 27 30 30 31 32 30 30 33 41 51 54 50 64 69 65 72 60 57 58 57 58 57 71 69 69 75 73 76 74 86 76 74 77 68 66 60
17 15 14 12 12 14 14 16 17 24 57 39 27 29 28 29 28 31 30 30 34 42 52 57 62 72 67 66 66 64 60 61 60 60 64 73 70 73 80 84 90 83 87 80 71 71 70 63 60
16 16 13 10 9 11 13 13 15 24 46 42 28 41 28 26 28 32 33 31 32 44 55 62 65 72 70 66 70 63 64 57 57 60 66 66 67 78 77 81 80 79 83 80 78 79 84 67 62
16 17 14 12 9 9 13 15 15 17 16 18 20 28 23 26 27 31 35 33 34 46 55 64 69 74 72 70 69 71 70 69 61 60 62 63 67 70 80 80 80 80 85 85 82 79 79 81 64
15 13 11 12 12 13 10 17 19 15 14 15 16 21 22 26 27 30 33 34 35 42 51 64 69 74 73 74 70 76 65 61 59 61 60 62 67 69 69 77 78 81 86 85 85 76 79 81 75
10 7 10 10 11 12 11 14 14 15 15 14 16 19 28 23 25 29 31 34 33 38 47 59 71 75 76 75 77 68 70 60 56 57 70 73 75 71 65 76 78 82 79 87 86 82 82 82 77
6 7 7 8 9 16 13 13 16 14 17 13 14 14 19 21 24 29 30 33 34 36 44 54 73 78 77 78 76 80 75 69 59 62 60 64 66 68 72 70 78 82 79 84 86 84 84 84 83
7 8 12 14 13 14 11 13 16 12 14 12 12 13 15 20 22 28 34 33 36 39 46 52 72 79 77 77 75 78 76 74 78 73 60 63 58 62 72 77 84 77 80 82 80 86 85 84 83
9 8 12 23 15 11 10 14 12 10 9 11 10 11 13 15 17 24 32 34 38 38 45 52 69 78 77 74 80 77 80 66 63 70 55 59 56 56 71 72 74 76 77 77 82 79 78 82 82
10 11 7 9 8 9 8 9 8 9 9 9 8 10 12 13 15 22 28 32 37 37 45 51 65 74 75 73 77 80 78 76 65 71 70 62 68 53 66 71 72 75 75 78 81 74 81 80 82
9 8 11 10 20 18 10 12 11 13 12 11 11 9 11 13 15 20 25 30 34 33 38 45 56 70 73 73 72 73 75 76 72 68 75 68 66 67 68 73 73 74 76 78 82 78 79 82 79
9 10 10 9 10 13 14 9 9 14 13 13 11 11 11 13 16 18 24 26 31 32 35 40 47 62 69 71 73 73 73 73 72 70 71 73 69 75 69 76 75 76 75 77 81 80 76 80 82
8 10 11 14 21 11 12 10 7 9 10 10 11 11 11 13 17 17 20 24 29 32 33 38 42 48 60 68 73 73 73 74 73 72 69 72 75 70 74 73 74 75 74 76 79 79 70 77 80

GFSSGP_sfc_rhum_033.txt.gz
RH
77 68 73 85 100 97 89 72 70 60 54 49 43 55 69 66 58 85 86 79 76 80 82 74 81 80 78 83 82 79 79 78 81 81 79 77 75 77 78 75 74 74 73 71 71 71 70 70 70
67 65 85 96 98 96 91 69 83 61 45 44 44 51 61 73 69 89 87 75 73 73 78 77 83 82 78 82 82 81 76 76 79 80 80 78 76 77 75 73 73 72 71 70 70 69 68 68 68
57 62 95 96 93 94 83 67 66 45 36 43 51 49 59 74 77 74 75 67 66 66 69 76 83 82 78 80 80 80 80 77 78 79 76 75 77 75 73 73 72 71 70 70 68 67 66 66 67
62 86 91 97 87 68 59 54 51 38 44 48 54 67 55 52 58 71 66 59 61 59 76 80 80 78 78 80 79 78 77 78 78 79 75 74 72 71 71 70 71 70 69 70 69 68 67 66 67
68 86 92 90 83 79 57 46 48 49 47 54 54 70 69 62 63 64 61 54 60 68 76 78 83 81 81 79 77 78 77 77 79 80 74 73 73 73 71 70 70 70 70 70 70 70 69 68 68
89 75 88 83 68 63 54 38 41 45 48 60 68 70 76 58 55 54 49 51 54 71 74 77 80 81 81 76 76 77 75 75 80 79 75 74 74 76 74 70 69 68 67 68 68 68 70 68 66
79 90 90 82 86 58 38 33 42 51 52 58 54 79 75 61 51 47 46 51 55 59 72 82 80 76 76 80 76 76 75 75 75 74 74 74 72 71 71 73 71 66 65 66 66 68 70 70 68
78 82 87 77 71 66 67 31 38 44 52 44 52 82 88 67 54 52 51 53 54 67 74 81 83 83 87 83 75 74 74 74 73 72 71 70 66 66 68 76 74 66 64 63 63 69 72 71 72
50 92 93 77 55 46 47 40 34 35 47 48 45 61 63 57 56 56 61 62 52 64 70 72 75 82 85 85 75 75 73 72 73 74 76 85 94 82 75 74 72 65 65 65 68 68 73 70 68
67 89 80 46 41 46 47 47 33 45 53 61 65 58 54 54 58 60 65 63 59 64 64 63 67 74 76 64 84 87 79 84 83 83 81 92 91 91 81 72 72 67 68 68 71 70 70 73 80
50 62 46 40 34 47 43 43 52 48 64 64 71 64 57 55 58 61 59 58 54 54 55 57 62 69 69 74 87 90 84 83 84 75 92 93 93 92 95 86 81 77 67 70 76 73 72 69 74
42 38 42 38 32 31 34 37 48 36 52 51 56 54 54 56 56 58 57 57 47 49 49 52 58 63 69 72 77 75 74 75 81 83 87 96 96 92 89 94 84 82 88 88 87 88 81 77 67
31 43 33 27 33 35 31 35 40 42 45 46 49 52 54 54 53 52 52 52 47 47 45 50 56 63 69 67 68 70 67 66 66 79 83 96 93 95 92 89 91 89 94 84 79 89 74 77 66
26 32 34 33 29 33 35 32 44 43 42 46 50 56 54 52 54 53 51 49 48 45 43 49 56 67 61 59 70 67 61 59 61 68 80 84 92 95 92 92 96 92 93 91 91 88 80 67 75
25 26 32 34 29 28 34 44 51 41 41 45 50 54 52 50 50 54 51 49 46 46 44 51 52 63 63 67 71 64 71 52 62 60 76 78 79 84 75 95 90 94 95 90 92 88 81 67 64
29 27 32 34 32 28 28 44 29 32 42 47 44 48 50 49 47 51 48 46 44 45 48 52 44 62 74 72 74 72 66 64 65 62 74 71 73 77 92 88 87 88 84 86 89 82 79 81 73
31 38 30 23 18 19 21 33 31 29 37 44 44 42 42 45 45 46 46 44 43 47 55 54 52 61 76 76 78 73 72 72 66 63 71 72 73 76 87 94 91 89 89 86 80 81 78 75 71
39 36 28 24 18 22 23 23 36 30 34 62 65 43 41 40 41 40 44 40 39 52 50 52 57 60 72 78 84 76 76 78 73 70 72 77 80 77 83 92 94 90 84 88 83 75 70 65 60
26 29 26 20 17 21 22 22 33 53 69 65 76 72 42 39 36 36 36 36 40 51 53 58 65 68 66 77 79 79 75 81 73 70 75 80 82 80 86 92 92 91 87 90 78 78 78 64 69
22 26 27 19 14 18 19 19 36 51 56 65 68 59 48 38 38 38 36 37 42 53 56 59 70 71 66 69 66 81 83 79 71 69 82 77 81 85 86 88 90 90 93 87 82 84 89 78 66
21 24 24 23 16 13 17 20 46 39 40 45 50 51 48 35 37 39 37 37 42 55 57 64 65 73 68 71 72 83 84 80 78 75 83 81 79 84 86 86 89 92 92 94 88 86 88 83 74
24 18 19 19 20 24 13 29 28 35 41 46 48 57 48 41 34 37 37 38 42 54 55 61 65 78 70 76 71 69 64 70 81 72 77 78 79 80 84 84 87 88 92 87 91 86 87 86 70
22 16 17 18 21 23 18 27 21 28 40 48 52 48 56 57 37 38 37 37 38 50 57 60 66 76 70 72 69 74 75 83 76 74 75 81 82 82 79 84 87 87 95 89 87 89 89 92 83
16 18 16 18 20 24 17 23 25 22 24 32 35 45 48 32 30 41 37 36 38 48 57 65 69 78 73 72 81 76 79 76 81 80 75 86 75 80 83 82 84 89 90 93 90 90 91 87 91
17 19 23 22 22 23 17 21 20 18 19 18 27 39 37 39 32 43 38 38 40 52 56 67 73 79 76 73 72 90 80 77 80 76 79 86 82 78 83 89 87 90 89 93 90 91 94 92 91
16 15 22 28 24 18 14 18 16 15 14 16 17 30 34 45 42 35 36 37 39 44 55 67 73 75 78 78 73 68 92 75 66 88 70 84 69 74 73 80 83 85 88 91 90 92 93 94 92
14 15 11 19 23 23 17 12 11 9 10 12 16 16 28 33 31 33 34 36 38 43 52 61 74 72 75 77 77 72 74 90 66 62 86 66 78 63 74 73 87 82 82 87 94 86 91 95 94
12 11 15 13 26 25 18 14 14 11 10 11 15 15 19 29 31 32 34 36 37 38 47 53 71 74 74 74 76 76 71 74 77 69 68 83 65 73 70 75 76 82 84 83 87 94 94 94 94
12 15 12 16 20 28 32 20 10 10 11 14 12 17 13 20 29 34 35 35 37 36 45 52 62 74 76 76 73 75 75 70 78 76 70 79 80 78 83 80 76 79 79 88 86 89 92 95 94
12 12 12 16 22 20 20 17 15 14 10 11 11 15 17 17 27 33 34 35 38 37 42 48 55 70 73 73 74 75 76 77 71 77 81 62 86 76 87 84 81 82 79 80 88 88 79 87 94

GFSSGP_sfc_rhum_036.txt.gz
RH
77 70 77 89 100 99 91 77 79 71 70 55 52 57 64 73 70 86 86 84 81 88 84 78 82 80 79 81 80 78 78 78 79 78 78 77 77 77 76 75 74 72 72 72 72 71 70 71 69
73 71 88 96 99 96 88 83 83 62 58 55 54 56 64 88 79 90 90 82 79 86 87 81 84 82 80 81 80 79 75 76 79 78 78 77 76 75 74 74 73 73 72 71 70 70 70 70 70
70 70 94 97 95 90 90 86 72 50 50 50 58 55 63 88 81 80 78 76 78 83 86 79 83 83 80 80 78 79 76 76 76 77 76 75 75 75 73 72 72 71 70 69 68 67 67 68 68
72 89 93 96 88 72 64 62 56 54 54 54 56 69 64 67 73 78 74 70 77 80 83 80 80 78 79 78 79 77 76 77 76 76 74 73 73 73 72 72 71 70 71 70 68 67 66 67 68
74 90 93 92 83 72 63 53 57 62 64 56 55 75 80 72 71 70 70 65 71 83 83 79 82 82 80 77 77 77 76 77 77 77 75 75 73 72 72 72 71 72 71 71 70 70 69 69 69
96 87 89 88 77 62 58 61 77 68 63 65 67 76 87 75 70 66 62 64 75 82 83 81 81 81 80 76 77 77 78 76 78 76 74 75 76 73 72 71 70 69 68 68 68 70 70 68 70
82 88 85 82 81 70 63 61 66 65 58 60 53 87 82 78 64 59 58 68 77 80 85 85 80 76 76 78 76 75 76 76 76 76 76 75 73 72 71 71 70 67 66 67 67 68 69 70 68
72 82 76 74 76 87 71 66 55 57 64 52 52 87 88 69 57 53 55 73 75 79 87 92 91 88 90 83 75 75 76 75 75 74 73 72 71 69 69 76 75 65 64 64 64 66 71 71 70
78 86 84 70 76 84 75 58 53 54 58 51 53 65 58 54 48 53 62 73 80 85 90 92 91 96 94 89 77 75 74 74 73 74 73 82 93 85 77 73 70 65 61 62 65 70 71 70 69
75 93 72 56 55 56 83 66 64 58 59 66 71 61 54 52 51 61 68 83 85 89 90 88 90 92 92 74 88 91 81 86 88 86 87 94 91 88 83 77 69 65 64 66 72 70 67 72 78
72 86 62 53 48 38 47 54 51 65 76 71 82 70 60 57 61 65 65 74 80 80 80 81 84 87 87 81 95 98 94 92 91 87 86 90 90 92 94 91 89 83 68 77 77 78 80 78 78
62 58 54 46 35 33 38 47 55 51 64 59 66 63 63 65 66 64 66 66 72 75 72 73 78 80 84 90 91 93 88 89 92 79 90 96 96 94 94 95 88 86 90 88 88 89 86 80 68
51 48 43 37 34 34 33 41 42 47 56 56 58 61 64 63 62 61 59 58 63 67 65 68 74 76 79 84 87 88 86 83 84 77 83 95 94 95 94 92 91 93 94 88 81 88 80 78 73
38 40 37 32 34 36 36 36 44 60 58 61 59 63 61 62 61 62 58 60 58 58 60 62 70 72 74 75 82 83 79 78 82 81 84 90 91 95 97 95 94 93 94 92 89 88 85 75 76
28 39 33 36 32 33 31 37 54 59 59 63 64 62 60 58 58 60 56 56 51 52 54 59 66 69 71 66 77 76 74 64 72 75 85 85 86 90 92 96 93 94 95 88 94 92 82 65 67
34 36 46 35 29 30 34 46 52 55 60 65 62 59 58 57 57 55 54 52 52 49 53 55 54 67 66 65 76 77 71 72 73 75 82 81 80 90 94 92 93 95 97 98 97 88 81 76 74
36 44 44 35 33 31 36 38 54 57 62 66 63 60 58 58 56 52 52 50 49 50 52 55 55 69 64 79 77 76 72 77 77 78 81 83 81 86 92 94 93 90 94 93 84 89 92 85 76
41 48 41 36 26 33 36 34 58 55 58 66 66 61 58 58 57 52 50 47 48 55 52 53 52 66 69 82 82 78 78 80 80 70 77 80 83 83 90 94 92 94 89 92 88 82 75 65 67
30 34 37 29 22 23 26 40 58 53 55 63 68 66 60 56 50 50 49 46 46 58 55 55 56 68 72 85 88 84 78 80 84 80 74 82 84 84 90 95 94 93 88 90 82 83 81 64 76
25 29 34 28 25 26 27 42 49 52 54 57 60 60 56 52 51 48 51 48 46 58 57 58 58 64 69 67 72 80 84 85 80 78 80 81 84 87 90 93 95 93 93 94 86 88 91 76 74
25 28 27 34 26 23 22 46 41 45 51 51 53 50 51 46 45 48 48 49 46 57 59 60 61 63 63 71 80 93 91 87 84 83 93 82 85 87 91 88 93 94 94 93 91 89 85 76 79
29 20 21 23 29 36 21 45 63 56 57 52 47 50 52 47 40 43 44 48 45 55 54 62 64 66 65 74 71 71 70 76 82 78 88 87 86 87 87 87 90 92 97 94 93 89 91 85 70
24 20 21 22 30 38 27 31 66 57 63 57 50 48 45 50 41 42 39 41 44 50 56 61 70 68 68 76 68 68 71 72 88 79 81 86 86 86 81 87 88 91 96 90 92 94 93 91 86
21 23 25 24 31 40 27 26 29 64 55 48 41 43 40 45 40 37 38 37 45 48 54 60 75 73 70 76 72 70 72 86 83 86 76 86 79 81 88 85 88 90 96 94 91 91 93 93 89
26 34 42 41 36 35 24 26 22 40 39 40 41 40 42 43 39 37 41 39 43 54 56 60 69 80 75 74 76 75 73 80 81 80 78 94 87 89 91 93 93 88 94 95 92 94 95 94 95
29 29 43 51 41 29 22 26 20 16 26 26 36 36 42 42 41 38 39 38 40 54 57 58 66 71 76 74 74 74 74 72 69 80 78 74 80 77 76 85 87 87 91 93 94 95 96 96 95
28 31 22 24 49 25 21 17 14 12 13 23 38 40 42 42 43 37 38 38 40 52 58 60 63 63 74 71 73 79 82 73 73 75 82 80 84 77 79 79 85 85 87 90 95 93 95 96 96
22 18 25 26 32 38 25 20 15 13 11 14 33 39 41 44 37 34 37 38 38 46 53 60 62 62 70 71 68 70 77 84 73 72 84 91 81 78 77 80 83 86 84 87 95 95 94 96 98
26 19 21 21 25 26 30 18 14 14 15 11 28 30 38 39 36 35 36 37 37 40 50 62 66 65 71 73 73 71 70 70 87 77 72 72 85 79 77 80 82 85 86 84 89 93 96 93 93
19 20 17 18 24 29 28 18 16 10 11 10 12 35 35 34 35 34 35 36 38 39 47 58 68 68 69 73 75 76 75 73 74 87 78 73 75 86 77 88 82 83 84 84 85 89 85 96 96

GFSSGP_sfc_rhum_039.txt.gz
RH
76 73 79 93 100 98 94 82 73 79 82 57 50 54 68 85 75 91 86 90 88 91 88 80 81 79 78 78 80 78 76 78 78 77 76 76 76 76 75 74 74 73 72 72 72 71 70 70 71
74 76 92 98 98 96 86 83 80 70 66 65 60 62 71 93 75 93 93 87 87 89 90 82 83 81 79 78 79 77 77 76 76 77 77 76 77 76 75 74 74 73 72 74 74 70 70 69 71
71 70 95 99 94 90 90 78 76 62 57 54 64 58 73 89 80 84 80 85 87 92 92 84 83 82 79 77 77 76 77 75 77 76 77 76 75 74 73 73 72 72 71 70 70 69 69 67 70
80 94 96 98 88 73 66 67 72 63 67 59 62 76 75 66 75 83 79 84 89 90 87 81 78 78 76 77 77 76 76 76 78 77 75 75 75 72 72 72 71 71 70 70 69 69 68 69 68
79 94 96 93 85 65 64 69 66 75 74 62 58 86 92 73 78 76 80 80 88 94 87 80 81 79 77 78 77 76 76 76 77 77 74 73 73 72 72 72 72 72 71 71 71 70 70 67 68
98 90 89 87 80 65 65 68 66 61 73 69 74 80 89 81 82 77 74 80 82 91 90 84 80 78 78 75 78 76 77 76 76 76 77 74 74 74 72 72 71 70 68 69 70 70 70 69 68
95 89 87 87 81 71 73 65 68 74 72 69 60 90 93 86 76 70 71 80 83 87 94 91 87 75 75 76 76 78 76 78 76 76 76 74 74 72 72 71 70 68 67 66 67 68 69 68 69
82 80 78 80 82 82 71 72 68 68 69 50 58 92 96 81 69 65 79 86 91 93 93 96 93 89 91 85 74 76 76 76 76 75 74 72 72 70 70 76 74 67 66 65 66 67 70 72 70
63 84 87 72 70 74 67 74 56 59 62 53 56 67 68 67 64 67 89 92 91 94 98 97 96 96 96 90 78 76 75 74 74 74 72 83 93 88 81 73 67 65 64 64 65 68 67 68 70
86 92 70 52 63 64 65 81 60 71 61 74 68 66 67 62 63 74 90 95 93 94 96 98 97 97 96 78 89 90 85 88 90 91 92 94 92 88 85 78 67 64 65 67 70 68 67 74 78
79 87 58 50 48 54 68 70 62 66 78 76 75 74 67 60 64 71 85 88 89 92 90 97 97 97 96 89 98 98 96 95 95 91 89 92 91 93 95 93 93 83 71 81 80 87 84 79 82
84 63 59 50 44 53 64 54 59 62 65 62 60 62 57 59 65 70 84 87 89 92 90 92 94 96 96 97 99 98 97 97 97 90 86 94 96 95 95 97 90 88 90 89 91 93 88 84 72
66 62 53 54 51 43 41 54 60 63 60 61 56 55 55 59 63 66 73 78 83 88 85 87 88 94 94 96 98 98 96 93 92 81 84 95 96 96 94 93 92 93 94 92 86 91 82 79 77
47 50 50 44 42 42 39 55 59 61 63 65 59 58 54 60 66 66 70 77 80 79 80 80 84 87 90 95 95 95 92 89 88 88 79 89 92 96 96 95 95 95 95 94 89 94 83 77 77
33 46 35 37 41 38 34 45 52 65 66 71 64 60 58 61 63 66 64 72 72 72 72 77 81 83 87 91 88 90 87 81 86 86 83 87 86 96 95 96 94 93 96 86 93 93 84 79 73
37 40 52 36 38 34 35 54 72 66 68 74 70 63 62 63 64 63 60 62 63 65 69 70 65 78 80 85 84 80 81 80 76 84 88 85 86 89 95 94 93 94 95 95 97 92 80 84 79
33 52 52 43 35 37 38 54 73 68 70 72 69 66 65 65 63 62 57 58 58 60 64 68 68 76 78 81 84 81 77 79 84 88 88 87 86 89 94 95 96 94 97 97 96 92 94 84 84
41 49 45 41 35 36 45 54 73 69 70 73 72 67 66 64 64 60 57 52 56 55 58 62 65 74 76 84 88 87 84 84 85 87 87 86 90 89 93 96 94 95 94 97 95 84 83 72 76
33 40 41 36 30 36 44 42 73 69 70 74 75 71 66 63 58 57 55 53 53 57 56 61 64 70 75 90 88 89 85 87 88 87 82 85 87 89 90 94 95 93 91 93 84 86 74 76 77
26 32 38 31 27 31 34 40 64 69 71 71 73 70 66 61 59 56 55 54 53 59 57 59 61 67 75 69 71 80 82 85 82 83 83 82 85 89 91 92 95 93 93 93 90 88 92 75 81
27 28 31 33 30 31 36 51 47 67 64 65 66 63 62 60 60 58 56 54 52 57 62 60 60 64 70 68 85 95 89 88 89 87 90 84 85 88 92 92 94 94 95 95 91 91 82 71 84
32 23 24 26 30 43 30 71 79 70 70 64 68 66 61 58 54 56 56 54 51 52 60 60 59 60 65 72 74 74 70 68 78 88 89 89 87 88 91 89 93 94 97 94 93 92 92 77 75
29 24 26 26 36 43 33 38 69 63 77 66 61 60 58 58 53 54 52 53 51 49 58 61 62 61 61 74 63 69 74 75 96 90 86 94 95 89 88 91 92 95 98 95 94 94 93 90 75
24 27 30 35 39 41 31 36 38 60 63 62 57 55 52 50 49 48 48 48 51 49 56 61 66 65 62 71 68 70 71 91 94 94 89 96 97 91 93 89 93 94 96 94 93 94 94 95 90
30 37 55 52 52 42 32 37 29 43 46 49 52 49 46 45 48 44 49 50 51 52 58 61 68 68 66 72 71 72 71 82 82 89 89 95 95 97 95 95 96 96 94 96 94 93 95 95 96
34 37 58 66 56 40 33 40 30 27 38 40 42 41 39 41 45 44 44 45 49 50 58 59 69 69 69 72 73 71 70 73 74 78 84 81 79 82 81 91 92 93 93 95 96 97 96 96 96
39 39 34 40 45 36 33 24 16 19 30 42 40 39 37 37 40 44 41 42 46 50 57 60 67 68 70 71 72 73 73 74 75 84 76 77 82 79 85 86 89 95 95 95 96 98 96 97 97
32 29 41 39 46 43 32 24 26 21 23 31 42 41 37 35 38 39 39 40 40 47 53 56 61 65 70 71 70 72 73 75 74 79 85 83 83 84 84 87 86 91 94 95 96 96 95 96 98
27 33 40 37 35 36 33 23 18 16 17 17 34 32 34 36 38 40 40 38 39 41 52 55 58 61 68 70 69 71 75 77 73 79 83 84 87 89 90 89 86 87 90 94 96 95 95 96 96
19 30 27 34 43 34 33 24 15 14 15 12 18 29 36 39 38 38 39 37 40 40 51 56 56 59 60 68 68 71 74 80 80 79 79 79 90 88 83 89 88 86 88 91 93 94 90 95 95

GFSSGP_sfc_rhum_042.txt.gz
RH
73 72 83 94 98 98 95 87 74 85 88 67 48 55 68 83 75 91 92 92 88 90 92 80 80 78 76 78 79 78 77 78 77 77 78 76 76 76 74 74 74 73 73 72 71 70 70 68 70
73 77 92 98 99 97 90 82 78 74 67 72 55 62 71 94 78 94 94 91 84 90 95 83 82 80 78 79 78 77 78 78 77 76 76 75 77 75 73 73 74 74 71 70 71 69 69 70 71
73 71 99 99 92 89 89 84 84 71 64 62 67 65 77 88 83 87 85 88 87 95 94 85 81 81 78 77 77 78 74 76 77 75 74 74 75 73 73 73 73 72 72 71 70 68 69 70 69
80 95 96 99 90 75 71 76 72 81 75 70 72 88 79 68 74 84 87 87 94 95 92 81 79 76 77 76 77 75 75 77 76 76 74 74 73 72 72 72 71 71 70 71 70 68 68 67 66
82 93 97 95 82 66 66 80 79 75 80 70 72 89 92 80 81 85 87 87 95 97 91 79 81 78 77 76 76 75 76 77 76 75 74 72 72 72 72 71 71 70 70 70 70 68 67 68 67
97 93 94 87 78 65 68 71 79 70 76 71 79 84 91 86 84 86 86 90 88 94 92 85 79 76 78 76 76 75 76 76 76 75 74 74 74 73 72 71 70 69 69 70 70 71 70 68 72
95 90 87 90 84 77 72 70 72 80 77 69 66 86 96 91 80 82 86 89 90 92 94 93 85 80 76 77 76 77 75 77 76 76 75 75 74 73 72 71 69 66 66 66 67 68 69 71 71
81 82 84 88 86 85 69 70 70 70 72 55 61 92 95 85 79 78 87 94 97 97 96 96 91 87 88 84 76 76 78 77 76 76 74 74 72 73 72 76 73 66 65 65 66 67 68 70 73
60 90 91 76 72 72 72 70 64 62 60 56 60 72 74 76 74 86 96 98 98 96 98 98 95 95 94 88 80 76 75 74 74 74 74 86 92 89 81 73 68 64 63 65 68 68 68 68 68
90 93 75 54 61 64 61 70 64 67 63 73 79 75 77 75 76 91 88 85 92 86 97 98 97 97 95 80 89 90 84 87 89 90 91 94 91 86 82 75 68 64 68 70 70 71 70 73 71
87 93 61 47 57 49 59 66 65 66 74 74 85 87 80 76 76 88 85 76 88 81 82 98 98 97 96 92 94 94 93 92 92 91 92 92 90 90 93 88 94 82 73 78 80 84 79 75 75
86 74 62 54 49 56 62 59 65 64 67 63 71 75 76 75 76 86 87 79 93 90 80 97 97 98 97 96 96 95 94 94 93 90 85 93 94 92 91 94 87 86 88 86 88 87 81 80 71
79 71 60 58 57 56 51 56 61 64 64 60 66 69 72 68 71 80 81 85 89 94 85 97 96 97 98 96 97 96 95 92 90 87 84 91 94 94 92 90 92 91 93 93 86 87 78 80 73
48 52 56 52 52 48 51 54 57 63 60 65 69 69 64 65 69 79 84 88 89 87 93 93 93 95 96 96 97 96 93 90 90 87 79 86 94 96 96 93 92 94 95 94 89 88 81 77 75
42 44 40 37 47 50 41 64 63 70 61 66 67 62 59 65 67 76 81 84 84 82 87 91 91 93 95 95 94 94 91 84 88 89 86 82 88 93 94 96 94 91 94 86 92 89 83 75 68
39 36 56 42 37 38 43 62 68 73 69 69 64 59 59 65 68 69 74 77 79 81 87 86 74 86 93 95 92 88 88 87 86 87 88 85 87 90 96 96 91 93 93 95 95 90 82 78 73
37 64 52 46 38 41 45 60 78 75 75 72 65 60 59 65 68 68 66 72 75 77 82 85 82 87 90 93 90 86 85 86 85 85 88 89 87 86 93 95 95 92 95 95 91 94 89 81 78
49 48 52 50 38 44 50 54 82 75 78 76 71 63 60 64 68 65 65 65 68 73 77 79 80 89 91 92 92 89 86 85 86 88 89 88 88 87 92 96 95 94 94 94 93 85 80 76 76
40 46 46 40 32 48 50 52 85 79 76 81 79 73 65 64 61 63 63 61 65 68 73 78 80 90 88 95 94 92 89 89 89 88 87 88 88 90 92 96 95 95 92 91 86 82 76 77 75
33 36 39 35 29 40 46 49 77 80 78 76 78 75 70 65 63 64 64 60 62 66 69 76 77 86 83 80 88 86 88 87 85 86 88 87 87 90 91 93 95 96 95 92 85 84 88 76 79
29 37 33 40 29 30 40 50 79 77 74 71 70 68 67 67 64 64 66 62 59 67 67 72 76 81 81 84 90 92 89 89 87 87 88 86 87 88 92 91 93 94 96 91 87 86 80 75 81
38 26 28 27 37 44 38 55 76 84 81 75 74 71 67 64 61 60 63 63 60 62 66 68 73 78 78 84 85 87 84 82 86 86 87 87 87 87 89 90 91 91 95 92 90 86 87 80 78
24 25 28 28 39 44 31 43 58 79 92 81 74 70 66 63 59 60 59 59 58 58 64 66 73 76 78 81 80 79 80 81 88 88 86 90 91 88 87 91 91 92 92 94 92 91 90 82 78
26 34 35 39 42 45 36 33 44 89 76 74 67 66 64 61 59 57 56 57 57 56 60 66 75 76 78 80 79 82 82 88 90 91 88 90 90 90 91 90 92 92 91 92 91 91 91 90 85
32 34 61 60 57 46 39 34 38 36 61 60 63 59 59 60 58 57 57 57 58 59 60 67 74 76 76 78 80 80 79 86 85 88 86 92 93 93 92 93 94 91 92 92 90 92 92 91 90
33 37 57 68 62 42 43 48 36 23 42 51 52 51 52 55 55 56 54 55 57 59 60 65 72 74 75 76 81 79 78 77 76 84 86 84 86 87 88 89 90 90 90 90 92 88 86 91 89
40 42 35 52 57 54 32 39 23 27 26 45 47 48 51 51 52 53 51 52 54 57 60 66 70 71 73 72 76 79 78 79 80 86 85 85 88 81 86 87 89 90 89 90 93 89 90 91 92
32 32 46 54 62 56 47 34 36 29 31 34 43 45 47 47 48 47 49 48 50 50 54 61 64 69 70 72 72 72 76 79 80 84 86 88 87 85 87 88 88 90 91 90 93 92 90 92 91
33 39 42 39 47 50 44 36 28 28 25 30 30 45 42 44 43 42 43 44 47 48 52 58 62 68 68 71 74 74 75 77 78 81 84 85 86 86 87 88 88 89 91 92 93 93 91 91 91
59 39 44 43 50 47 46 35 22 19 22 22 20 41 43 42 39 38 37 43 45 49 52 58 60 64 66 71 74 74 77 78 78 82 85 86 86 85 86 88 88 89 89 90 92 90 86 90 90

GFSSGP_sfc_rhum_045.txt.gz
RH
69 63 64 83 90 90 76 68 66 72 63 61 42 49 52 59 59 70 62 59 56 59 62 66 80 77 77 78 78 78 78 77 77 77 76 78 75 76 75 73 73 74 72 71 70 70 68 68 72
66 76 86 94 96 90 69 64 67 66 54 53 47 57 65 73 68 82 69 57 52 52 58 55 83 80 78 78 79 77 76 76 77 78 77 75 74 73 74 74 72 71 71 70 69 69 70 71 73
64 69 98 98 93 84 70 72 78 63 59 50 58 56 69 79 72 66 56 54 52 56 61 61 80 80 78 76 77 78 77 77 76 77 75 74 74 73 73 73 72 71 70 72 68 69 68 67 67
73 87 97 100 82 67 72 79 74 67 74 66 61 70 67 63 66 60 59 53 52 58 53 70 77 78 77 77 77 74 76 77 76 74 74 74 73 75 71 71 71 71 71 69 68 68 67 67 67
71 84 96 81 70 62 59 66 74 70 71 78 64 80 91 74 63 62 59 53 53 52 54 56 80 79 76 77 75 77 76 77 75 75 74 73 72 72 72 71 70 70 70 69 68 67 67 66 67
85 78 87 76 62 61 61 62 63 66 74 69 72 76 87 73 72 65 55 54 50 52 52 60 75 77 77 75 75 77 77 75 75 75 74 74 73 73 71 70 69 69 69 70 69 71 69 67 69
84 82 68 61 71 68 63 59 64 69 67 65 60 73 90 82 71 64 56 54 53 51 55 61 55 68 77 76 75 75 76 76 75 76 76 75 73 72 71 69 68 67 66 67 66 69 70 68 68
77 58 64 62 61 68 59 64 82 73 67 52 51 78 93 78 72 63 57 55 56 54 57 63 58 62 66 65 76 74 76 75 77 75 74 74 72 71 72 75 71 65 64 62 64 66 67 69 71
57 75 74 56 57 58 59 62 66 54 59 52 54 56 59 71 71 69 68 63 62 59 59 57 59 64 72 69 69 76 75 75 74 71 79 76 63 62 58 69 66 64 65 69 70 65 66 68 70
70 74 61 44 41 49 61 58 61 62 56 67 64 53 63 70 72 75 71 68 61 61 62 57 60 62 64 59 67 70 60 55 59 63 70 68 66 62 58 60 66 68 71 68 70 71 67 59 45
62 65 53 40 41 46 58 58 56 57 61 60 68 68 73 67 68 68 65 62 57 60 62 64 65 70 64 66 62 62 60 62 66 74 68 72 65 61 58 54 57 54 63 49 55 54 48 55 45
70 60 56 53 41 45 52 49 52 54 50 47 56 62 67 63 63 62 59 59 61 69 68 66 64 73 68 66 62 63 62 62 60 63 73 72 60 64 64 56 58 60 56 61 59 53 59 56 56
65 62 54 51 45 44 43 46 48 51 52 49 56 63 62 58 57 55 52 54 61 65 66 67 69 75 75 76 66 64 65 59 58 61 63 61 62 67 64 63 59 61 61 59 58 56 54 59 54
38 52 50 44 42 41 45 40 44 51 52 58 62 63 57 55 55 58 57 57 62 62 62 65 70 72 74 72 78 70 66 61 59 58 56 68 65 72 72 82 67 63 64 62 59 58 54 54 53
37 47 37 37 33 39 36 43 49 53 54 61 61 61 56 53 52 57 57 59 58 59 62 67 69 68 75 74 73 66 60 56 58 59 65 65 70 72 74 77 83 64 67 67 66 62 57 48 48
25 29 37 33 35 33 33 43 44 53 55 61 59 59 58 54 50 53 52 54 57 59 66 68 58 64 69 70 71 61 57 57 58 58 62 68 68 73 76 67 61 66 67 62 60 55 49 75 49
29 18 28 27 30 32 33 38 49 54 53 59 60 56 54 53 52 53 52 54 56 62 68 68 66 65 67 72 66 63 64 60 58 58 58 68 69 70 70 65 66 70 66 65 57 62 59 58 48
25 23 33 28 30 32 36 35 56 57 52 56 58 53 52 51 53 52 52 54 57 62 66 67 65 70 73 68 73 61 56 57 58 58 58 67 65 68 71 69 72 72 76 61 61 63 56 56 52
28 31 23 32 28 32 33 34 52 60 59 59 57 54 50 49 47 49 51 53 57 62 66 70 71 74 71 68 64 60 55 56 57 59 68 70 67 71 76 66 72 70 65 66 69 59 63 54 55
21 29 29 28 28 31 33 34 33 57 60 59 56 52 50 47 48 52 53 52 54 62 67 72 72 76 74 64 67 58 60 57 56 61 68 67 67 72 72 75 76 77 66 75 71 69 52 52 52
21 21 27 28 23 24 28 32 32 52 54 56 54 50 47 46 47 53 55 54 53 60 67 70 74 75 74 71 67 70 68 67 62 63 61 65 67 69 74 75 70 76 87 86 79 66 61 49 57
18 15 20 26 28 31 27 40 35 34 58 58 54 55 51 48 47 48 52 55 53 56 60 68 72 74 72 76 70 77 60 59 56 58 57 62 68 68 70 75 76 80 68 85 68 65 62 60 53
18 14 16 16 26 30 28 34 32 38 46 53 53 52 50 51 48 49 49 52 50 53 56 60 72 78 75 78 75 68 68 56 57 57 68 72 73 69 66 72 76 80 76 78 74 77 75 56 49
16 18 19 17 15 26 31 31 31 32 43 44 46 49 50 50 49 49 48 49 51 49 54 58 73 79 77 77 76 80 76 69 62 64 59 56 58 61 70 69 74 75 71 75 71 80 77 70 63
22 24 30 30 29 21 17 31 30 24 32 32 40 48 48 48 49 49 51 50 54 54 56 60 71 77 76 74 74 75 76 77 76 72 59 60 53 57 68 74 76 69 76 73 74 79 76 74 67
26 24 26 37 27 16 17 32 28 21 20 27 31 36 44 47 45 47 48 50 55 56 58 60 68 74 74 73 77 78 77 59 58 66 54 55 51 52 63 70 69 72 73 72 75 68 66 71 68
23 30 19 22 30 26 15 18 20 21 20 19 28 35 42 46 45 46 46 48 52 54 58 62 68 71 70 66 73 77 76 73 63 70 69 56 66 52 63 66 69 70 71 73 75 65 73 72 73
30 18 32 28 37 34 22 21 18 24 22 22 22 30 37 40 44 43 44 45 47 48 51 55 61 69 68 66 67 67 71 74 70 71 73 69 63 67 61 68 68 69 71 73 77 68 72 77 67
26 29 26 25 28 28 26 21 17 19 24 23 22 22 28 36 40 42 43 43 45 44 48 51 56 63 65 65 67 67 66 67 69 68 69 71 67 70 69 71 70 70 70 72 77 76 70 76 76
32 48 27 32 42 31 29 20 16 16 17 17 17 20 21 32 36 39 40 43 42 45 46 49 50 52 58 62 68 67 68 68 66 70 68 71 73 68 70 69 71 70 69 70 75 72 65 73 73

GFSSGP_sfc_rhum_048.txt.gz
RH
61 44 38 54 82 59 55 51 47 53 47 44 33 37 38 38 46 74 42 43 60 46 44 55 80 76 79 78 77 77 75 75 75 75 77 75 74 73 71 71 72 72 71 70 69 68 69 70 67
53 48 65 67 89 80 53 49 56 45 42 36 38 42 39 56 48 53 47 44 40 34 35 43 83 79 77 77 78 78 76 76 78 77 76 75 73 71 72 73 72 71 70 69 69 70 70 71 70
48 62 84 94 85 72 63 53 52 45 41 36 48 40 46 65 51 46 39 39 33 34 33 54 79 79 77 76 76 76 74 76 75 76 75 73 72 73 73 72 70 69 72 69 69 67 67 67 68
58 68 95 93 70 52 55 53 68 53 55 50 42 53 53 52 46 37 38 33 32 34 32 69 78 77 74 76 77 77 76 76 76 74 74 74 73 73 71 70 71 71 69 68 68 67 66 66 67
45 77 94 80 64 51 52 59 52 60 62 57 57 61 86 56 45 39 36 31 33 31 35 49 80 78 77 75 74 76 76 76 75 74 74 71 72 72 70 70 70 70 68 68 68 66 66 67 69
81 80 68 60 60 45 43 46 57 59 75 66 50 66 81 56 52 41 34 32 29 30 34 47 76 77 78 74 77 76 75 74 75 74 73 75 73 72 71 69 69 69 69 68 68 68 66 68 73
73 56 51 40 54 60 49 45 54 65 58 56 52 58 70 63 49 40 34 31 29 29 34 42 48 66 74 76 77 75 74 74 76 73 74 74 73 70 69 68 67 67 66 65 66 66 66 67 73
52 40 49 41 50 58 46 52 71 67 54 47 46 56 78 63 48 43 34 32 32 32 35 40 43 45 53 53 75 74 75 76 75 74 74 73 71 70 68 72 69 64 63 64 65 65 66 70 74
48 51 53 40 42 49 44 55 55 58 52 43 40 41 44 55 48 47 39 35 34 34 36 34 37 46 60 56 61 72 75 75 74 72 75 69 41 44 49 68 65 66 65 63 63 65 66 69 72
47 41 37 31 30 34 42 56 46 47 44 48 47 44 52 55 56 50 40 39 37 37 35 34 45 45 59 41 59 58 52 44 44 46 54 44 46 46 43 58 67 66 65 69 68 65 65 72 44
38 40 35 31 29 33 43 48 40 40 45 43 48 62 62 55 52 44 38 36 34 36 34 36 43 48 51 59 48 46 40 44 47 56 52 52 44 42 38 45 44 43 59 38 47 48 37 40 38
38 36 36 33 32 34 39 34 39 44 38 34 39 49 53 50 45 40 36 34 34 38 38 37 43 50 48 46 40 39 40 41 42 46 58 56 44 45 45 40 43 46 38 44 42 36 44 42 44
33 34 39 41 36 32 40 39 43 40 36 34 37 46 47 44 41 38 34 33 35 38 39 39 47 56 55 56 42 41 43 40 39 47 52 43 43 49 45 49 42 43 40 40 42 41 41 47 42
19 24 40 40 32 33 40 33 34 33 36 39 42 45 42 40 39 39 37 37 39 41 42 40 47 55 56 55 59 53 45 43 42 40 44 56 46 65 46 49 49 50 41 41 40 43 38 34 37
19 29 24 32 34 32 29 30 33 37 37 43 44 45 42 40 37 40 37 38 39 39 43 44 47 50 58 58 59 51 44 39 42 42 55 56 57 69 58 49 52 49 50 54 48 45 40 33 32
16 15 22 20 25 26 28 36 32 36 38 44 44 43 43 40 36 38 36 36 38 38 45 47 38 43 52 54 55 44 42 42 41 43 47 55 58 64 65 52 48 49 45 41 36 33 44 47 31
11 12 16 20 23 25 28 27 35 34 35 42 44 43 42 41 39 39 37 36 36 40 47 50 47 45 50 56 50 47 52 45 42 42 43 58 57 58 54 45 58 58 47 44 36 36 46 38 31
11 12 12 17 23 26 27 26 34 35 33 40 43 43 43 40 39 38 37 36 36 40 46 50 47 51 55 51 54 43 43 45 44 43 43 56 52 57 57 50 62 52 47 48 41 49 41 36 33
14 12 13 17 18 29 29 26 29 36 34 40 42 43 42 40 37 36 37 36 37 41 48 53 55 59 55 49 46 45 44 45 44 42 52 58 54 59 64 60 52 54 49 49 54 46 54 39 39
12 18 19 16 18 24 26 26 22 33 35 38 39 39 39 37 36 38 38 37 38 44 50 56 58 62 61 47 49 43 44 40 41 43 54 55 55 59 56 58 52 56 56 57 56 58 39 37 38
14 13 14 19 21 19 25 28 25 24 33 34 34 34 35 35 36 39 40 39 39 45 51 56 62 63 64 56 48 52 49 48 49 49 47 52 55 57 59 58 55 57 53 46 56 56 53 38 41
13 10 10 12 19 25 21 29 28 23 32 34 35 34 33 34 34 37 39 41 39 43 47 54 61 64 62 63 55 68 50 47 39 43 41 47 56 55 56 64 59 62 66 59 54 50 46 51 42
14 10 10 11 12 19 23 28 25 22 27 33 32 33 31 34 33 35 38 40 38 39 44 50 61 68 66 67 64 53 58 37 37 39 54 59 62 57 52 63 58 59 50 61 64 64 61 42 38
14 14 13 12 10 13 18 23 24 21 24 22 27 28 32 32 32 34 35 38 39 38 41 48 63 72 68 64 65 68 63 53 42 49 44 42 42 49 59 57 62 59 56 61 57 62 64 57 49
17 17 21 20 16 13 10 16 23 18 17 20 21 25 28 30 33 34 36 38 42 43 44 45 60 72 68 64 64 63 64 64 62 58 48 49 38 38 53 64 66 57 64 60 62 67 66 63 55
20 16 20 30 16 11 10 14 14 15 16 15 19 19 24 27 28 33 36 37 41 43 45 47 56 68 67 64 71 71 69 48 47 55 43 41 37 37 46 58 58 60 59 60 63 64 57 58 57
20 21 14 17 14 14 9 10 7 11 15 16 16 19 20 26 29 33 35 37 39 43 47 52 57 64 61 57 66 71 68 65 52 59 55 43 52 38 46 50 58 56 58 61 64 52 61 59 62
23 14 20 19 32 30 17 16 10 14 18 16 16 16 19 24 29 30 33 35 36 37 40 45 50 59 58 54 56 57 59 64 61 57 61 58 48 54 48 54 53 54 58 60 66 55 60 64 54
18 23 22 17 19 24 24 16 11 12 13 17 16 15 15 22 27 29 30 32 34 34 38 42 46 53 55 53 56 56 54 54 59 56 58 60 57 56 60 57 55 56 58 60 66 64 56 64 65
13 25 20 23 30 22 21 17 9 11 10 10 13 14 14 18 23 26 27 30 32 35 36 38 41 43 48 52 59 57 56 56 52 60 57 60 63 59 60 59 59 56 54 58 64 63 53 61 62

GFSSGP_sfc_rhum_051.txt.gz
RH
58 40 38 38 82 57 49 53 41 38 37 29 26 31 44 45 56 75 42 48 63 52 50 58 78 75 74 75 74 75 76 75 75 75 76 75 73 71 71 72 72 71 70 69 68 70 69 66 72
33 35 44 80 84 70 56 47 49 44 36 28 31 32 40 48 37 39 41 42 48 41 38 44 83 80 77 76 77 75 73 75 75 77 74 73 71 72 73 72 72 70 69 69 71 70 71 69 68
35 48 87 87 66 59 63 54 44 35 30 36 37 31 43 49 37 38 40 48 32 30 32 59 80 79 76 76 76 76 76 76 76 75 73 72 71 72 72 69 69 72 69 69 68 68 67 67 69
41 57 81 90 68 45 43 47 42 39 35 33 35 54 48 40 37 39 35 32 25 26 34 69 78 77 76 76 75 75 76 76 74 74 73 72 73 73 71 71 71 68 68 68 67 67 66 66 68
37 68 77 79 62 51 38 44 44 57 43 41 37 54 59 44 36 34 31 27 24 26 38 49 80 75 76 76 76 75 74 74 74 74 72 72 71 70 70 70 70 67 67 68 68 65 66 66 67
75 53 73 56 53 48 49 44 52 85 80 48 45 61 72 44 40 36 28 28 23 27 32 50 74 77 75 74 76 75 74 74 75 72 71 72 71 72 70 69 68 68 66 66 65 66 67 70 71
69 69 57 52 51 42 53 41 61 83 70 51 50 62 61 48 40 33 29 26 26 24 33 43 48 66 73 76 75 74 75 73 72 72 73 74 70 69 68 68 67 65 63 63 65 65 68 71 72
46 43 50 38 49 62 44 49 55 64 64 45 44 58 69 51 41 32 30 26 26 27 29 37 42 46 51 56 75 73 73 70 72 73 74 71 68 67 67 72 67 62 64 64 64 65 69 72 73
33 53 53 40 45 43 36 48 48 55 51 42 38 37 42 44 40 36 33 28 28 30 28 29 31 41 62 54 66 71 73 73 73 69 71 70 42 48 53 69 64 62 60 62 63 65 68 71 73
40 38 42 35 26 48 35 38 41 48 40 39 37 35 41 46 45 39 34 31 29 30 25 25 31 40 51 35 58 57 51 44 44 44 56 74 52 48 42 56 63 63 63 66 64 64 68 67 61
28 33 28 27 25 28 33 41 37 46 40 35 39 47 48 51 46 38 31 29 27 28 24 28 41 50 50 46 46 44 48 44 53 48 60 48 40 41 54 44 44 44 73 54 51 54 86 91 86
27 23 23 34 26 33 50 50 37 36 74 28 37 45 48 47 40 36 30 28 27 29 27 29 34 63 50 41 53 48 42 32 35 40 48 50 67 59 63 60 39 57 68 39 83 35 40 47 52
24 23 30 31 28 30 32 44 40 40 29 29 38 44 44 40 38 31 29 26 28 28 27 30 37 53 73 68 46 31 34 31 34 43 45 61 67 63 68 44 69 64 55 43 47 37 46 38 34
15 19 28 30 33 32 32 37 34 38 27 33 40 42 38 37 33 31 29 29 30 30 30 32 39 47 55 68 47 47 45 52 33 35 42 48 78 63 46 47 64 70 82 54 55 55 40 39 32
13 18 17 30 27 47 34 45 42 28 28 34 38 40 36 35 31 32 29 29 29 29 31 37 40 43 50 69 48 66 61 31 49 37 51 52 58 56 56 70 44 68 49 47 43 39 49 34 40
14 15 22 22 25 27 26 39 25 27 30 35 36 38 37 34 31 31 29 28 30 32 37 39 33 40 47 50 51 40 36 47 62 60 45 50 56 56 59 47 42 48 60 60 37 65 42 39 42
9 14 17 15 21 24 24 45 71 26 29 34 37 36 35 35 34 32 29 29 30 34 40 42 40 43 48 54 48 44 47 54 64 63 62 53 55 53 86 76 51 53 54 69 51 44 41 44 35
9 10 10 14 18 21 25 43 60 25 27 34 36 35 36 34 33 32 30 29 30 33 39 43 40 51 57 51 53 41 42 43 62 64 66 54 47 51 55 57 54 62 38 64 82 50 52 58 56
8 7 10 10 13 23 29 37 81 25 25 33 36 36 35 34 31 31 30 30 30 34 40 46 50 61 52 47 47 44 40 42 43 53 48 53 48 52 56 55 54 53 48 72 48 44 48 36 36
9 10 10 9 12 22 27 33 29 25 26 30 32 34 33 32 32 33 33 31 30 35 42 52 56 64 58 47 52 44 44 37 37 37 50 50 50 54 48 68 70 80 54 57 53 56 46 33 47
11 10 10 14 14 16 27 33 29 31 24 27 27 28 31 31 32 34 35 32 32 37 42 52 61 65 63 56 49 48 46 42 39 48 44 48 50 52 51 54 65 56 70 58 58 54 59 50 35
13 9 8 10 17 22 19 36 34 29 29 28 27 27 28 29 30 33 34 34 32 35 39 52 59 65 63 64 52 64 48 43 36 40 38 45 51 51 51 56 57 61 48 74 61 50 53 60 42
12 9 8 8 10 14 18 26 30 24 44 26 26 27 25 28 28 31 32 34 32 33 38 43 62 68 65 67 62 51 58 39 35 33 60 55 62 52 48 57 58 61 52 58 60 60 64 40 68
10 11 11 9 8 13 15 19 21 24 26 26 22 24 25 26 27 28 30 32 33 32 35 42 63 72 70 68 68 66 64 55 37 42 42 42 42 46 54 53 59 60 55 61 58 61 60 64 50
13 14 19 19 15 13 9 16 20 15 21 20 20 22 24 24 26 28 31 32 36 37 39 43 60 72 70 66 65 65 64 66 62 55 40 47 35 35 58 62 68 56 62 57 61 67 61 60 54
15 14 16 28 17 11 8 12 13 13 12 36 31 22 20 22 23 26 29 32 38 38 41 44 57 70 69 65 69 70 67 44 41 49 39 37 32 33 59 58 55 58 59 57 62 56 53 60 55
16 18 11 12 11 12 9 8 6 8 11 13 16 18 24 21 23 25 27 30 34 38 43 46 55 66 66 58 66 70 68 61 45 54 57 43 49 33 44 52 57 55 54 59 64 50 62 63 62
17 14 18 15 25 26 15 13 8 9 10 11 15 16 20 20 22 22 26 28 31 32 36 42 46 60 62 57 60 60 64 67 59 58 62 57 50 53 45 50 51 55 57 58 67 56 60 63 52
9 14 18 16 15 19 20 14 9 10 9 10 11 13 15 16 19 21 23 26 28 30 33 37 42 51 56 56 59 58 56 57 62 58 59 61 57 57 59 56 56 56 56 60 68 67 56 62 65
5 10 10 18 29 17 14 14 8 8 7 8 10 12 12 14 17 20 21 25 28 31 32 34 37 40 48 52 59 58 57 56 55 60 59 62 65 60 59 62 61 59 56 61 65 63 52 57 60

GFSSGP_sfc_rhum_054.txt.gz
RH
65 49 45 61 88 72 68 63 62 42 39 41 30 40 46 43 50 78 58 61 58 53 54 66 79 78 78 78 78 78 78 76 74 76 76 74 73 73 73 73 72 72 70 70 72 68 68 73 73
36 36 50 70 96 75 63 46 50 45 34 30 31 35 41 48 44 55 60 60 51 48 51 57 82 79 77 75 76 75 74 74 77 75 75 74 73 74 72 73 72 72 72 71 71 71 69 69 73
54 40 87 90 64 67 70 67 46 52 32 32 45 51 46 50 46 46 49 47 46 44 48 67 81 80 77 77 76 78 77 76 76 75 73 72 73 72 70 71 72 70 70 69 68 68 68 69 72
42 51 75 90 68 59 54 69 75 40 36 36 40 54 41 37 40 40 41 42 39 40 52 76 80 78 77 78 78 76 76 76 75 74 74 73 73 72 73 71 69 69 69 68 68 68 68 68 69
37 75 85 74 72 86 48 75 50 49 49 47 44 56 56 47 39 36 40 38 30 43 52 63 81 79 79 77 77 76 76 75 76 74 74 73 72 70 72 71 67 69 70 68 67 67 67 68 69
78 64 81 85 70 63 51 43 49 74 77 58 51 57 63 44 40 34 37 33 37 41 46 60 77 79 79 76 76 77 75 75 75 74 74 74 74 75 73 69 69 68 67 66 67 69 70 70 70
56 78 67 81 66 60 59 56 52 74 83 64 61 64 56 46 38 32 28 36 34 34 47 57 62 71 75 76 75 75 74 74 75 76 74 76 74 72 71 71 68 65 64 66 67 69 72 71 67
40 67 56 71 58 62 56 58 58 66 71 58 53 66 65 46 38 32 28 30 31 37 42 50 57 56 64 67 75 73 73 75 74 74 74 75 71 68 67 74 70 66 65 66 66 69 72 72 69
28 62 63 64 50 85 61 57 50 42 60 50 46 45 44 37 33 34 32 33 35 34 36 39 43 55 72 70 71 73 72 73 74 72 75 77 63 62 60 70 66 63 65 67 67 69 68 70 69
37 52 44 43 44 50 61 43 44 48 45 47 42 41 40 38 37 37 35 38 35 32 31 32 42 53 58 46 71 73 66 62 61 60 74 85 70 63 51 63 68 61 63 68 73 75 71 80 86
29 40 31 38 36 44 44 35 35 47 43 38 50 48 44 42 40 37 32 34 32 29 28 32 53 56 55 64 63 59 59 58 65 84 89 81 62 66 55 68 64 75 74 70 76 83 91 91 93
27 23 24 25 34 33 62 65 50 76 85 61 42 43 46 44 38 35 30 31 30 31 34 41 47 76 78 53 55 92 65 62 56 67 76 83 74 72 72 89 83 88 72 67 88 74 81 89 90
20 21 21 24 36 32 45 62 77 64 52 45 40 44 48 42 39 34 29 28 28 28 32 46 62 84 84 74 63 87 68 44 52 55 87 90 76 76 68 82 72 77 78 65 69 65 76 79 76
16 17 18 23 27 31 39 64 62 52 47 38 43 48 46 42 38 36 30 30 30 31 39 44 60 70 75 77 78 67 62 55 50 52 67 95 83 80 68 72 75 86 82 73 65 68 67 55 60
12 16 15 18 29 30 30 37 39 46 53 42 44 46 43 40 36 35 30 31 30 31 37 43 62 64 71 65 67 65 62 51 56 58 66 74 73 71 74 71 86 90 84 74 68 64 54 62 54
12 13 19 15 29 30 31 43 34 60 85 44 43 41 42 42 34 30 28 28 31 33 47 45 34 49 59 69 66 84 60 62 63 58 64 75 68 68 78 80 70 75 72 71 55 64 64 64 64
12 15 18 17 19 26 30 40 52 74 91 43 43 39 39 43 36 31 27 29 32 40 51 49 52 52 60 75 63 80 64 67 61 66 64 75 67 77 94 93 73 69 91 85 68 68 62 68 65
14 11 12 15 13 20 28 42 59 77 74 39 39 37 38 40 37 32 28 28 32 41 50 52 52 64 67 66 71 69 64 65 69 70 72 69 69 75 90 91 73 69 86 81 77 70 64 67 66
11 9 7 9 9 21 30 64 54 57 55 44 38 37 36 38 35 31 29 28 34 39 50 57 62 73 65 65 64 69 64 74 76 71 73 69 68 74 89 85 76 74 85 78 80 70 68 66 57
14 12 9 7 7 14 43 63 56 52 63 50 34 35 34 33 35 35 32 30 32 42 52 61 65 74 68 66 71 65 64 59 64 78 70 66 62 69 79 85 81 80 76 74 73 75 79 63 70
11 12 10 9 9 11 15 60 66 49 45 72 28 30 31 33 34 37 35 33 34 45 53 61 68 73 69 70 68 72 70 71 60 70 64 64 67 65 73 72 85 83 86 76 76 74 74 77 68
13 9 9 9 10 16 14 26 61 61 61 85 69 30 30 31 32 36 35 35 34 44 49 61 66 74 68 72 68 74 67 65 57 75 68 64 67 68 69 70 75 75 82 85 80 72 77 71 75
12 9 10 10 10 12 16 21 21 44 67 87 78 30 28 30 30 34 35 36 33 41 46 54 67 74 71 73 72 66 71 60 64 59 76 75 77 69 63 74 75 79 86 86 79 74 76 82 75
8 10 11 11 9 13 12 15 19 24 47 58 72 54 36 28 29 34 35 36 36 37 43 52 68 75 75 74 75 75 73 71 63 64 65 66 66 67 73 68 77 80 81 82 80 75 76 82 83
10 12 18 19 17 14 9 10 14 15 28 51 55 74 61 29 29 33 37 38 39 40 45 51 68 74 74 74 70 75 72 74 78 72 67 64 61 60 73 78 82 75 80 81 81 83 82 78 83
13 13 17 27 19 15 12 12 10 8 14 30 43 50 56 26 25 29 34 37 41 40 44 50 67 74 73 73 74 76 75 60 62 67 60 65 62 59 70 73 73 76 76 77 86 79 78 77 79
15 17 11 14 12 14 11 10 8 7 9 17 35 36 57 49 32 28 33 35 40 41 45 51 64 72 72 68 74 74 75 71 60 70 69 62 68 54 69 70 73 74 76 78 84 76 82 79 82
12 12 18 16 28 30 15 15 11 12 11 15 32 37 48 63 73 40 30 33 37 37 41 46 56 68 70 69 69 68 69 72 70 64 73 68 68 67 77 73 72 72 74 75 82 76 80 83 77
13 14 17 18 20 23 22 16 12 15 12 12 32 40 29 39 66 70 80 30 34 36 39 42 49 63 67 68 68 68 68 65 66 67 64 72 68 73 71 71 72 73 73 75 80 80 76 79 81
10 11 8 13 31 23 20 15 8 12 8 8 8 11 31 38 60 73 74 66 32 36 37 41 44 50 61 66 69 68 68 67 64 64 68 68 74 69 76 74 75 73 72 75 77 77 66 75 77

GFSSGP_sfc_rhum_057.txt.gz
RH
74 66 61 69 94 94 91 78 67 56 46 43 36 43 52 54 58 85 72 67 66 71 72 74 81 79 79 80 80 79 77 76 77 78 78 75 75 75 75 73 72 71 73 73 68 71 74 72 73
62 54 63 87 96 97 84 85 75 69 43 38 45 44 52 70 60 73 75 64 59 64 76 76 84 81 78 79 79 79 76 77 78 77 77 75 75 74 74 72 74 74 73 72 71 69 71 73 74
59 50 81 96 96 89 80 89 90 68 39 46 54 49 49 72 69 71 63 59 55 66 68 76 82 82 77 76 76 79 78 77 77 76 74 75 74 72 73 72 71 71 71 70 69 69 70 72 72
69 74 87 93 89 69 70 79 64 82 57 47 48 56 51 49 57 64 58 53 54 64 78 81 80 78 79 78 79 78 77 77 76 76 74 74 74 74 72 70 70 70 70 70 70 69 69 68 69
61 81 97 96 82 80 75 67 66 82 81 57 49 60 65 55 54 57 55 50 66 76 81 80 83 81 78 78 78 77 76 76 77 76 74 74 72 73 73 69 70 70 69 69 69 68 69 69 67
78 74 95 92 79 64 79 76 62 72 64 56 60 65 70 50 55 52 49 55 64 74 78 77 81 80 80 77 77 77 76 76 77 74 75 75 74 74 70 70 70 68 67 68 70 70 70 70 69
74 88 90 78 81 62 73 84 62 72 69 59 56 71 61 50 46 48 49 55 57 68 75 80 81 77 77 78 77 76 76 76 75 75 75 77 73 71 70 70 68 67 67 68 69 71 71 68 66
62 68 73 71 71 73 61 63 71 64 74 58 50 71 69 50 42 42 44 47 61 66 72 78 81 85 86 83 76 74 75 75 75 74 73 73 71 69 70 77 73 67 67 68 69 70 72 72 70
49 65 79 66 59 82 71 67 56 51 70 58 51 56 48 42 40 43 43 52 57 61 66 71 72 82 88 86 76 75 75 74 74 75 73 80 81 74 71 72 70 66 66 68 70 71 75 76 74
48 59 57 43 45 66 81 67 52 56 63 61 54 48 45 44 43 42 43 54 56 60 62 62 66 78 78 66 85 87 78 87 90 89 87 91 81 86 73 72 71 66 68 68 73 65 63 74 90
38 52 40 37 40 49 73 89 46 54 62 56 61 55 48 47 41 41 43 43 47 49 51 56 62 71 69 76 88 93 90 86 90 87 88 89 79 76 79 84 75 85 77 79 88 78 78 76 90
42 32 31 31 46 68 83 92 69 65 82 72 55 48 46 47 43 42 40 39 39 43 45 57 65 70 76 77 79 93 82 90 82 74 86 94 79 71 90 92 91 92 93 88 95 87 84 88 87
32 28 23 29 46 66 72 65 72 71 69 65 52 47 46 45 44 39 37 38 37 54 56 72 71 71 82 85 93 87 91 92 75 81 87 91 88 79 77 90 84 83 92 96 94 88 86 88 78
23 22 20 20 44 57 57 65 64 64 55 67 54 50 46 45 43 40 36 38 44 51 59 68 63 62 85 85 84 83 77 66 69 84 78 79 90 82 95 94 83 88 83 76 74 86 88 80 79
17 19 16 20 31 47 55 75 70 59 56 58 54 49 47 44 41 41 39 36 38 57 63 68 73 70 78 83 85 80 71 64 71 75 84 83 88 87 85 90 88 81 83 82 79 71 78 77 67
19 18 25 18 28 32 38 76 79 80 75 57 54 51 49 45 42 40 38 36 43 58 63 65 55 67 80 75 81 85 73 69 73 70 85 82 75 88 93 92 88 85 79 75 58 68 63 66 67
29 27 21 18 16 34 42 80 83 81 73 59 56 54 50 49 43 40 34 36 43 49 60 59 61 66 72 81 74 74 69 72 75 76 86 77 79 82 93 93 92 87 88 84 74 75 67 67 65
36 24 18 16 16 34 45 84 79 75 71 64 53 51 50 49 44 39 32 36 50 49 50 62 59 70 72 81 81 80 82 73 76 82 80 78 88 79 85 91 90 90 83 84 83 80 63 67 59
20 21 18 12 11 29 46 78 85 78 71 80 82 58 50 48 41 34 31 37 50 50 52 66 64 70 79 86 85 86 80 81 79 80 71 78 85 82 91 92 89 82 83 75 75 72 67 69 63
19 20 20 16 10 16 48 63 66 74 70 79 90 56 49 44 43 37 34 40 49 53 54 73 71 70 76 79 82 79 79 74 75 86 85 76 77 83 85 91 93 87 85 86 82 83 82 69 71
18 22 20 18 12 24 56 70 68 58 57 72 83 71 52 42 42 39 37 40 48 57 61 71 74 71 73 72 81 85 78 83 79 85 88 84 78 80 82 86 86 87 88 82 81 78 78 79 73
23 15 13 12 16 24 49 82 73 66 72 77 78 81 68 46 39 41 39 41 44 54 58 70 74 73 76 69 76 82 76 76 75 75 79 83 75 76 78 79 82 87 83 88 86 80 82 78 80
16 14 14 14 17 19 15 24 68 60 87 77 82 71 59 63 39 39 38 37 44 51 54 67 75 72 65 77 68 79 79 72 75 69 72 82 87 79 75 81 86 86 90 87 84 83 82 88 84
11 13 15 18 22 26 17 20 30 70 73 76 64 62 56 58 39 38 36 37 45 50 53 63 79 73 70 74 86 77 77 78 67 82 76 71 84 84 86 78 85 88 90 90 86 83 81 84 87
14 32 33 37 30 29 19 18 16 54 53 64 62 61 56 54 40 40 40 39 42 52 55 61 71 80 69 74 77 90 77 78 77 84 69 68 83 86 89 83 90 89 87 88 88 88 89 86 88
19 19 34 38 36 27 20 25 19 10 45 49 46 55 62 57 64 39 40 38 41 49 54 60 66 71 74 69 71 84 86 68 82 82 78 65 67 68 84 81 85 83 85 86 90 86 89 90 86
25 30 17 25 20 30 22 19 14 12 30 47 47 49 59 61 73 70 43 38 40 47 52 58 66 66 74 73 66 73 91 68 79 76 77 70 72 67 80 79 79 85 86 88 92 88 91 90 91
21 21 30 27 39 42 29 26 27 19 12 42 48 51 64 68 75 77 79 57 47 40 47 52 64 67 70 70 70 65 71 83 77 75 78 73 66 70 81 82 77 85 86 83 94 86 88 88 87
22 29 33 29 39 43 36 27 19 22 25 41 46 46 56 58 73 88 77 85 67 42 41 50 64 68 68 67 71 66 64 76 84 74 70 80 71 86 80 75 85 86 86 88 89 86 89 89 90
14 22 24 32 34 40 46 35 18 22 30 30 38 37 55 63 72 75 71 78 74 52 39 44 54 66 68 69 66 71 67 68 70 82 75 66 80 80 86 78 77 81 84 86 87 88 78 84 90

GFSSGP_sfc_rhum_060.txt.gz
RH
76 70 71 78 95 94 94 81 80 76 56 44 38 45 59 68 68 87 79 76 78 78 80 79 82 79 78 80 80 78 76 78 78 76 76 77 76 76 74 73 72 75 69 71 74 72 72 73 75
74 66 74 90 96 96 89 85 94 69 49 45 46 50 62 78 69 84 87 73 71 76 84 80 85 82 80 79 79 77 76 79 78 76 76 76 75 74 73 74 74 74 73 70 69 72 71 72 74
64 56 88 95 96 96 89 84 87 68 53 51 55 49 60 87 74 76 72 69 68 81 83 79 82 82 79 79 78 77 77 77 77 76 76 75 74 74 72 72 71 71 71 70 69 71 71 72 71
70 86 88 89 90 74 75 72 74 78 70 57 52 64 58 63 69 69 64 65 75 78 81 80 79 76 75 76 77 78 77 77 76 75 77 74 73 73 70 71 70 70 70 70 70 69 70 71 72
75 85 95 95 87 72 78 79 71 85 85 78 56 68 80 68 64 63 61 64 79 84 83 79 83 81 79 80 78 77 77 77 77 75 74 75 73 72 70 70 70 70 70 70 70 69 69 70 73
86 77 97 94 85 76 86 82 66 72 78 63 63 67 78 66 68 62 60 73 78 86 85 81 81 80 80 78 77 77 77 77 76 75 75 74 74 70 71 70 69 69 69 70 69 68 70 75 69
78 90 94 78 74 80 84 74 71 80 67 60 59 70 76 72 64 58 70 75 78 82 87 86 81 78 77 78 77 77 77 76 76 75 75 75 72 72 71 70 68 68 68 69 70 70 70 68 69
70 82 78 73 75 89 85 74 72 70 70 52 51 68 78 66 57 64 70 74 82 85 85 94 93 90 90 86 76 76 76 76 75 74 73 72 70 69 69 75 72 67 67 68 70 73 78 71 72
52 89 83 63 58 78 80 79 70 60 66 54 52 55 51 54 55 67 72 79 84 81 90 90 92 96 94 89 79 77 75 75 74 73 72 80 84 79 76 73 69 67 67 69 70 76 79 78 73
76 90 73 51 58 69 74 77 56 63 72 61 63 48 45 51 56 66 77 84 82 85 87 86 91 94 92 72 89 91 82 92 93 91 89 93 88 90 77 72 69 67 68 70 71 65 71 79 87
55 71 52 44 55 60 64 67 66 59 74 62 65 54 50 51 56 63 69 72 73 78 77 80 84 88 88 87 97 98 96 94 95 90 92 92 90 87 87 87 85 89 77 88 82 76 83 84 92
60 43 38 38 59 68 79 75 72 65 70 59 57 49 49 52 53 58 63 65 69 72 71 73 80 84 87 89 94 98 90 96 91 90 90 93 88 86 92 95 90 92 92 84 95 87 82 90 89
44 39 37 32 64 62 60 75 68 66 69 62 60 49 50 50 47 50 51 54 60 65 65 69 76 84 90 95 97 97 95 96 84 85 91 94 85 86 86 92 92 86 95 93 94 85 82 85 82
33 30 27 59 68 72 78 70 69 60 65 68 63 52 50 51 47 46 46 47 53 56 62 72 74 82 90 90 94 92 91 88 84 86 87 87 93 92 94 94 90 93 93 95 90 85 86 86 77
30 30 20 38 67 72 61 79 72 62 64 74 67 49 49 51 46 44 43 51 47 60 63 71 73 80 84 89 91 81 77 73 83 82 71 83 90 90 91 94 94 92 90 87 82 88 88 86 77
29 28 27 27 63 60 53 78 74 69 72 70 56 50 49 52 49 44 40 55 54 60 68 66 55 68 84 82 86 88 79 79 80 85 86 84 87 91 95 94 93 85 88 78 78 88 88 85 68
37 42 31 20 28 66 67 94 74 67 69 68 58 52 50 53 51 47 40 51 59 63 65 63 59 76 80 80 83 81 79 78 75 85 90 89 84 86 93 94 92 88 90 89 75 79 74 78 76
44 42 28 23 15 50 70 87 84 76 71 66 60 55 52 52 50 45 44 52 59 60 63 65 65 77 79 84 79 82 82 81 86 87 88 83 87 85 91 94 89 91 85 84 83 78 69 70 70
30 30 28 22 17 23 69 86 88 82 74 71 70 65 54 54 49 43 41 51 57 61 64 67 69 78 77 89 89 92 84 86 85 94 83 86 88 84 88 93 92 86 81 75 79 69 69 70 68
30 31 28 21 18 24 85 93 86 81 73 68 68 65 57 52 50 46 42 50 54 58 64 68 68 77 76 80 86 84 82 82 80 89 91 85 84 89 88 91 93 89 87 80 85 82 78 78 78
32 34 28 24 20 59 73 90 92 83 73 70 70 65 72 52 49 47 45 50 49 55 69 68 71 74 77 79 86 90 85 85 86 93 91 88 83 84 85 88 91 88 93 88 86 85 78 71 75
42 22 18 19 23 35 58 90 86 87 86 87 74 69 73 63 46 47 46 52 50 52 65 69 70 75 74 78 84 87 86 88 81 85 84 89 84 85 82 87 90 89 90 91 85 77 85 82 74
26 19 19 21 25 26 26 25 71 76 83 92 74 64 64 57 47 45 44 51 50 50 59 72 73 75 72 69 68 78 85 81 82 80 83 88 90 84 81 81 88 91 92 90 86 87 90 90 86
16 18 20 25 27 33 26 22 77 80 83 83 79 76 68 54 50 43 41 47 53 53 56 74 75 75 77 72 81 78 82 81 87 81 84 89 94 89 87 81 90 90 92 91 89 88 82 90 91
18 26 35 36 32 33 30 24 21 60 50 70 74 69 58 50 49 51 43 45 53 57 60 73 75 74 74 79 85 81 78 80 81 86 74 75 86 96 91 89 92 92 89 92 91 92 91 88 90
26 24 34 37 40 35 26 28 19 34 45 51 56 52 54 52 61 54 42 45 48 54 58 69 75 74 71 72 78 89 78 75 86 86 73 70 71 75 86 82 89 91 88 88 92 93 91 92 88
28 32 23 30 54 34 31 25 21 25 27 58 54 56 61 58 63 59 40 40 52 53 57 63 74 71 69 69 68 78 90 80 82 85 87 81 72 75 86 80 86 87 91 90 92 91 92 92 93
36 23 30 38 42 46 36 33 31 38 46 51 59 58 51 65 66 64 47 40 52 52 53 57 64 69 71 67 65 64 74 88 78 81 81 83 80 78 87 84 82 88 90 92 94 90 92 94 92
21 26 30 33 44 47 44 34 36 42 40 43 55 52 51 63 71 76 60 57 60 63 54 57 60 63 73 72 67 64 64 76 92 78 76 79 79 79 80 82 80 83 90 90 96 93 89 93 91
19 30 30 37 35 45 50 40 30 31 32 28 35 51 64 67 70 68 67 73 59 59 53 56 58 62 62 70 70 69 65 68 79 87 71 74 81 89 88 86 80 80 85 88 92 94 86 94 92

GFSSGP_sfc_rhum_063.txt.gz
RH
79 74 76 82 94 92 94 83 78 75 64 48 43 46 58 63 70 90 82 78 79 83 85 80 82 78 80 80 78 75 78 78 77 77 77 77 76 76 72 74 73 70 75 71 70 72 73 74 75
78 71 80 93 95 90 91 83 85 84 65 56 51 55 66 85 78 88 91 78 74 83 92 85 84 82 80 80 77 76 77 77 76 77 76 76 75 73 75 73 74 71 69 72 70 70 72 74 74
73 61 91 97 93 96 89 87 88 81 62 54 58 67 72 90 83 76 79 72 76 88 90 85 82 81 79 79 77 76 78 77 76 77 76 74 74 73 74 73 71 71 69 69 71 69 72 71 71
69 89 92 93 89 78 87 76 71 83 76 68 64 75 77 77 68 78 71 69 87 89 88 80 79 78 79 79 77 76 77 76 77 75 74 74 73 71 71 70 70 70 69 68 69 70 72 71 70
79 90 97 94 87 76 80 81 83 92 92 88 61 81 90 78 71 71 71 74 88 91 87 79 81 76 76 75 79 76 77 76 76 75 74 73 72 70 71 71 70 70 70 68 69 69 74 73 72
88 83 97 92 88 82 85 82 73 76 83 71 69 76 92 74 74 72 70 81 80 89 86 83 80 77 78 78 76 77 77 78 75 74 75 73 72 71 71 70 70 69 68 68 68 73 73 71 71
84 93 92 81 80 80 88 82 83 80 73 62 62 87 88 80 70 67 76 82 84 86 92 93 88 80 77 77 77 76 76 75 76 76 74 72 70 71 70 70 69 69 68 68 70 70 68 69 71
76 81 81 74 77 82 80 74 75 71 67 50 53 89 92 79 66 78 82 87 90 92 95 96 94 92 91 88 76 76 76 76 75 74 74 71 70 69 68 74 72 68 68 69 70 68 69 72 75
59 87 90 72 68 82 71 83 77 68 62 46 57 58 68 67 76 85 89 93 92 92 98 97 97 96 96 91 81 77 75 74 73 73 72 80 87 83 77 73 69 69 69 69 67 68 72 71 72
82 95 86 60 63 73 78 74 76 66 64 58 54 60 64 74 81 89 90 89 93 98 99 98 97 97 95 76 90 93 85 92 93 92 92 94 90 90 79 73 67 68 70 72 69 69 69 78 88
71 78 61 51 58 62 73 70 59 64 71 64 62 69 68 77 79 87 87 88 91 93 91 98 98 97 95 92 98 99 98 97 97 93 95 93 92 94 91 91 88 93 85 94 81 79 86 89 93
69 51 49 46 56 59 69 69 69 67 67 57 52 60 65 72 77 81 82 81 85 91 88 92 96 96 95 97 98 98 98 98 95 93 92 96 94 93 94 95 93 94 92 87 92 87 89 91 87
57 50 41 38 54 58 55 66 69 71 68 62 50 56 63 64 70 71 72 72 79 86 83 87 93 96 96 97 98 98 97 98 92 91 92 96 92 88 91 92 92 93 95 93 93 84 84 85 83
38 39 39 46 68 58 61 71 65 69 72 69 54 56 56 61 63 66 67 72 77 75 80 81 90 93 96 97 96 98 96 95 88 87 92 92 95 93 95 96 94 95 95 93 90 89 87 86 83
38 44 34 73 70 73 67 77 73 75 70 76 61 53 53 53 53 61 59 66 70 69 72 81 86 92 95 95 96 94 90 93 88 85 84 88 92 93 93 95 96 94 91 89 90 90 90 86 79
32 32 33 69 74 66 73 74 80 77 78 81 69 54 52 52 49 53 49 57 62 65 74 78 68 84 92 91 92 86 83 86 86 86 84 90 89 90 93 94 93 90 94 92 84 91 93 86 80
40 48 40 47 73 71 80 84 76 73 76 78 70 58 53 54 49 48 50 51 56 64 74 76 75 80 88 87 90 89 82 86 85 86 94 93 86 88 94 95 95 89 91 84 78 85 86 84 80
48 45 40 30 69 75 83 87 79 72 72 73 67 60 54 54 53 47 53 49 56 66 71 68 70 74 85 88 93 88 89 93 88 86 95 93 93 92 94 96 93 93 87 90 86 82 78 81 78
36 37 35 30 22 23 80 80 86 77 77 73 72 67 56 53 50 50 53 55 58 63 68 66 69 84 89 89 88 93 90 92 92 94 90 92 90 85 91 95 93 90 85 81 82 76 72 80 75
33 37 38 28 22 27 43 84 88 86 77 73 72 68 60 54 51 51 51 58 63 64 67 70 67 82 84 84 89 86 86 90 91 93 94 88 91 87 87 91 92 88 81 82 87 82 85 81 80
42 42 39 32 25 76 88 87 95 89 79 75 73 66 65 54 52 53 58 62 61 65 69 71 68 79 82 83 88 93 88 87 89 95 94 90 89 87 86 89 92 92 92 92 89 83 77 69 79
53 33 29 26 28 28 72 86 88 92 91 82 79 75 68 54 50 55 53 61 61 62 64 68 69 75 78 83 86 88 86 88 85 89 90 91 89 86 88 86 91 90 95 91 88 85 81 79 75
35 27 26 26 25 31 32 43 64 96 93 85 85 77 69 59 51 52 51 54 57 57 63 66 73 74 73 78 74 87 89 84 83 85 89 93 93 87 86 91 90 91 95 93 90 91 90 88 87
24 29 25 30 30 33 26 27 61 90 82 76 77 75 67 60 56 54 52 52 53 53 61 68 76 77 77 76 82 85 86 87 88 88 89 94 97 94 90 87 91 92 93 94 91 91 88 92 92
24 29 38 38 36 34 33 27 23 62 70 62 69 72 58 62 57 54 52 55 54 56 64 71 75 77 80 76 80 81 83 83 86 87 85 92 97 96 92 91 94 94 92 91 92 94 90 90 92
25 27 36 40 41 34 34 28 25 35 42 57 55 58 58 62 66 54 50 54 54 54 61 72 75 73 76 76 81 83 80 77 82 88 86 84 80 85 86 92 92 91 90 92 93 96 95 93 90
28 31 26 38 57 34 34 28 27 40 43 45 62 67 68 64 64 57 48 51 55 55 58 68 73 70 74 74 75 87 81 80 80 85 90 86 84 78 91 90 91 91 92 91 93 96 94 94 94
26 27 38 38 41 41 38 38 53 48 41 42 67 66 66 65 62 59 50 47 52 53 54 61 67 68 70 70 68 75 84 84 84 83 90 92 86 83 90 91 92 92 92 93 94 95 93 94 96
30 35 38 41 42 45 45 52 40 49 39 39 52 60 59 57 64 66 56 50 50 54 55 59 66 66 68 68 67 66 74 92 92 85 81 85 90 86 86 92 91 92 92 94 96 95 92 95 94
27 39 41 44 44 46 50 51 26 37 32 28 70 68 59 68 67 79 83 87 81 79 76 70 64 65 66 66 66 66 66 74 89 90 84 81 81 84 92 87 92 89 90 94 95 95 90 93 94

GFSSGP_sfc_rhum_066.txt.gz
RH
80 78 78 83 91 93 94 86 82 77 67 58 47 52 59 64 71 90 88 80 80 85 87 80 82 79 76 76 74 76 75 75 77 76 76 76 75 73 74 71 71 75 71 70 72 72 75 75 74
81 74 83 95 93 94 90 82 84 84 69 56 55 60 73 86 82 93 94 78 77 86 93 86 84 81 79 76 75 77 75 75 78 77 76 75 74 75 73 74 70 71 71 70 71 72 74 73 74
77 67 93 96 91 94 93 87 90 82 76 64 68 74 78 90 81 81 81 75 81 94 94 87 81 80 79 77 76 77 76 75 77 75 74 74 75 74 75 73 72 70 71 71 69 71 72 71 71
76 89 96 94 88 76 88 84 84 83 77 77 69 85 80 79 69 82 74 77 92 95 93 81 79 78 78 77 76 77 76 77 76 75 75 73 72 70 70 72 70 70 69 71 72 72 71 71 72
78 90 96 95 93 81 86 78 89 92 91 87 66 87 90 82 78 74 76 83 94 96 90 82 81 78 79 77 76 76 75 76 76 74 74 73 69 72 70 70 71 71 69 70 71 71 70 68 70
90 86 97 93 85 84 89 77 88 88 83 81 82 78 92 83 79 75 79 88 86 92 89 85 79 76 75 76 76 76 75 76 75 76 72 73 71 73 73 73 70 68 68 70 71 70 72 72 72
84 94 91 87 82 82 84 91 82 82 82 67 67 84 95 86 77 76 85 86 89 90 94 93 86 81 78 76 78 76 77 75 75 74 75 71 72 72 71 70 69 66 66 70 70 69 71 73 73
79 88 83 82 80 85 79 77 89 71 75 56 63 91 97 85 76 83 87 94 97 97 96 97 94 90 90 87 78 76 75 76 76 74 71 71 71 70 70 75 72 66 68 70 69 68 71 75 73
65 89 94 78 70 83 74 80 78 73 64 48 54 69 72 75 81 91 96 98 90 94 98 97 96 95 94 90 82 77 74 72 72 73 71 87 85 83 78 71 71 68 66 65 66 69 73 72 73
88 95 83 67 67 77 75 73 79 69 62 69 79 76 73 86 88 89 85 82 77 82 97 98 97 96 95 80 92 91 84 91 92 92 92 95 89 87 78 72 69 69 67 65 67 68 73 80 81
81 91 67 58 67 67 73 72 69 70 74 67 88 84 87 88 86 79 78 79 78 80 87 99 98 97 94 94 96 98 96 94 94 92 93 92 91 90 93 96 87 93 84 87 77 76 84 82 87
81 57 58 56 59 64 76 68 70 70 71 65 72 75 86 88 86 78 84 88 96 86 86 98 97 98 96 96 97 98 96 96 92 92 92 94 91 88 93 94 92 93 88 87 84 82 84 87 83
65 55 48 47 52 64 65 74 75 70 65 60 68 74 84 85 86 84 83 83 91 95 96 98 97 98 97 98 99 98 97 96 88 89 89 93 91 89 88 91 91 91 92 92 84 83 81 81 78
46 48 46 41 51 60 66 71 66 71 65 67 76 76 78 78 82 80 80 82 87 90 93 95 97 96 97 98 97 98 95 92 89 87 90 90 94 94 93 93 91 91 90 86 84 84 88 81 77
42 51 39 41 78 72 70 85 76 75 69 76 75 73 72 69 72 78 75 79 81 84 87 92 96 95 96 96 96 95 92 92 89 90 90 86 92 95 95 92 94 92 88 86 87 84 83 78 73
36 36 38 65 76 72 65 77 80 79 82 76 72 66 68 67 66 68 69 73 76 79 87 88 77 91 95 96 94 91 89 89 90 87 87 85 90 94 94 94 90 87 91 86 82 84 83 80 75
43 51 44 33 74 79 76 79 79 77 80 71 66 62 64 66 61 64 62 68 71 75 82 85 86 91 93 93 93 91 87 88 87 87 93 86 89 90 95 94 92 86 89 84 77 82 82 79 75
53 48 43 38 83 82 89 89 81 79 79 78 70 61 62 62 60 60 56 61 66 72 80 81 82 90 92 92 94 91 88 89 88 87 92 89 93 91 95 94 90 90 84 86 82 81 79 78 75
42 40 40 33 33 42 43 76 88 80 80 80 77 67 61 59 53 54 54 56 62 72 82 83 86 90 90 92 92 93 90 92 91 94 88 91 91 91 93 95 90 92 82 82 80 76 77 78 75
38 43 43 31 28 29 51 72 90 82 81 76 78 67 62 60 57 55 57 53 62 74 78 82 82 89 88 87 90 89 89 92 92 91 91 89 88 87 88 93 93 89 82 86 85 81 83 79 77
50 52 43 37 29 58 88 90 90 86 84 80 76 69 65 58 61 55 61 60 62 71 76 78 79 86 87 88 91 93 89 88 89 93 93 90 88 86 87 90 91 90 88 86 86 82 78 75 80
70 36 32 36 33 33 72 77 94 92 94 86 82 79 71 60 56 56 56 66 67 70 72 74 76 83 85 89 89 89 88 88 86 88 89 90 90 88 85 87 89 90 89 90 85 82 82 80 78
43 30 32 30 34 33 36 72 55 96 97 90 85 78 69 63 54 58 57 67 67 67 69 72 77 82 85 86 85 85 89 85 86 92 89 92 92 89 85 88 90 91 92 91 86 86 87 84 82
26 28 28 32 33 36 28 56 30 96 89 79 76 77 71 64 56 55 55 63 66 65 67 72 81 83 85 86 87 88 87 88 87 88 88 89 92 94 88 87 93 93 92 91 88 87 86 90 89
29 34 46 42 40 36 37 29 31 43 42 53 74 75 73 66 60 57 57 62 67 69 69 71 80 82 83 84 86 86 86 87 87 87 86 90 91 92 91 90 93 94 90 91 90 92 89 86 87
32 31 42 41 45 35 40 32 32 43 42 40 63 68 69 69 62 57 58 57 63 66 68 70 78 79 82 83 85 87 88 83 85 86 86 86 87 86 89 91 89 90 88 88 92 90 94 87 83
29 34 36 39 54 37 37 38 35 35 31 32 40 69 72 68 64 63 57 57 60 62 67 71 76 76 80 78 81 86 86 87 84 88 87 86 87 80 86 90 91 90 89 90 93 88 91 92 89
30 32 38 40 42 43 40 60 61 46 39 35 46 64 74 68 63 64 59 55 58 56 60 67 70 72 75 76 77 77 80 83 83 86 89 89 87 86 88 89 90 91 91 91 92 90 88 90 86
36 41 40 43 44 42 56 63 36 44 42 35 78 89 71 71 75 73 78 59 62 56 58 64 69 71 72 74 76 78 82 83 84 80 84 87 90 89 88 91 91 91 92 91 92 91 89 90 90
34 45 45 45 44 44 57 52 26 28 28 37 69 92 92 88 91 86 84 87 76 77 74 66 64 68 68 72 76 76 80 84 83 82 83 85 86 89 91 90 91 90 90 92 90 90 86 88 88

GFSSGP_sfc_rhum_069.txt.gz
RH
65 59 59 66 77 68 77 78 66 73 57 47 40 44 47 47 56 71 57 53 54 56 60 64 82 76 76 75 77 75 75 77 77 77 78 74 73 73 70 71 73 70 71 73 71 74 74 73 76
58 64 66 76 74 69 77 82 93 85 65 45 50 46 54 62 68 70 60 53 50 51 54 55 85 79 76 75 76 75 74 78 78 77 77 74 74 74 73 71 72 72 70 72 72 72 72 74 74
59 64 73 80 70 74 84 90 92 83 56 67 67 61 70 80 71 56 53 51 50 56 56 60 81 81 76 75 77 76 75 76 76 75 75 76 75 74 74 72 69 72 71 72 72 72 72 72 72
64 76 84 79 73 69 85 91 89 90 80 69 61 73 70 64 57 58 52 50 50 55 52 70 79 78 77 76 78 76 76 77 76 76 73 72 72 71 72 70 69 70 72 72 72 71 72 72 70
64 73 83 80 78 77 82 86 87 87 88 76 61 79 85 62 61 55 53 50 51 53 54 55 81 78 77 76 76 76 77 76 75 75 73 71 73 72 70 70 72 68 71 73 71 69 68 69 73
86 85 84 75 69 76 81 83 88 87 82 76 70 68 80 65 60 55 52 52 49 53 53 58 77 78 77 75 76 75 75 75 76 74 74 73 71 70 68 68 68 68 71 70 71 72 72 73 76
76 75 73 68 65 72 81 77 78 77 69 70 63 77 89 69 56 56 54 54 52 53 56 61 58 67 74 76 76 75 76 74 74 75 73 73 71 72 73 69 67 67 70 70 70 74 74 75 77
75 61 74 61 58 85 78 86 82 61 66 52 51 71 84 71 56 58 56 56 58 57 58 60 58 64 65 67 75 75 74 76 74 71 72 72 71 71 72 73 70 69 69 69 69 71 72 76 76
61 66 67 58 56 77 71 81 82 63 61 52 51 59 52 58 57 59 61 65 62 62 60 58 61 65 74 71 71 72 74 72 73 69 80 70 57 58 56 70 69 67 66 66 69 69 73 74 77
71 75 60 50 51 61 70 84 81 65 59 72 68 60 60 59 60 61 66 65 62 64 64 59 65 64 65 60 72 67 61 60 63 66 71 65 65 64 61 64 69 66 65 67 68 76 73 62 57
62 63 53 46 47 53 59 66 68 59 66 70 75 72 63 59 58 58 58 58 56 59 65 64 69 72 64 71 62 61 60 61 65 72 71 71 64 63 61 63 58 62 64 50 56 53 52 61 56
69 52 50 45 48 52 58 59 61 56 66 67 60 58 59 59 56 55 57 58 64 71 74 66 66 75 70 66 61 65 60 63 58 64 74 71 56 61 65 59 64 64 54 57 55 52 62 64 63
58 50 42 38 39 43 53 57 57 59 58 56 59 60 58 58 55 54 55 57 65 73 72 69 70 79 77 78 73 66 64 59 60 62 68 64 60 65 62 65 59 62 58 56 57 60 59 61 57
41 39 34 30 32 38 49 57 57 60 59 65 64 61 56 61 54 61 62 63 64 66 64 66 71 75 76 75 80 72 65 62 60 58 62 71 66 71 63 64 62 60 58 56 57 59 60 56 52
36 36 24 45 46 54 51 65 62 67 67 74 70 60 58 62 58 66 59 60 60 60 64 69 69 71 76 78 75 66 60 56 57 61 70 67 70 74 84 70 64 61 64 68 65 62 59 51 48
30 24 29 50 52 57 53 61 60 66 76 83 81 61 61 61 62 60 59 58 58 58 68 70 58 66 71 72 72 61 60 60 59 60 60 69 70 75 76 69 80 62 63 58 57 55 53 52 50
27 34 28 27 56 58 55 55 71 70 72 77 76 59 59 60 64 64 64 58 57 60 66 71 66 67 70 75 68 66 67 63 61 60 61 70 67 73 73 66 62 67 60 55 52 56 55 52 49
38 30 24 31 50 58 54 53 70 68 73 67 77 61 58 56 59 58 61 55 55 57 62 65 64 71 74 70 73 63 63 63 60 60 61 69 67 74 73 65 67 63 56 55 53 64 57 53 50
30 28 27 24 31 32 22 25 48 66 68 68 67 62 55 53 52 52 60 52 54 56 63 67 71 77 72 68 65 65 63 62 62 61 68 70 71 76 77 79 66 64 57 60 63 57 62 52 55
33 31 30 24 22 24 24 28 64 58 64 68 61 55 52 50 50 52 53 50 52 57 63 69 72 78 75 65 68 64 65 61 61 64 70 67 71 77 72 74 67 69 56 68 67 64 54 54 54
32 32 30 26 23 36 53 54 65 69 66 66 65 54 50 49 48 49 51 50 50 56 63 68 74 76 76 72 70 72 69 69 66 67 63 64 70 69 71 73 67 70 62 57 67 63 65 50 57
37 27 26 26 25 21 36 27 56 65 71 73 65 61 51 49 46 46 47 49 50 53 57 65 70 75 74 78 71 76 62 60 55 60 58 63 70 70 68 71 72 72 59 69 66 62 61 59 52
35 26 26 25 25 22 26 28 39 61 68 74 69 61 50 48 46 45 45 47 46 50 54 60 70 75 74 79 75 68 69 56 58 60 73 72 76 74 67 71 73 73 64 71 71 71 77 56 51
24 21 21 21 20 24 19 25 27 37 43 37 53 59 55 48 45 46 43 45 49 48 53 58 71 78 75 77 76 78 74 69 61 64 63 61 62 88 73 68 75 76 70 73 68 72 72 69 64
23 23 28 29 27 24 21 21 37 31 30 33 40 43 55 51 48 46 47 46 51 52 56 58 70 75 74 74 74 74 73 74 73 70 60 65 60 63 74 74 77 74 74 77 72 74 73 70 62
24 22 24 34 28 22 23 21 33 22 27 39 51 45 46 53 47 45 47 48 52 54 58 60 67 72 71 72 76 77 75 61 58 65 56 56 55 56 69 70 75 73 71 70 75 65 61 67 62
21 23 17 21 24 20 19 25 24 20 33 47 62 56 52 52 51 49 47 47 51 54 58 61 66 70 68 65 72 76 74 73 64 68 67 56 64 54 65 68 71 72 72 72 75 60 70 72 70
20 20 20 22 32 28 32 40 31 32 46 60 77 71 52 52 56 51 47 46 48 48 52 56 60 66 66 63 64 64 68 72 69 69 72 67 63 67 65 68 68 71 72 74 76 70 70 74 63
20 22 25 21 24 24 30 36 22 38 61 73 65 76 74 61 56 55 52 50 50 46 48 51 55 61 62 62 65 64 63 64 67 66 68 70 67 70 71 71 69 70 72 74 78 74 69 72 71
23 28 26 23 36 30 26 30 24 43 52 54 65 62 64 72 75 74 62 58 55 57 48 48 50 54 61 62 69 65 65 65 63 67 65 68 71 68 71 72 72 71 70 72 75 75 65 71 71

GFSSGP_sfc_rhum_072.txt.gz
RH
59 41 39 48 62 44 60 77 65 52 44 39 31 34 36 35 43 60 33 32 39 40 44 56 80 75 74 79 76 76 77 76 78 78 73 74 72 70 72 72 69 72 73 72 73 73 74 75 73
34 46 52 50 56 52 80 84 84 84 43 34 34 33 39 53 46 43 40 37 37 34 36 43 83 78 74 77 74 75 77 76 76 75 74 73 74 72 72 73 71 71 72 72 72 73 73 73 74
42 51 53 64 43 52 80 90 89 67 43 39 48 37 49 59 47 38 34 36 33 35 35 55 81 78 74 78 74 75 77 76 74 75 74 75 73 72 70 70 72 69 71 72 72 72 72 74 73
44 55 56 73 63 72 70 89 74 76 67 50 44 54 53 50 38 35 33 32 32 35 34 70 79 76 75 75 76 74 76 75 76 73 72 72 72 71 69 70 71 71 70 71 73 73 70 70 73
44 55 73 65 64 70 68 78 78 77 71 58 46 57 66 44 41 34 34 31 32 32 37 48 80 78 75 77 76 77 76 74 74 73 73 72 71 70 70 70 69 71 72 71 70 70 72 70 73
65 45 67 64 60 64 73 76 82 76 66 54 52 67 66 44 40 36 33 32 30 32 34 49 76 77 76 74 75 75 75 76 74 73 73 70 70 69 70 69 68 70 70 71 71 71 72 75 75
61 66 57 49 60 61 77 66 71 66 57 57 48 56 58 43 38 35 34 32 32 31 35 45 47 65 74 75 75 75 74 74 73 73 72 71 70 70 68 67 69 69 70 71 70 70 75 76 76
60 42 48 44 57 70 68 64 50 54 57 42 39 54 58 43 39 36 35 33 34 34 38 40 40 40 48 53 74 74 73 73 72 72 70 74 70 69 67 74 72 69 70 71 70 70 74 76 75
47 60 47 43 51 66 61 66 60 47 45 41 40 41 36 39 38 38 39 37 38 38 38 34 37 48 64 62 67 71 73 73 71 72 71 65 39 42 47 69 69 68 68 69 70 70 74 76 75
51 59 41 35 35 54 76 74 59 58 53 48 48 37 38 40 42 41 41 40 40 41 36 33 41 43 48 47 58 49 46 39 42 46 52 44 46 53 45 60 67 66 68 69 73 68 65 60 42
42 48 36 33 33 38 55 70 72 57 59 46 48 45 41 42 41 39 38 37 36 40 35 38 44 49 46 57 40 39 39 43 49 55 50 51 44 42 38 45 44 46 56 40 46 46 40 46 38
52 40 38 32 31 36 43 44 51 62 59 56 44 41 40 41 39 38 37 37 37 43 40 38 45 51 52 43 37 40 41 41 41 49 55 53 42 44 44 42 46 45 38 44 42 42 50 51 48
50 38 34 29 26 28 35 46 48 52 52 46 42 40 39 38 38 37 34 36 40 42 44 41 48 59 63 52 42 41 44 38 42 44 51 44 43 51 46 50 42 43 40 42 45 46 46 48 44
30 32 29 23 21 25 38 40 41 46 42 46 44 40 37 38 36 38 38 40 45 44 48 43 48 58 58 52 58 51 43 44 40 41 49 57 45 54 48 49 45 43 40 41 43 48 43 39 39
28 30 25 26 25 32 37 52 52 47 49 50 43 39 38 37 35 40 40 40 39 41 44 46 49 51 57 57 57 47 43 38 41 42 55 55 52 60 61 48 46 43 50 54 51 48 44 36 36
26 24 26 28 28 34 36 56 53 51 64 60 46 39 41 40 35 38 38 36 38 39 48 49 40 47 53 53 54 45 44 41 41 42 44 54 57 57 59 45 45 47 46 42 41 40 38 37 37
21 24 24 33 29 35 38 44 49 50 62 63 73 46 40 42 40 40 36 39 39 41 49 52 49 51 54 59 50 49 53 45 42 42 42 58 54 53 53 45 47 54 43 41 38 40 41 39 36
21 22 23 23 34 31 34 39 52 50 52 61 72 49 42 40 42 39 40 42 40 42 47 50 48 55 59 56 57 46 45 45 44 43 44 55 51 59 62 49 55 47 40 40 40 49 41 39 36
16 21 23 21 28 26 23 19 39 45 48 57 71 51 44 39 37 37 44 49 41 43 46 52 55 62 57 53 50 48 48 47 46 44 54 57 54 59 65 51 54 47 43 50 53 46 50 36 40
22 22 22 20 17 20 17 17 32 33 42 49 66 56 44 39 37 39 43 42 38 43 45 53 57 64 61 48 50 46 47 43 43 45 55 51 55 61 56 58 52 51 42 56 55 52 36 36 39
22 20 22 21 18 17 21 24 38 39 37 51 49 42 40 39 38 40 44 43 37 42 46 53 60 64 62 54 53 59 55 62 77 55 49 51 58 58 58 60 49 58 47 40 54 50 53 35 40
22 19 21 22 20 20 17 24 32 43 46 62 60 46 38 38 38 38 39 40 36 39 43 50 59 63 61 63 58 65 50 45 42 47 44 50 58 56 56 60 59 63 44 53 52 47 47 54 37
22 21 21 21 22 20 17 19 36 33 43 69 65 53 38 43 44 36 36 38 35 37 39 45 59 65 62 66 62 56 62 43 45 41 72 61 67 57 53 60 62 62 48 57 56 60 60 42 35
21 21 20 20 18 24 17 16 23 27 32 30 43 47 44 36 41 38 34 35 36 36 38 42 58 69 67 67 69 68 61 57 44 50 78 51 56 53 58 57 63 63 57 59 54 59 60 53 47
23 20 22 22 21 19 14 17 30 26 28 33 34 30 40 37 36 36 37 36 38 38 40 43 55 68 66 65 65 66 65 69 62 71 47 49 44 44 59 66 73 58 66 58 56 68 57 62 47
24 18 16 28 19 16 17 19 25 24 33 40 40 31 28 37 33 35 37 37 39 39 42 44 53 64 63 62 67 67 66 51 50 52 40 42 40 42 53 59 56 57 57 56 59 50 46 51 50
22 23 12 14 14 13 15 26 20 23 39 45 53 39 35 37 36 38 36 36 38 40 43 47 51 60 60 56 62 66 66 64 51 55 53 43 49 39 53 52 54 54 59 59 66 49 57 54 57
15 14 19 16 25 24 17 24 25 36 50 50 65 74 46 40 40 37 39 36 37 36 38 43 46 54 56 55 55 55 59 63 60 57 60 55 46 53 50 56 56 55 58 64 66 52 58 61 49
15 16 16 12 14 17 21 23 22 44 56 58 58 64 68 71 68 69 61 40 38 37 38 40 43 48 51 51 54 55 53 54 59 57 59 59 55 55 58 60 63 59 57 60 67 60 53 62 60
17 18 17 17 26 18 16 25 29 38 48 58 56 54 53 55 59 68 74 84 70 44 39 38 40 40 43 47 55 55 56 54 51 58 56 58 60 55 59 66 62 63 56 60 64 60 51 57 58

GFSSGP_sfc_rhum_075.txt.gz
RH
58 38 33 37 63 42 63 75 55 45 40 25 23 26 31 38 50 58 30 32 37 38 46 55 78 74 78 74 74 75 76 74 76 73 74 72 70 73 71 70 73 73 73 73 73 74 73 73 73
30 32 40 57 55 60 74 71 88 78 33 27 27 28 38 46 35 33 34 35 31 31 34 42 81 76 76 75 75 74 71 72 74 74 74 74 72 73 74 71 71 72 72 72 73 73 72 74 74
46 39 67 64 47 80 81 77 86 75 31 32 29 35 44 46 31 30 31 31 27 29 32 55 79 76 77 74 75 76 74 74 74 74 74 73 72 69 71 72 69 71 72 72 73 73 73 74 73
38 53 58 72 64 57 58 82 77 68 50 37 34 46 43 31 30 28 29 27 28 34 38 67 77 74 75 75 73 76 74 73 72 74 73 72 70 70 70 71 70 71 72 72 71 70 71 72 72
41 68 77 68 62 63 64 73 72 61 60 41 36 48 45 31 27 28 28 26 28 38 40 52 79 75 76 74 75 75 75 73 74 74 72 70 70 70 68 70 72 72 71 70 70 68 70 72 72
76 50 72 67 70 65 74 83 80 62 53 42 45 49 48 33 30 28 24 26 30 30 36 50 76 75 75 73 75 74 74 74 73 72 71 70 70 71 69 69 70 70 71 71 70 71 72 73 73
56 67 64 54 77 70 65 68 67 51 47 44 39 52 42 35 29 26 25 25 27 34 36 45 48 66 73 76 74 74 74 72 72 71 71 70 70 67 67 70 70 68 68 67 67 69 74 74 74
38 50 52 42 57 76 60 51 48 46 49 34 34 49 45 34 29 25 25 25 27 35 33 36 39 39 50 55 74 72 74 71 72 70 71 71 68 66 70 76 71 70 67 68 71 74 74 74 73
34 69 56 48 46 57 53 54 43 43 37 38 36 35 31 30 27 26 27 27 28 40 27 26 29 42 63 56 62 69 71 70 72 67 68 70 52 46 55 71 70 69 68 69 71 74 74 74 71
39 68 42 33 36 57 54 52 47 41 43 40 35 30 30 30 30 29 29 29 29 37 25 28 38 41 49 40 59 50 47 51 48 47 70 82 60 46 46 61 68 68 69 69 69 72 73 68 41
38 53 34 33 32 42 54 66 57 45 42 37 37 36 34 32 30 29 28 27 26 26 25 34 43 58 62 44 34 34 37 34 40 58 65 58 40 43 39 50 48 52 67 45 61 65 57 52 32
45 34 30 26 27 34 48 43 46 49 55 37 33 32 33 33 30 28 27 26 26 28 28 30 35 67 53 35 34 46 41 46 49 56 56 46 36 43 58 56 41 64 52 42 74 48 60 40 37
38 30 26 24 22 24 32 38 49 63 55 40 32 33 33 31 29 27 25 25 27 29 30 33 40 73 64 44 40 62 36 50 37 58 61 63 61 60 53 53 57 53 54 41 45 54 60 45 45
29 28 24 21 19 21 34 38 44 50 40 40 35 33 31 29 28 29 29 28 30 31 32 34 43 57 53 48 52 64 64 34 59 54 46 53 46 56 43 43 57 56 53 60 59 72 61 62 37
24 29 24 19 18 29 30 48 47 42 37 39 35 32 30 29 28 30 29 30 31 31 36 38 41 45 52 54 48 61 50 46 52 50 49 47 68 53 50 46 64 62 49 49 45 45 44 42 41
23 23 24 19 20 24 33 60 44 38 42 39 35 32 32 30 28 30 29 28 30 31 40 39 32 40 44 49 46 64 60 60 67 60 53 49 52 55 59 44 54 41 43 61 61 65 56 50 46
20 23 21 23 18 23 33 49 38 39 42 42 44 33 32 33 32 32 29 27 29 32 42 42 39 42 45 52 44 60 55 67 68 66 65 52 51 53 50 52 45 61 62 51 53 50 56 61 43
17 18 16 22 21 22 33 82 42 40 48 46 46 46 38 35 34 33 28 31 32 36 41 44 40 48 52 50 50 48 42 67 67 72 74 52 64 52 52 44 48 62 51 65 53 65 62 58 53
11 14 17 16 19 20 24 43 39 39 41 47 60 68 41 40 34 34 30 37 39 36 41 46 48 57 50 48 43 41 66 72 70 69 51 53 69 55 58 43 50 56 48 57 47 44 52 37 36
12 12 15 16 19 19 18 17 29 35 38 45 58 65 47 40 37 35 33 37 44 38 43 48 52 61 56 46 50 40 65 59 76 66 50 48 52 56 52 64 50 61 44 54 50 64 60 44 38
16 15 16 18 16 17 15 18 27 26 29 46 56 45 49 42 39 37 41 41 44 39 42 48 54 60 60 53 47 48 46 54 55 60 43 47 55 52 53 56 70 51 56 43 53 48 58 62 34
16 12 12 16 18 20 15 22 27 27 30 52 59 47 43 42 38 36 40 43 46 36 36 46 54 59 58 56 55 65 52 57 42 53 70 47 52 51 50 53 53 57 58 68 47 40 58 54 40
15 11 13 16 17 14 17 18 47 29 36 49 48 42 40 41 37 40 42 40 47 33 36 44 56 63 62 63 69 53 70 56 43 73 70 61 59 52 49 54 56 59 52 53 64 57 59 38 38
16 16 16 15 15 18 15 13 37 32 57 41 41 53 40 39 37 44 41 44 44 32 33 41 60 67 62 61 64 64 62 68 67 80 51 46 43 47 53 52 59 62 70 58 51 56 56 63 53
18 19 23 24 20 17 12 13 28 24 24 24 35 41 38 47 34 41 51 38 45 40 32 38 56 66 63 60 61 62 62 59 64 59 49 58 67 40 59 60 63 57 61 54 57 63 58 53 51
20 17 16 26 17 14 12 17 25 25 31 33 30 25 34 36 35 33 36 45 47 41 33 36 50 63 62 61 65 65 64 49 47 52 50 45 71 72 62 57 56 56 61 55 58 51 48 55 48
19 21 11 11 9 11 14 22 22 29 34 44 50 31 24 36 44 37 35 38 46 46 37 37 49 57 59 55 61 65 65 63 49 56 52 44 61 85 50 52 55 53 52 56 61 50 57 67 55
14 13 18 14 23 20 15 24 22 36 40 48 54 53 56 71 85 90 68 45 42 40 35 34 39 52 54 52 54 55 59 62 59 52 57 52 64 48 78 53 54 53 53 55 62 60 59 58 48
14 16 15 12 12 16 18 25 26 44 46 50 57 51 50 62 67 70 84 89 85 77 43 40 36 44 49 49 51 53 53 54 58 55 55 57 52 53 52 61 55 55 54 56 64 69 54 58 62
13 13 14 17 22 13 14 29 28 43 46 49 55 52 48 56 65 72 77 84 86 86 89 88 40 35 40 44 52 50 51 52 51 57 55 58 61 54 55 56 58 57 55 57 61 58 47 54 57

GFSSGP_sfc_rhum_078.txt.gz
RH
61 44 42 53 70 62 89 76 75 62 32 25 24 36 43 39 43 71 40 42 43 50 58 64 80 78 74 76 76 76 75 75 73 75 74 72 74 70 73 74 75 76 75 75 75 74 74 74 74
38 32 39 53 74 87 95 73 83 71 45 25 33 35 38 44 37 43 45 41 41 46 48 54 82 81 75 77 76 75 73 73 74 75 74 74 75 74 72 73 73 75 75 75 73 74 74 74 73
54 35 61 75 54 94 91 75 77 59 39 28 41 39 36 42 36 40 40 36 36 37 43 64 81 79 75 77 74 74 74 74 75 75 73 72 74 73 71 71 72 74 74 74 73 74 74 72 72
47 58 58 89 71 70 63 74 76 57 41 43 37 43 31 29 36 33 30 28 30 39 46 73 78 77 75 75 75 74 73 75 75 74 73 72 72 71 71 72 71 73 73 72 72 72 72 71 71
44 64 90 75 72 66 60 79 74 57 49 53 41 42 38 34 30 29 29 31 39 43 50 61 80 79 77 75 75 75 74 75 75 74 72 72 71 69 72 72 73 72 71 70 70 72 72 71 70
80 75 81 76 76 67 68 78 67 54 61 45 40 39 41 31 31 29 32 40 40 40 45 57 76 78 75 74 75 74 75 73 73 74 71 71 72 72 72 71 70 71 71 71 71 73 74 72 71
68 79 72 72 68 71 75 68 56 48 46 46 38 45 37 33 28 28 37 34 38 38 49 58 59 71 74 75 74 74 74 73 72 72 71 73 72 71 71 71 70 68 68 68 70 73 74 73 72
55 74 69 61 59 68 63 54 47 44 56 34 34 46 44 34 26 27 31 43 35 42 42 48 53 55 63 65 73 73 72 72 71 71 70 74 71 70 68 74 73 68 67 69 71 73 74 73 71
37 63 59 57 49 59 54 51 41 40 50 48 37 33 30 28 24 28 32 43 63 48 46 35 46 63 74 69 67 73 71 72 71 70 68 76 67 59 61 73 72 69 69 70 72 73 72 71 70
75 77 45 39 42 54 53 47 45 44 48 42 46 30 28 26 26 31 34 50 48 42 36 41 50 55 55 43 69 69 61 59 63 62 93 91 63 61 58 68 72 68 69 70 73 73 70 68 56
86 62 36 35 36 40 45 49 47 67 52 40 41 34 30 27 28 26 28 31 27 34 42 49 57 60 56 59 61 60 63 67 61 67 73 74 59 64 59 69 64 69 70 70 71 72 70 68 66
46 34 28 33 35 40 49 47 40 62 58 39 33 31 30 28 29 25 25 27 28 43 44 51 57 66 68 52 50 58 51 52 65 66 68 75 69 68 93 65 72 73 90 93 90 64 62 55 54
73 48 29 22 35 38 42 41 54 60 46 36 32 32 30 28 29 24 24 27 28 35 43 55 62 72 74 65 64 59 61 51 53 64 66 67 59 72 72 82 70 70 79 87 77 76 63 58 52
30 44 25 21 22 24 34 53 47 72 41 38 35 33 30 29 28 29 27 30 30 31 45 54 57 69 58 72 70 74 76 65 62 67 65 75 66 77 65 74 69 67 78 69 78 79 64 65 56
22 37 25 20 19 27 35 48 51 54 40 40 36 33 30 29 29 31 28 30 31 30 43 51 58 56 63 62 65 72 64 56 64 63 81 86 78 80 87 75 70 68 71 69 75 73 71 62 56
20 23 31 20 17 24 35 63 50 42 40 38 35 32 32 30 31 32 29 29 34 35 49 46 40 50 59 62 64 62 61 66 65 71 71 79 77 78 83 79 72 72 70 75 81 76 76 65 66
20 27 25 27 16 25 31 62 50 41 37 37 37 33 33 33 38 34 32 33 32 42 48 48 54 51 56 67 65 65 74 78 76 88 86 75 67 64 73 74 69 71 76 72 70 70 67 67 65
22 23 22 34 20 20 41 71 85 43 39 39 38 36 37 33 40 35 36 30 31 43 48 50 49 64 66 63 73 65 68 93 80 87 86 78 70 64 76 77 72 73 76 74 68 75 72 78 66
14 15 18 25 25 20 43 69 72 42 39 43 41 54 40 38 36 40 37 32 35 42 49 55 62 72 66 64 62 74 66 71 74 85 75 83 84 69 75 73 68 84 77 66 73 68 70 69 65
12 12 13 27 28 37 47 54 62 48 44 43 43 57 55 42 41 41 35 35 36 46 52 61 67 73 68 64 71 65 68 72 78 84 75 77 74 71 68 82 70 77 78 73 68 72 72 72 62
10 11 14 26 44 32 31 53 65 46 40 42 45 50 53 45 46 41 41 47 41 57 54 61 69 73 70 70 70 74 91 94 94 95 82 65 73 66 72 77 76 64 79 74 71 71 78 76 60
13 10 12 21 22 23 18 29 35 37 52 54 50 48 51 45 45 47 44 49 45 65 50 61 66 73 68 73 70 75 71 82 76 69 77 68 67 70 70 70 73 80 87 87 76 62 72 75 76
14 11 12 20 19 16 16 19 28 38 65 57 52 46 44 42 42 41 37 44 47 48 44 57 66 75 71 74 79 75 76 89 89 77 85 82 78 68 66 72 70 76 90 78 80 72 74 80 71
13 14 12 14 19 21 17 16 44 57 72 68 48 46 58 42 40 38 38 45 46 46 39 54 68 77 75 73 73 79 78 95 97 92 89 90 71 69 72 66 76 79 86 84 72 71 68 79 81
14 17 20 23 24 22 13 16 36 57 74 79 37 48 66 58 51 40 42 46 47 47 43 56 69 76 73 72 71 75 77 78 89 87 76 70 75 64 75 78 80 85 84 83 73 76 79 71 76
16 16 20 31 22 17 14 18 33 35 64 68 30 32 38 42 42 64 40 46 50 49 50 56 70 76 73 72 76 78 77 83 70 91 76 83 83 88 76 76 74 74 73 71 77 77 76 75 72
16 20 14 14 13 14 18 30 32 36 41 42 46 51 69 82 87 78 46 45 64 47 47 54 70 73 72 68 74 77 76 77 69 72 71 74 89 81 78 75 73 73 76 76 79 82 78 76 76
18 14 19 17 28 30 24 34 40 42 47 50 50 54 64 79 92 93 88 68 73 49 42 47 62 69 68 66 68 69 73 75 74 77 74 68 87 90 89 95 77 73 75 75 79 81 76 83 73
18 24 18 15 17 23 34 44 32 46 47 53 51 55 64 75 87 96 96 92 87 79 78 93 56 63 63 63 66 68 68 68 72 71 70 70 66 88 90 81 83 80 73 73 79 80 77 74 78
13 16 16 20 28 19 48 63 39 44 47 51 54 53 54 67 77 85 92 95 94 91 84 90 88 88 56 59 68 66 67 67 68 71 69 72 76 72 86 85 90 79 75 80 80 77 70 77 77

GFSSGP_sfc_rhum_081.txt.gz
RH
73 65 61 67 89 89 93 86 90 69 60 33 38 43 47 43 53 88 58 60 64 70 74 72 82 76 75 78 79 77 76 76 76 76 75 76 72 75 77 76 76 76 76 75 74 74 73 72 72
62 47 57 71 92 93 94 77 78 71 53 44 39 44 54 65 53 59 62 59 62 70 73 78 84 80 79 79 79 76 75 76 76 76 76 76 74 75 74 74 75 75 74 74 74 74 72 71 71
66 55 79 90 89 94 91 76 75 65 46 43 42 40 52 67 53 54 53 57 60 64 74 80 84 82 78 76 77 75 74 75 76 74 73 74 74 72 73 74 75 75 75 74 74 73 71 71 71
62 73 74 95 90 92 71 77 75 67 57 50 39 51 47 44 51 49 48 50 59 68 81 82 80 76 78 77 76 76 76 76 75 74 72 72 72 72 73 73 74 74 72 73 74 72 71 70 72
54 81 97 86 84 76 71 79 77 74 80 51 43 56 54 46 43 42 42 50 62 74 77 79 83 79 78 76 75 75 76 76 74 74 73 72 72 72 74 74 72 72 72 73 73 71 71 72 73
84 83 90 89 83 75 73 79 66 67 58 43 52 54 54 39 39 38 46 54 63 69 75 74 78 80 77 76 76 76 74 74 76 73 72 72 73 73 72 71 72 72 71 72 73 72 71 73 72
80 92 87 81 80 77 75 74 69 57 48 45 45 55 46 42 37 44 50 50 54 65 72 80 80 74 76 76 75 75 74 74 73 72 74 72 72 72 72 72 71 70 72 72 73 73 72 72 72
70 90 74 72 72 82 65 70 64 63 49 34 37 55 55 50 44 45 46 51 57 66 70 73 83 83 84 82 74 75 74 73 72 72 70 71 71 71 70 77 74 69 69 70 72 72 71 72 72
52 92 76 65 64 69 62 64 56 70 51 50 36 40 38 43 43 45 51 59 63 62 66 69 70 80 89 85 76 74 73 73 72 72 68 79 82 76 76 76 73 69 69 70 70 69 68 67 67
92 96 67 54 53 66 63 58 65 80 65 51 40 36 34 39 44 54 52 55 67 64 67 61 68 73 78 65 84 88 75 87 93 88 91 91 91 79 74 74 72 70 71 72 71 69 66 68 71
85 92 52 44 48 49 54 52 68 68 64 45 43 40 36 46 52 54 47 46 54 64 60 68 67 69 72 72 85 85 81 90 91 80 90 89 92 88 92 92 84 82 77 85 80 79 86 77 79
73 67 52 48 43 45 52 62 79 85 67 39 35 34 35 39 45 54 46 45 51 56 65 63 68 68 75 85 80 77 80 81 71 78 83 81 85 88 92 96 88 85 89 90 92 87 75 79 72
67 49 41 37 40 45 47 61 71 70 70 35 33 34 36 37 34 36 36 42 56 62 64 63 64 71 76 65 69 66 75 73 71 74 80 88 90 91 91 92 90 94 92 87 87 89 80 60 58
55 43 44 47 44 42 52 60 54 57 39 36 35 37 34 37 32 33 37 49 53 61 66 72 74 75 70 73 74 71 82 71 68 82 88 85 82 91 74 88 89 78 93 88 89 78 76 68 58
49 45 48 42 45 52 56 72 63 52 48 40 37 37 34 33 36 34 34 45 63 63 62 70 74 70 71 76 66 71 74 65 74 84 63 80 87 87 90 81 82 87 84 77 88 82 77 68 63
42 47 61 30 28 46 47 77 80 55 56 48 38 37 36 34 37 37 33 36 56 60 65 64 51 68 67 75 72 76 83 84 79 93 87 84 77 73 82 81 75 82 79 79 90 77 85 74 68
28 43 40 40 28 41 46 80 89 55 56 51 41 39 37 37 42 43 34 36 49 56 60 63 61 69 68 71 80 76 85 91 89 93 94 86 78 79 87 82 75 78 79 81 80 79 77 80 72
36 34 33 39 26 42 74 85 93 86 67 49 42 39 41 39 46 41 36 40 47 58 53 57 58 74 69 76 81 82 81 90 94 93 92 84 82 72 83 82 78 90 87 81 78 78 75 73 63
21 26 28 28 34 60 72 76 66 68 73 50 43 42 42 45 39 43 38 41 46 58 57 68 60 82 72 81 86 90 87 86 93 95 92 88 79 78 84 85 87 91 84 78 65 76 71 70 67
17 18 22 33 42 64 71 72 64 49 69 45 46 48 42 46 45 44 42 38 49 57 63 77 80 82 76 75 85 79 86 91 90 94 90 83 86 80 80 90 83 70 84 86 76 74 83 79 72
18 20 21 40 41 50 56 76 78 70 53 46 48 49 46 45 48 47 40 42 50 60 68 79 78 81 80 77 85 90 94 96 92 94 93 89 78 78 78 75 88 76 89 87 77 72 72 82 66
22 14 12 36 43 59 58 86 79 69 58 55 49 59 52 52 48 48 44 52 53 59 62 77 79 83 76 82 80 76 87 93 92 90 94 93 80 74 74 80 88 82 81 86 88 72 81 86 78
16 13 17 31 41 42 58 61 76 66 73 74 65 60 51 46 49 47 53 49 56 56 57 68 84 84 74 81 86 85 87 94 94 93 92 89 85 75 72 75 83 84 82 76 81 78 82 85 85
11 15 20 29 32 42 32 37 73 79 69 68 85 71 54 55 59 54 50 52 57 56 57 65 86 85 83 82 84 84 90 88 88 93 93 92 88 78 70 71 86 90 84 82 80 77 75 78 84
17 30 44 37 53 44 30 33 80 76 76 79 83 77 61 49 57 48 51 56 58 58 58 65 81 90 89 86 84 86 90 82 79 90 89 90 93 90 81 83 89 92 87 84 83 86 79 80 77
23 30 42 45 45 38 25 68 76 56 56 60 48 64 63 63 76 68 54 52 54 58 59 63 75 91 89 86 88 88 88 94 93 88 94 95 95 89 83 87 86 84 81 81 84 80 86 83 81
22 25 22 30 29 33 56 67 65 60 65 65 72 80 91 91 93 85 83 81 60 65 55 63 73 77 83 82 92 88 87 92 91 88 91 91 89 83 92 89 85 86 85 81 88 87 85 86 83
16 25 30 38 51 40 66 73 92 88 72 70 74 78 82 91 96 96 95 94 91 84 68 62 72 76 77 81 82 92 89 89 90 93 87 88 93 92 85 79 81 88 84 84 87 88 82 82 71
33 38 47 35 38 41 69 89 78 81 70 75 74 74 82 86 94 97 98 97 95 93 95 95 96 94 90 84 88 89 92 86 89 89 85 92 94 94 89 82 78 88 87 85 86 87 84 84 86
21 32 36 44 42 58 75 86 70 74 64 65 73 67 72 80 89 92 95 96 97 98 96 96 97 96 95 96 95 86 88 84 89 88 84 83 91 95 93 92 87 85 85 88 89 88 75 85 84

GFSSGP_sfc_rhum_084.txt.gz
RH
73 68 68 72 91 92 92 89 84 70 61 41 31 40 46 48 59 88 72 72 73 78 78 77 81 75 77 79 78 76 78 76 76 77 73 75 77 77 77 77 77 76 76 74 73 72 72 73 70
72 62 70 83 90 97 95 77 92 76 50 56 44 49 62 78 64 78 83 72 70 79 85 81 83 81 80 79 78 76 76 77 78 78 76 74 76 76 75 76 76 76 76 74 73 72 71 68 67
65 53 86 92 93 93 91 78 78 81 47 45 53 53 62 77 68 72 70 71 73 82 88 81 82 82 77 78 76 76 76 76 75 74 76 74 74 74 75 75 75 75 75 76 73 72 71 70 69
64 81 81 98 90 91 85 74 83 66 50 50 52 72 60 52 62 66 67 69 77 88 92 81 78 77 77 76 76 77 76 76 75 74 75 73 74 74 74 74 74 74 74 74 72 72 70 71 68
67 84 96 92 89 77 78 76 85 76 69 58 55 68 69 58 59 63 64 68 84 93 88 79 82 78 78 76 75 76 76 74 74 75 73 73 74 73 74 72 72 72 74 73 71 71 73 69 73
85 86 98 94 86 78 75 81 77 71 57 58 61 66 74 56 61 60 62 72 78 87 87 79 78 78 76 76 77 76 75 75 74 73 74 74 74 74 73 72 72 72 73 72 71 72 74 71 72
82 93 88 84 81 72 70 76 73 58 58 57 50 73 70 61 53 58 68 70 75 81 86 90 83 77 76 76 76 74 75 73 73 73 72 73 73 72 72 73 72 72 72 71 71 71 72 73 73
74 89 78 77 81 84 68 70 66 52 55 42 47 71 77 53 56 61 64 72 78 84 87 94 91 88 89 86 75 74 74 72 72 71 73 72 72 71 71 77 74 71 71 71 71 71 72 72 73
68 94 86 79 68 72 70 71 67 67 46 43 42 50 49 55 57 59 69 76 80 81 91 94 91 95 95 90 76 76 72 71 71 73 73 81 85 81 79 76 71 69 69 70 70 71 71 70 68
84 97 76 62 57 66 70 73 72 64 52 47 46 50 51 55 57 64 74 82 86 88 86 84 87 94 93 73 89 88 77 91 92 91 91 94 91 87 80 75 70 70 69 69 69 67 66 70 72
91 85 63 57 48 52 62 73 71 75 83 50 52 57 52 52 57 64 71 75 75 78 72 75 83 89 89 89 96 94 89 94 89 86 89 91 91 93 95 97 94 94 78 84 81 86 88 79 78
72 68 66 49 45 52 62 75 78 84 69 41 43 50 50 53 56 59 64 66 69 69 68 76 78 85 82 91 92 89 88 89 88 85 89 93 92 95 94 96 91 92 91 90 94 88 84 85 79
72 55 62 47 46 47 59 72 73 81 61 43 38 46 51 52 51 46 50 57 63 69 73 75 79 82 86 85 90 86 86 83 81 89 91 92 90 90 94 93 93 95 92 89 90 92 85 72 60
51 48 83 60 47 54 66 70 63 72 60 39 36 49 51 51 51 49 52 60 64 69 73 72 71 76 80 84 81 82 86 77 81 89 90 88 90 94 89 90 93 90 93 88 91 84 82 74 63
36 48 60 50 57 62 62 71 68 59 55 42 36 40 40 45 48 45 59 62 68 68 69 73 79 74 76 76 77 81 77 75 84 88 89 90 91 92 89 84 87 92 87 84 89 84 78 72 68
54 53 56 52 52 58 60 86 65 69 49 45 38 40 40 40 40 50 53 58 64 66 71 67 57 71 73 70 79 80 88 90 88 93 87 85 89 87 88 87 84 90 93 85 89 82 84 79 73
47 71 57 52 48 60 68 97 90 67 56 49 40 43 38 40 40 49 59 62 63 65 73 73 74 73 78 76 83 83 87 91 94 92 92 86 85 75 91 90 84 87 89 81 82 76 81 83 75
32 42 40 48 54 63 85 90 84 77 67 51 43 45 39 45 42 50 59 60 61 66 66 66 72 74 79 85 89 89 87 94 95 93 92 90 91 81 92 89 79 89 89 84 80 80 85 79 71
27 28 32 45 57 75 84 85 81 70 72 57 47 45 44 44 42 43 55 58 61 64 66 68 76 79 82 89 91 96 92 86 94 94 83 87 89 81 90 94 89 87 88 81 85 81 74 75 74
26 29 24 49 50 64 79 80 74 73 76 66 50 47 47 49 46 44 50 54 56 61 67 75 77 79 78 78 90 86 92 93 94 95 90 89 88 85 87 91 84 86 87 84 84 80 83 83 79
25 30 28 50 59 63 72 78 72 61 66 71 57 43 49 46 50 46 49 49 60 63 74 75 79 78 78 85 90 97 96 95 94 94 94 93 85 86 87 83 83 81 90 88 82 79 76 84 72
30 19 17 48 55 66 62 77 86 77 66 72 63 53 56 47 57 56 50 53 60 63 75 73 79 80 78 88 83 87 91 94 92 88 93 93 85 82 85 84 87 84 87 85 87 79 84 85 83
18 16 18 35 50 70 72 82 76 79 84 82 80 71 67 51 61 58 46 56 57 61 72 71 78 83 84 90 89 79 86 92 95 96 89 92 91 84 78 86 87 85 88 85 81 79 84 91 85
12 22 35 42 47 61 52 68 83 83 76 72 79 73 64 57 61 60 57 55 56 57 64 78 81 78 81 86 87 90 89 91 95 94 97 96 94 87 81 83 88 89 86 83 80 83 82 86 87
18 35 46 46 56 57 44 62 56 66 68 69 73 62 61 56 68 59 60 59 62 60 66 79 81 86 85 86 87 92 90 86 87 91 82 93 95 93 87 90 92 90 87 84 86 88 85 83 79
22 32 47 44 54 44 37 68 77 80 70 77 75 73 60 66 76 70 67 61 66 70 69 69 86 85 91 90 89 93 92 94 91 88 95 96 96 92 86 90 90 87 85 84 86 88 87 86 89
22 31 28 34 44 34 82 83 70 79 83 80 83 88 92 96 95 88 90 93 78 75 70 67 85 84 88 94 92 91 92 90 91 92 92 92 94 84 86 90 90 90 86 83 89 90 86 89 87
17 24 38 43 53 53 92 94 95 92 90 85 85 87 90 93 96 97 96 96 94 91 94 85 72 85 85 90 89 93 90 92 90 93 87 94 90 91 93 91 90 90 89 88 92 91 89 89 86
29 38 44 41 47 47 88 94 85 91 89 89 88 86 88 95 96 97 98 97 98 97 97 98 98 96 96 96 96 95 95 92 93 95 93 95 93 94 91 90 85 87 89 90 93 92 89 86 89
29 37 43 42 42 74 89 96 74 86 88 84 85 80 83 90 92 96 96 98 98 96 98 98 98 97 98 97 96 96 97 95 94 94 92 95 92 93 91 86 83 81 86 91 94 89 83 88 85

GFSSGP_sfc_rhum_087.txt.gz
RH
76 72 71 76 91 90 94 85 83 73 61 38 30 38 47 51 64 88 88 80 79 84 84 79 81 74 77 78 76 76 74 74 73 76 77 76 77 77 77 76 76 76 76 72 73 71 71 72 70
74 67 74 85 90 95 92 82 80 72 56 33 31 50 63 80 74 88 94 77 77 85 90 86 83 81 79 80 75 76 76 76 77 73 76 76 77 77 76 77 77 76 75 73 73 70 69 69 69
69 57 89 95 90 90 90 91 92 80 49 31 55 59 68 90 81 84 81 74 80 91 91 84 81 81 79 77 78 76 76 75 76 75 74 75 75 76 75 76 76 75 74 73 72 70 68 67 65
70 86 90 96 91 79 76 87 78 83 54 54 63 81 66 67 71 78 72 76 90 94 92 84 78 77 77 76 76 76 74 75 75 74 72 74 74 74 75 74 74 75 73 72 73 72 70 67 67
68 88 96 96 84 76 74 79 87 85 70 62 62 77 78 72 72 74 75 80 94 97 92 85 80 78 77 76 76 75 75 75 75 75 73 74 74 74 74 72 73 74 72 72 71 69 69 69 72
88 88 96 95 89 78 80 80 80 75 65 64 70 75 86 74 76 74 76 86 90 95 92 86 79 77 76 75 76 75 76 75 75 74 74 74 74 75 72 72 73 73 70 70 72 69 70 72 71
82 93 88 83 85 80 70 79 83 67 63 64 59 87 88 79 71 72 80 86 89 90 93 92 86 78 76 77 74 75 74 73 73 75 75 75 75 72 72 72 74 72 69 71 72 71 70 72 73
78 91 84 78 80 77 74 70 58 60 64 50 53 89 94 74 68 74 77 89 93 95 95 96 93 91 92 86 74 73 73 73 72 72 72 74 71 71 74 76 75 72 69 69 71 70 72 72 74
71 96 92 81 74 75 68 70 63 63 55 52 52 62 65 66 72 75 87 92 95 92 97 96 96 96 94 91 78 74 71 70 71 74 76 86 90 91 82 74 70 69 69 68 70 70 71 71 72
87 96 80 63 59 71 76 66 68 59 59 64 62 58 63 68 70 80 85 94 97 97 96 97 97 97 95 77 92 92 84 93 93 94 93 96 92 89 82 74 69 68 69 68 68 67 66 70 76
85 84 69 54 53 61 72 80 74 60 67 63 70 71 67 67 69 75 77 83 86 92 89 93 96 96 95 92 97 95 92 94 92 90 93 92 93 96 97 97 95 96 82 90 87 85 87 79 79
70 64 63 52 53 60 70 69 67 79 65 53 62 62 64 65 70 75 80 81 86 85 83 86 92 96 93 97 97 95 93 91 85 87 90 95 97 95 95 96 93 93 94 90 92 91 91 91 82
69 66 59 46 55 58 68 70 72 73 65 52 56 60 63 64 67 72 73 73 79 81 80 85 87 92 90 95 95 94 94 89 87 91 91 94 93 92 94 94 95 95 93 89 92 93 88 70 74
70 59 64 54 52 60 65 66 70 69 56 55 55 60 58 61 65 68 69 73 75 75 83 83 84 86 87 93 91 90 92 85 85 92 92 90 88 92 91 91 93 93 94 93 92 90 86 76 71
54 74 66 67 54 68 61 80 69 63 48 57 56 56 56 54 52 59 62 68 71 76 80 79 80 79 85 86 87 88 86 81 89 90 89 86 90 89 87 87 91 93 90 87 92 87 81 76 71
56 68 87 57 60 65 70 86 80 66 62 56 55 54 56 55 55 52 57 65 69 75 77 78 64 76 81 82 84 82 87 92 91 90 90 88 90 88 91 89 86 91 94 92 91 86 85 81 76
45 76 60 75 74 70 75 94 79 61 61 49 48 51 53 56 54 55 59 65 70 73 76 81 76 78 75 81 85 86 88 92 96 94 95 85 87 84 92 89 84 91 92 86 86 82 83 85 75
46 70 59 61 70 74 79 86 76 73 66 51 43 43 46 50 53 60 60 65 67 73 75 80 75 81 81 89 93 94 94 95 96 94 94 90 93 80 94 94 83 92 90 88 86 85 86 81 77
30 33 28 52 59 70 73 82 80 75 74 54 47 49 46 47 54 56 63 64 67 72 78 81 82 88 86 93 94 95 94 92 96 94 84 86 92 91 90 90 92 91 91 84 85 89 77 78 79
32 34 38 71 70 74 82 78 78 78 81 66 51 51 50 47 60 65 66 64 68 72 74 80 80 85 88 87 93 89 95 92 95 95 90 88 87 88 87 90 85 89 87 81 86 86 84 86 83
33 34 28 70 74 74 77 82 81 76 75 79 72 56 51 48 54 65 67 67 64 71 74 74 83 81 85 88 96 98 96 95 94 95 95 91 87 87 90 86 88 87 92 87 85 84 80 79 77
51 22 22 65 68 82 73 84 87 76 78 79 78 62 54 51 52 63 63 66 64 66 69 71 80 80 82 92 90 90 90 94 94 92 94 92 88 86 85 85 89 87 90 90 87 90 89 87 81
25 19 19 57 62 74 79 80 76 74 79 78 85 67 57 54 52 57 57 62 64 63 70 75 80 83 86 90 91 88 92 93 94 92 88 92 94 87 87 83 87 87 87 88 84 85 86 94 89
17 22 32 51 61 76 65 63 78 88 69 71 76 66 59 54 56 53 54 72 76 62 71 76 80 82 91 91 91 86 90 93 95 96 95 96 96 96 92 86 87 88 85 88 83 88 83 87 92
24 35 45 72 72 69 62 72 72 87 68 69 74 71 64 70 72 62 69 67 74 69 76 73 79 87 90 91 92 92 89 92 90 92 95 94 96 96 92 91 94 94 90 84 88 87 87 85 82
26 26 46 55 67 56 66 74 85 88 84 77 80 83 73 81 78 71 72 72 78 74 72 73 80 79 88 89 93 94 92 94 92 91 95 96 96 93 91 93 92 89 88 85 88 93 90 88 91
27 35 30 40 61 47 91 92 85 79 88 90 93 91 91 94 96 86 80 79 79 80 69 75 78 74 87 88 94 95 93 92 89 89 93 96 94 87 91 91 93 91 89 86 92 94 88 90 91
20 24 33 45 53 62 94 97 91 91 93 92 93 94 94 95 96 97 98 96 92 94 86 80 79 84 87 94 94 94 95 93 92 94 93 92 91 93 91 93 93 93 93 89 92 94 91 91 91
27 41 48 44 51 61 96 92 90 93 92 96 93 91 95 96 97 97 98 98 97 95 94 96 96 97 97 95 95 94 95 94 95 94 93 91 94 93 92 94 93 93 93 93 94 94 92 92 91
25 36 52 44 59 79 88 94 82 90 91 92 92 84 91 94 96 97 98 98 98 98 98 98 97 98 98 98 97 96 96 95 96 96 94 96 96 95 96 92 91 90 90 92 94 94 88 92 91

GFSSGP_sfc_rhum_090.txt.gz
RH
78 75 74 77 86 89 94 90 84 64 56 41 33 38 48 64 69 82 93 85 85 89 85 79 80 73 74 74 78 74 72 73 78 77 76 77 77 77 76 76 74 75 75 72 69 71 71 72 73
78 70 75 85 92 93 93 85 81 78 54 36 33 47 70 91 81 97 96 83 84 88 91 85 83 80 76 76 76 76 75 74 74 77 77 76 76 76 76 75 72 75 73 70 70 70 69 69 67
74 62 89 93 93 92 92 88 88 75 38 31 49 66 73 90 84 90 87 82 87 95 91 84 81 79 77 75 75 76 76 76 73 74 75 76 76 76 75 75 71 71 74 71 70 68 67 68 68
75 87 93 93 88 79 80 84 81 80 39 47 69 86 74 69 76 85 79 86 96 95 91 83 79 78 76 76 76 74 75 76 75 74 74 75 74 75 74 75 74 74 73 72 70 69 68 68 67
72 90 98 93 88 78 86 83 88 87 66 66 68 84 81 85 78 78 86 89 95 96 94 84 80 76 75 76 75 77 74 74 74 74 74 74 75 74 73 74 74 73 72 71 69 68 68 69 72
91 91 96 94 81 78 85 82 82 82 68 69 76 83 94 83 82 81 85 93 93 96 92 85 78 77 77 75 74 75 75 75 76 74 74 74 76 74 73 75 73 71 70 70 68 70 70 70 69
84 94 90 86 86 83 77 81 81 74 70 72 65 89 90 90 81 83 92 96 96 94 93 91 84 78 76 74 75 74 73 74 75 74 75 76 74 72 74 73 72 69 69 68 67 68 71 71 71
80 91 87 80 82 85 81 81 62 64 71 56 64 83 94 89 80 86 93 98 98 97 95 94 93 92 91 82 74 73 73 72 72 73 74 72 73 72 70 78 76 69 69 69 68 67 72 73 73
71 96 90 79 74 76 72 71 62 61 60 57 60 69 76 79 80 91 98 97 98 95 98 96 95 96 94 89 77 74 70 71 74 77 81 88 92 91 83 75 72 70 69 68 68 69 72 72 72
86 96 80 65 64 71 72 64 67 64 67 70 80 75 77 79 82 92 97 93 97 99 99 97 97 96 93 82 94 93 86 93 95 93 93 95 92 88 80 73 70 70 69 69 68 67 68 71 85
86 89 73 60 56 61 73 73 68 68 80 68 86 85 82 80 82 84 90 96 97 97 95 97 97 96 94 96 94 92 91 93 93 91 92 92 94 95 96 97 94 94 81 89 85 84 83 76 73
76 68 62 58 57 64 68 75 61 68 67 60 70 73 76 79 81 79 85 90 92 95 94 94 95 96 94 96 94 92 90 85 86 87 90 92 92 94 95 96 92 92 88 90 92 92 90 85 83
76 74 54 56 54 60 66 71 64 73 60 62 66 69 74 74 76 76 77 81 88 90 87 91 94 96 93 94 94 92 92 82 83 89 91 92 91 92 93 93 93 94 89 90 92 92 85 76 73
64 71 56 60 64 66 68 72 67 66 70 66 67 71 69 70 73 80 82 82 87 84 86 88 91 92 91 94 92 92 91 87 87 91 91 88 88 91 90 90 93 88 92 91 92 86 82 79 72
58 75 63 59 70 70 61 82 72 65 72 69 69 69 67 69 71 77 75 77 80 83 84 87 88 86 90 91 90 89 87 81 87 89 90 87 88 88 87 85 87 92 87 86 92 84 78 75 68
67 76 82 66 67 70 70 88 75 70 70 71 68 65 66 68 69 70 70 73 77 83 86 84 69 82 87 89 89 86 87 91 88 91 90 86 87 86 88 87 84 90 92 93 89 82 84 76 73
69 83 76 75 63 71 73 83 77 71 63 69 67 63 62 61 63 62 62 70 77 83 85 85 82 84 84 88 88 86 88 91 92 90 93 86 87 83 90 90 85 88 89 90 84 81 81 81 74
70 75 73 76 71 82 78 83 76 69 65 66 64 62 61 64 64 56 64 69 76 81 83 85 83 84 85 91 93 93 94 96 95 93 93 87 89 80 89 90 85 90 86 83 84 84 83 79 76
44 48 52 52 68 79 84 85 80 73 68 60 58 64 60 60 60 62 64 70 76 80 85 86 85 88 92 94 93 93 96 95 95 94 86 88 90 89 88 87 89 90 89 82 84 87 83 78 80
33 36 78 83 73 78 90 88 74 75 78 59 53 52 54 56 59 67 69 71 74 78 84 88 85 91 90 91 93 89 94 91 93 94 90 86 85 88 86 90 86 85 85 82 83 86 81 80 79
37 37 36 75 84 81 80 89 84 79 76 82 71 51 49 52 67 70 72 73 74 79 83 84 87 91 90 89 95 97 95 95 94 94 93 89 86 86 88 87 87 86 88 85 83 83 83 80 79
53 25 28 76 75 81 78 90 92 81 83 82 80 63 52 53 61 69 70 72 73 75 76 83 87 89 87 92 91 90 91 93 93 92 93 90 88 85 84 85 88 88 90 89 84 86 85 84 82
28 23 22 69 74 85 88 76 65 84 88 83 79 74 58 54 64 69 65 66 68 67 72 78 87 87 87 93 92 89 92 92 92 93 89 92 92 86 84 84 88 87 86 86 84 84 87 87 83
26 24 43 54 74 78 76 68 71 95 80 73 71 71 65 55 61 67 61 66 72 67 68 75 87 87 89 92 91 89 90 93 95 95 95 95 93 90 88 85 87 89 87 86 82 87 82 85 86
25 31 44 79 76 77 79 71 64 89 90 74 67 74 68 61 65 71 69 78 80 71 71 78 84 86 88 90 91 91 90 91 90 91 95 95 97 94 89 89 92 91 88 87 85 86 86 81 80
27 28 50 74 80 67 77 73 68 85 87 85 74 80 78 86 79 71 76 78 80 74 74 77 78 80 88 91 92 93 91 93 91 89 95 97 96 90 88 89 89 88 84 84 88 85 83 85 83
31 29 27 47 60 66 87 86 88 83 90 91 93 93 96 92 86 81 82 75 86 86 72 75 82 81 86 87 93 93 92 91 88 88 92 95 93 85 88 89 91 90 87 86 90 88 87 86 84
27 28 38 47 56 65 94 93 83 96 96 94 96 93 95 95 97 96 93 84 86 86 89 81 82 87 91 88 90 92 91 90 88 90 91 92 90 90 91 90 91 92 90 90 92 91 86 87 83
32 48 49 47 54 76 94 87 90 93 90 94 93 96 96 97 97 98 98 95 93 92 90 93 94 95 98 97 92 92 93 92 92 91 90 91 89 89 93 94 91 92 93 90 92 93 89 88 87
32 42 53 48 63 87 81 73 86 92 92 91 90 95 95 95 97 97 98 98 97 94 96 96 98 97 98 98 96 95 94 93 94 95 93 91 92 92 93 93 92 90 90 91 92 91 89 91 87

GFSSGP_sfc_rhum_096.txt.gz
RH
57 37 36 45 52 38 48 54 34 35 32 24 21 21 32 40 34 45 33 39 40 37 41 55 76 71 74 77 72 74 77 77 77 76 76 76 74 72 73 74 70 72 73 72 73 74 74 71 67
36 43 43 49 53 46 56 38 36 30 26 22 22 33 35 52 37 39 43 41 36 40 38 37 82 75 77 75 73 73 76 75 75 76 76 76 76 74 74 73 73 73 72 70 68 68 65 67 69
41 54 53 69 57 49 54 35 38 27 22 26 29 37 46 48 38 38 39 39 35 43 34 54 77 76 74 74 76 74 73 74 74 75 75 75 74 73 73 72 72 71 72 71 73 71 71 71 70
40 50 62 74 54 57 44 40 32 27 27 37 37 52 48 34 41 37 39 36 36 35 35 68 77 76 76 75 76 75 73 73 75 75 75 74 73 72 71 72 73 71 70 69 70 70 70 67 72
38 80 73 69 55 52 41 39 29 33 40 44 41 54 49 44 39 39 38 34 33 31 36 46 76 75 76 74 74 74 73 73 74 74 74 74 73 73 72 72 72 72 70 70 71 72 72 74 73
62 80 69 60 50 50 48 43 29 29 31 42 42 42 46 43 41 39 35 34 30 31 34 44 72 76 74 74 74 74 74 74 74 74 74 72 74 72 73 73 71 69 70 70 71 71 72 71 71
70 80 67 62 54 54 51 44 40 30 34 36 35 42 51 43 42 37 35 32 31 32 36 40 42 65 73 75 74 74 74 74 75 74 72 72 72 71 72 71 70 68 67 68 69 70 73 69 67
47 81 74 63 64 51 47 46 38 39 43 36 33 45 58 44 44 38 35 31 33 35 40 41 43 43 46 48 71 73 74 74 75 75 70 74 70 71 70 76 72 67 66 67 67 69 72 71 69
56 72 83 65 59 57 52 49 42 36 42 38 38 28 42 40 41 39 38 34 37 38 37 33 36 48 59 55 60 69 73 75 77 73 73 66 50 55 55 71 69 65 66 67 68 69 72 74 72
55 67 67 42 40 48 48 44 46 44 45 44 34 36 40 41 42 40 38 37 38 40 36 34 39 39 42 37 54 53 49 44 47 49 55 52 54 56 45 60 67 66 67 68 68 70 67 63 42
49 65 47 39 38 37 43 44 39 42 47 42 44 45 43 42 40 37 36 35 34 41 37 37 45 51 45 48 39 41 42 44 50 57 50 50 43 41 38 44 43 44 57 38 46 45 38 48 40
48 45 45 35 36 38 44 41 41 40 37 34 37 39 41 42 37 34 33 35 38 42 40 38 44 62 50 44 38 39 40 40 40 47 53 51 42 44 44 40 43 43 37 47 44 41 48 47 49
48 46 39 35 39 49 42 40 41 44 38 34 34 38 39 37 35 32 31 34 38 39 38 41 49 60 59 52 43 42 44 36 38 43 48 42 43 51 45 50 41 42 38 40 43 42 43 43 41
43 44 40 38 45 52 42 40 37 43 38 37 38 37 35 34 33 34 32 36 39 38 38 43 49 58 55 56 58 50 40 40 38 40 49 53 43 50 45 47 42 40 37 39 41 44 39 36 34
50 48 46 46 49 51 46 53 53 41 38 41 37 35 34 33 32 34 32 38 38 36 40 47 48 50 56 59 55 45 40 36 38 42 54 53 50 59 54 45 42 42 48 50 45 41 39 32 31
53 45 64 56 50 66 67 68 62 52 40 38 35 36 37 36 31 31 32 35 36 37 45 46 37 45 50 54 53 44 43 40 39 40 44 53 58 58 53 42 42 46 44 40 38 36 34 34 32
66 58 54 62 52 69 79 78 66 72 60 35 36 35 36 36 33 35 33 35 37 42 47 48 46 47 52 59 49 47 55 44 43 43 42 57 54 55 47 42 47 50 41 39 35 37 39 37 34
71 50 40 52 63 74 90 84 73 87 70 37 36 34 35 34 34 35 35 36 37 42 47 49 48 56 61 59 57 45 45 46 44 44 44 56 51 56 49 46 51 46 41 40 39 50 40 39 38
45 59 40 39 53 86 82 86 88 86 81 42 35 35 34 34 33 34 34 36 38 41 48 52 55 64 68 63 49 47 46 48 45 44 57 57 54 56 58 43 51 48 46 52 52 42 48 34 36
28 37 36 38 46 53 86 87 86 88 81 52 37 32 32 32 32 36 36 35 37 44 47 54 57 64 64 52 56 46 47 44 44 46 56 53 54 58 55 55 49 53 45 56 56 57 37 35 41
23 28 29 44 56 54 65 79 77 77 88 61 39 31 32 36 33 36 38 36 37 44 50 54 60 62 62 57 56 69 62 57 64 53 51 51 54 54 57 57 50 55 51 42 53 50 56 36 41
22 18 30 44 45 74 57 83 69 71 88 79 48 36 35 34 33 34 36 38 36 40 46 52 58 63 61 64 57 69 84 75 69 47 46 49 55 52 52 57 57 59 45 54 52 46 49 55 42
20 15 22 29 38 55 63 44 59 75 70 63 49 36 30 31 30 33 35 36 35 37 42 47 59 64 60 66 62 56 59 74 44 45 68 60 61 56 50 58 59 61 46 58 57 58 59 43 42
16 17 21 26 31 43 39 38 54 50 55 45 47 40 34 29 29 31 32 35 36 36 40 45 60 68 65 65 66 67 64 58 81 68 56 48 46 52 56 55 60 61 55 57 52 59 58 56 52
19 20 29 30 29 25 29 35 33 37 50 42 51 46 38 30 30 31 36 38 39 41 44 47 58 66 64 62 61 63 63 66 62 67 73 50 66 57 58 63 68 55 62 57 55 60 61 56 49
23 18 25 43 30 24 29 38 31 33 42 46 38 44 39 36 30 31 51 59 62 44 48 65 67 63 62 62 65 65 65 50 60 53 51 75 54 48 54 56 55 57 57 57 60 49 45 52 48
19 24 16 20 22 21 25 26 49 48 50 46 43 41 38 40 36 34 38 42 50 68 62 70 73 60 59 55 61 65 71 67 52 64 62 73 72 47 55 53 54 53 56 58 61 46 56 56 55
12 13 20 19 33 30 25 28 26 55 52 68 47 42 36 41 42 40 39 47 61 74 83 69 58 79 65 59 55 62 56 57 56 59 67 66 55 64 61 56 54 54 56 62 69 52 56 61 50
14 14 12 14 17 21 24 24 34 39 51 67 70 72 62 48 49 52 50 49 52 71 84 94 91 74 68 70 66 71 60 51 55 56 56 59 60 64 70 66 58 59 58 57 66 65 57 61 59
10 12 13 14 25 18 18 29 42 44 48 56 71 72 77 78 82 76 64 64 73 70 82 88 94 94 89 69 77 72 62 60 52 57 56 62 62 68 68 63 67 66 56 58 62 60 54 62 58

GFSSGP_sfc_rhum_099.txt.gz
RH
52 37 30 38 75 49 38 33 26 27 23 17 15 20 29 33 35 46 28 28 31 32 42 53 73 69 74 72 74 77 77 76 77 76 75 73 73 76 75 74 76 74 74 74 74 73 66 66 71
29 32 37 37 70 44 41 28 30 25 21 18 21 29 34 34 29 32 33 31 35 34 36 37 78 76 72 70 73 74 73 75 76 76 76 74 74 74 74 72 73 73 73 69 67 66 69 69 72
39 44 52 68 70 51 36 28 27 23 19 19 32 35 31 37 30 31 29 37 35 56 32 57 76 75 74 75 73 74 73 74 75 75 75 74 73 73 71 72 72 70 71 72 72 72 71 69 71
32 43 48 68 72 37 28 28 24 24 26 27 33 38 28 28 30 28 31 40 42 39 38 64 74 73 74 75 74 72 73 74 75 75 74 73 72 72 74 71 70 70 69 70 71 71 69 71 71
40 40 55 77 46 35 29 23 23 28 34 39 35 34 37 31 29 32 38 39 29 34 35 46 76 75 74 74 73 73 73 74 74 74 74 72 72 73 72 70 70 70 71 71 71 73 73 70 72
55 61 50 57 47 36 30 23 27 36 40 35 34 34 39 30 36 34 38 29 28 45 36 44 72 74 73 74 74 74 73 74 74 74 72 73 75 73 72 70 70 70 70 71 71 70 68 70 70
58 84 68 50 48 40 36 24 29 30 29 35 30 39 37 36 35 27 25 23 23 39 40 38 43 65 73 73 74 73 74 74 73 72 71 72 72 73 72 70 69 67 68 68 70 72 68 67 67
52 90 66 60 39 44 34 29 22 24 31 24 27 41 42 36 30 26 24 23 27 33 29 36 56 65 51 49 72 74 74 73 72 70 71 72 71 71 72 75 71 67 67 66 69 71 70 70 69
41 83 77 63 35 39 33 35 30 34 31 31 27 28 30 29 26 26 27 27 29 36 28 33 36 41 48 49 61 70 74 75 74 68 70 71 44 47 56 72 67 66 67 68 68 70 73 73 72
50 67 66 45 27 35 37 35 37 35 37 34 27 28 30 30 30 29 28 29 29 27 24 30 45 51 45 34 66 52 52 50 49 53 61 78 51 59 41 58 65 65 67 69 70 69 73 74 49
47 61 45 35 30 31 34 39 31 40 40 28 35 34 33 31 30 28 26 26 27 26 26 32 54 37 32 44 41 47 45 38 58 62 76 62 40 40 37 47 46 50 64 57 58 60 43 40 42
44 41 42 35 30 30 34 32 33 29 30 26 30 30 31 31 28 26 25 25 29 31 30 34 49 46 38 34 31 47 33 35 52 49 48 46 35 43 52 46 38 53 45 43 43 38 44 40 38
40 45 38 37 30 30 32 31 30 34 28 27 29 31 31 28 27 25 25 26 30 30 31 37 52 56 46 41 34 39 35 32 38 40 40 36 43 48 47 52 46 45 50 55 39 38 38 40 35
44 40 39 41 36 41 34 32 28 32 26 29 31 30 28 27 25 27 27 30 32 30 33 39 43 52 63 47 49 41 36 34 33 36 41 45 52 69 54 57 49 38 51 50 37 42 35 39 29
39 50 46 53 40 48 38 40 44 31 28 32 30 29 28 26 26 28 27 32 30 30 35 41 42 42 61 60 48 43 33 32 56 41 49 48 47 53 51 50 55 53 43 47 42 38 34 28 27
47 54 74 60 38 50 45 69 40 31 32 32 28 28 27 26 25 25 28 30 31 32 41 39 34 38 45 63 60 62 41 42 44 45 43 51 54 51 54 41 61 39 48 33 37 31 29 29 28
52 80 66 67 47 66 58 74 52 32 31 29 28 28 26 28 26 27 28 29 31 37 42 39 40 44 52 50 66 65 50 54 58 58 59 51 49 49 70 63 49 60 45 37 43 30 41 32 28
55 85 52 65 62 55 83 90 73 57 62 31 31 28 28 25 26 27 27 28 31 38 41 40 38 59 65 46 50 68 54 55 62 58 66 51 47 49 64 42 45 67 46 38 39 56 35 37 33
67 77 83 55 62 71 74 77 86 81 70 61 33 32 30 29 28 28 27 28 31 37 42 44 67 57 57 56 48 69 71 66 56 68 51 51 49 51 55 56 48 46 56 58 44 43 49 31 33
29 56 90 69 55 57 82 86 86 92 74 70 52 31 29 28 31 33 30 28 29 37 42 48 57 64 65 52 78 67 72 65 66 72 50 50 48 53 50 58 54 61 44 51 51 54 43 30 33
20 45 64 89 68 67 80 94 91 94 88 76 64 36 29 27 28 30 33 28 30 38 42 47 52 64 58 73 70 55 58 74 49 64 51 48 49 50 53 55 76 51 63 51 51 46 53 46 35
22 42 68 84 46 81 75 91 77 88 89 92 53 42 30 31 36 29 30 28 28 37 40 48 52 58 57 54 69 64 83 81 54 90 81 59 50 48 49 52 53 58 53 69 59 41 55 56 37
23 19 68 74 46 46 62 54 66 62 87 89 53 44 35 33 30 46 28 29 27 32 38 43 53 58 56 59 69 54 58 67 50 85 68 82 58 50 46 51 54 57 48 52 68 55 60 40 50
17 16 17 31 33 74 38 35 52 52 74 83 71 54 41 35 38 37 26 30 30 32 42 41 56 62 58 59 60 59 60 56 75 73 70 54 58 46 52 50 55 57 54 56 52 55 55 66 58
19 18 27 31 85 33 32 32 36 37 60 72 74 60 39 50 28 36 31 39 40 41 43 48 55 63 60 59 56 56 59 63 62 64 48 87 85 89 64 58 61 52 60 53 55 61 59 54 56
20 17 24 37 30 30 34 34 36 27 32 31 40 40 36 32 44 32 34 46 39 43 36 44 53 64 59 56 59 58 57 47 46 51 66 44 80 42 66 56 54 54 54 54 55 48 46 54 48
16 23 15 24 20 42 31 39 36 26 28 33 38 32 39 34 39 34 32 35 54 44 44 46 59 66 55 52 58 66 66 59 65 61 56 51 57 78 50 53 54 53 53 54 56 48 50 73 56
10 12 20 18 34 42 33 30 29 47 43 35 35 35 36 37 33 36 43 41 54 67 66 66 63 74 64 52 52 57 58 58 54 55 60 61 79 77 63 52 52 53 53 56 59 56 54 57 51
11 12 15 14 15 22 33 29 30 41 38 43 34 33 32 34 36 40 44 42 45 54 62 88 82 74 76 60 60 67 54 61 56 53 52 55 55 62 59 60 55 54 56 56 64 66 60 59 60
8 10 11 15 25 15 17 61 26 34 37 41 53 56 54 51 43 42 39 58 61 70 80 78 91 88 85 83 72 68 58 54 68 54 52 54 58 57 60 61 63 61 58 59 63 61 53 58 57

GFSSGP_sfc_rhum_102.txt.gz
RH
53 39 38 47 81 81 36 31 22 22 20 16 24 28 34 33 33 57 41 42 36 46 57 64 76 71 72 72 75 75 76 76 78 77 76 76 74 76 73 75 75 74 74 74 67 68 70 72 74
28 33 37 80 80 72 40 27 26 23 19 30 29 25 34 39 33 40 36 35 37 39 42 48 80 75 70 74 75 75 74 76 77 76 77 76 76 76 74 73 74 75 73 68 70 69 70 72 71
44 37 60 71 78 60 36 27 27 21 19 47 60 29 32 38 31 34 35 37 35 44 50 68 77 76 75 73 74 74 74 76 75 76 75 75 74 74 73 71 72 74 74 73 72 70 70 70 71
40 43 46 91 80 37 27 26 22 25 27 35 32 34 32 30 32 34 33 34 39 45 54 72 75 75 76 74 73 74 76 76 76 75 74 74 74 72 71 70 72 71 72 72 71 72 70 69 68
39 40 72 93 73 27 24 22 24 32 39 32 28 36 41 38 34 34 37 34 34 42 51 60 77 75 75 75 74 74 75 75 75 75 74 74 74 72 71 71 72 71 72 73 73 71 70 69 68
59 43 85 80 39 28 23 22 27 38 39 43 32 36 45 37 33 30 39 68 36 40 47 57 75 74 74 74 74 75 75 75 75 77 74 75 76 76 73 73 73 71 70 70 68 68 69 67 67
56 78 74 55 40 33 26 22 41 35 34 30 28 41 45 38 33 32 54 45 33 35 44 52 57 70 74 75 74 74 74 74 74 74 75 77 74 72 73 75 72 69 69 71 69 68 68 66 66
66 91 82 75 44 45 26 27 28 29 51 25 26 43 54 39 34 29 36 33 42 46 58 50 54 55 62 61 74 75 73 72 73 73 74 76 74 73 73 76 74 68 68 70 72 70 68 68 67
44 95 90 88 37 41 25 27 26 26 30 28 29 32 36 29 24 24 34 33 30 44 47 47 51 57 67 67 68 73 73 73 73 70 75 79 62 63 62 73 72 68 69 70 72 72 72 67 66
64 91 81 56 38 32 29 31 36 37 35 33 31 28 27 27 27 26 26 39 35 41 45 40 47 43 48 44 69 70 65 62 62 62 74 86 65 64 51 64 69 68 68 69 73 74 74 84 73
57 94 66 64 56 28 34 34 32 37 42 29 33 32 28 26 28 26 26 27 28 36 42 48 57 56 48 61 64 69 61 65 89 74 78 72 56 58 54 64 66 73 74 78 65 71 67 90 83
48 43 50 40 42 27 36 35 32 33 33 25 29 31 27 27 25 25 24 26 30 38 47 38 45 58 52 55 59 56 56 62 95 82 78 82 65 66 73 71 93 93 68 94 80 65 64 53 50
50 48 40 49 34 30 34 36 45 38 37 27 28 30 27 26 25 24 25 25 30 33 47 44 51 61 60 59 61 56 56 60 59 59 60 59 64 73 65 83 85 93 78 79 68 70 66 61 50
42 42 43 37 52 34 32 28 32 46 28 28 30 29 25 25 24 26 27 31 31 36 55 51 48 58 65 68 67 59 57 48 52 59 75 76 64 82 78 93 74 78 78 64 68 88 77 65 49
32 47 52 54 51 41 31 34 41 25 26 30 29 28 26 24 25 27 28 31 32 33 47 58 52 61 59 62 60 61 53 52 52 54 78 80 71 83 87 82 71 65 65 60 65 65 58 54 45
42 44 66 68 64 41 44 67 45 26 30 31 28 28 28 26 25 26 28 33 33 38 51 55 41 55 56 66 65 64 64 55 60 58 60 64 64 81 87 72 71 64 72 72 66 67 61 55 57
58 72 63 66 50 52 51 76 64 28 29 29 30 30 28 28 27 27 30 33 34 44 47 53 53 56 64 68 63 58 66 70 63 67 67 68 63 76 79 68 65 68 75 74 65 62 63 56 53
55 67 58 67 78 56 76 90 47 41 34 28 33 29 28 27 27 26 31 33 37 43 46 57 61 74 69 76 75 68 86 67 64 72 65 65 64 62 74 70 68 69 76 80 68 68 60 68 52
57 84 70 84 71 62 75 88 85 67 52 60 33 32 32 29 26 27 32 33 38 42 53 62 69 79 72 70 74 75 70 73 74 72 70 69 64 61 74 76 68 96 80 68 64 68 73 66 60
63 71 89 89 76 92 78 85 84 86 76 70 62 53 30 27 28 33 36 33 35 45 57 75 70 74 72 70 85 87 77 76 77 67 69 64 68 68 68 78 79 81 75 70 68 72 76 62 60
43 47 83 86 89 90 76 92 88 87 90 76 66 57 68 32 34 35 36 34 36 47 53 69 78 77 74 75 84 87 94 85 90 83 69 67 66 63 71 79 89 85 94 84 75 71 78 76 62
63 58 64 81 90 94 73 94 93 94 85 85 72 64 56 44 38 34 33 35 34 43 46 62 74 79 73 84 86 83 89 87 88 91 98 94 67 66 63 70 82 81 96 94 80 65 76 81 77
38 44 59 74 90 95 80 64 79 86 91 86 77 63 58 44 34 39 33 35 36 39 42 53 67 77 74 79 79 77 79 77 88 93 95 94 81 69 64 68 67 75 88 86 82 85 82 77 82
26 34 60 76 95 98 58 50 86 85 73 78 66 61 65 47 32 47 40 41 39 39 44 53 68 77 75 72 76 82 72 79 91 97 91 90 88 74 68 68 71 76 92 91 76 73 73 81 84
22 25 58 85 97 77 81 48 68 59 52 62 68 78 69 54 43 35 46 40 41 47 47 55 68 74 71 67 68 68 78 77 76 88 83 83 95 94 92 77 77 77 79 80 77 80 77 78 78
18 27 32 67 66 75 79 53 51 44 43 50 55 53 68 64 56 47 57 70 47 57 53 70 70 75 70 68 72 75 74 66 71 79 91 95 97 97 83 77 75 70 71 68 71 74 73 76 76
15 20 16 25 38 44 68 54 41 37 42 47 45 58 68 65 69 67 61 48 74 77 78 71 73 72 71 63 71 72 70 70 76 74 73 76 94 94 94 89 72 72 73 69 75 74 78 90 90
12 12 18 37 45 51 47 71 56 47 47 49 49 51 51 56 67 53 68 72 69 76 94 76 66 68 71 66 66 68 71 74 69 70 75 78 97 92 93 85 75 70 70 71 74 75 79 85 81
11 12 13 13 22 40 42 56 58 38 37 39 38 40 44 47 59 80 73 75 72 64 71 76 69 74 77 71 81 77 75 68 69 70 68 70 94 92 92 93 75 77 73 72 80 80 77 76 78
9 10 11 16 25 19 23 40 59 61 41 36 37 35 52 40 57 75 76 84 65 72 69 79 85 86 89 89 87 70 94 90 75 82 90 68 75 79 81 79 81 79 75 76 79 78 71 76 76

GFSSGP_sfc_rhum_105.txt.gz
RH
63 50 52 84 92 90 48 38 27 41 43 31 31 37 43 40 52 87 64 67 62 71 73 71 79 73 73 76 77 77 76 78 77 77 78 75 72 74 75 75 74 74 72 66 69 71 73 71 72
36 34 69 96 92 77 49 34 39 50 41 35 35 43 52 59 45 56 63 56 62 69 74 74 82 78 75 77 77 76 76 77 76 77 76 74 76 76 75 72 71 72 71 69 69 71 70 70 70
46 53 80 96 84 69 53 37 34 48 34 36 42 36 45 53 46 50 54 53 59 65 76 78 80 78 76 75 75 76 76 76 77 76 75 74 74 74 74 74 74 73 73 71 71 70 69 69 71
46 61 66 85 84 63 37 31 41 47 40 35 38 48 41 42 46 47 49 55 65 73 81 80 77 76 74 75 75 75 76 76 76 75 74 73 73 70 70 71 73 73 74 72 70 69 68 68 70
44 58 92 92 72 34 28 28 43 42 41 41 48 60 60 44 43 43 52 56 66 75 77 77 80 77 75 74 74 75 76 75 77 76 74 73 72 71 71 71 72 73 73 72 69 68 66 67 70
65 61 95 89 59 31 29 32 42 44 39 46 53 56 60 44 45 56 63 60 61 69 76 74 76 76 75 74 76 76 76 76 76 75 75 75 74 75 74 72 72 69 69 68 67 67 66 66 66
74 88 86 67 37 36 31 32 44 46 36 46 48 63 59 51 55 58 63 56 57 63 75 77 77 74 75 75 76 76 75 75 75 74 76 76 73 72 72 72 71 70 67 66 65 65 65 64 64
84 96 92 74 37 40 28 37 36 36 37 39 40 59 66 52 53 52 60 62 55 61 70 74 80 82 85 80 75 74 74 73 74 75 76 76 72 70 72 78 74 69 70 68 66 63 63 62 62
72 93 94 81 41 38 43 52 38 34 33 41 36 42 44 40 42 51 54 55 54 56 64 69 71 82 84 85 75 75 73 73 74 77 75 82 86 77 75 76 72 67 68 69 68 67 67 67 67
79 97 88 70 66 48 33 41 41 40 37 42 45 38 38 38 42 48 48 59 58 63 65 69 67 74 76 62 85 87 82 88 89 86 85 91 86 84 73 75 70 67 68 68 71 71 69 71 83
82 93 82 63 61 67 35 42 36 43 52 43 48 41 36 33 37 40 40 55 58 56 56 58 60 66 68 73 84 85 84 88 94 89 90 91 93 78 87 94 94 91 64 80 72 83 76 75 76
69 70 76 69 81 65 43 37 39 45 41 35 37 36 32 31 34 36 42 52 51 52 57 57 59 63 71 78 80 80 80 75 85 88 87 88 75 83 95 91 89 94 95 88 88 94 78 73 74
57 55 75 77 71 66 36 38 44 40 34 32 31 32 33 30 32 34 36 49 54 53 55 63 68 71 62 71 75 71 75 76 73 92 79 91 85 96 92 86 89 95 96 98 91 79 70 73 56
50 62 71 71 84 87 43 49 39 41 34 35 34 34 30 29 30 33 36 53 57 56 61 61 66 64 66 63 64 64 68 74 78 90 87 76 91 89 92 94 96 98 98 85 78 68 69 70 54
53 64 59 83 80 68 50 51 49 38 33 37 36 34 29 31 33 38 39 52 62 56 61 64 66 61 61 68 66 70 65 61 75 80 68 76 78 84 88 94 96 88 94 72 70 67 74 73 58
51 63 77 73 81 74 57 70 53 44 37 40 35 33 30 33 35 38 36 40 58 59 64 59 43 64 64 66 71 66 65 75 69 77 80 80 81 76 85 86 82 79 74 80 72 72 71 71 77
76 86 76 79 88 86 60 70 55 42 36 38 36 36 32 33 35 40 36 40 54 59 65 61 64 66 70 74 75 82 72 78 75 74 74 68 77 82 79 83 75 83 85 86 76 70 61 64 64
73 80 66 81 95 85 80 79 72 65 38 37 34 37 34 34 35 39 38 45 49 59 56 60 70 66 79 86 87 90 82 74 79 78 76 73 75 76 72 86 90 78 88 88 76 72 68 64 62
66 74 79 90 90 91 85 84 86 82 69 69 38 43 35 34 34 39 41 45 47 55 56 72 77 82 77 77 87 85 82 75 78 74 70 68 70 70 76 93 81 79 94 85 73 73 77 73 70
59 74 85 92 84 82 88 86 84 87 80 80 71 62 50 35 33 42 46 46 47 63 58 73 80 78 80 85 90 92 88 88 84 80 76 72 67 69 71 92 93 88 94 91 77 74 79 77 68
60 69 80 79 89 87 93 95 86 80 84 79 67 65 66 53 39 45 48 47 50 66 72 81 86 84 84 88 88 92 89 92 94 92 92 83 72 69 74 89 93 88 90 75 85 89 83 92 76
70 58 66 79 83 94 95 98 95 87 81 75 72 63 67 68 46 43 45 46 50 58 66 74 76 88 84 87 86 87 92 90 94 94 94 92 81 71 72 76 80 81 83 73 87 78 86 86 89
69 58 61 66 92 88 88 99 94 88 83 71 63 62 65 59 47 40 40 45 48 56 62 72 82 87 85 87 88 92 88 88 95 95 88 83 91 78 67 78 83 88 92 92 93 84 85 91 90
49 61 70 81 92 96 82 93 94 88 71 61 59 63 62 64 57 54 39 42 50 51 64 71 81 85 88 87 84 85 86 94 95 94 94 94 94 92 90 70 82 93 85 73 84 89 83 85 90
60 77 94 95 93 90 78 84 83 65 67 62 64 63 61 70 68 54 48 58 44 50 60 74 80 90 85 85 81 80 85 86 89 90 90 92 95 95 93 93 83 86 81 78 87 81 80 83 87
59 54 76 79 92 86 73 87 81 54 53 55 58 58 66 68 66 66 48 76 78 55 60 73 84 91 85 85 85 82 83 86 92 92 97 96 96 97 96 93 88 81 84 81 84 80 80 87 85
27 43 34 72 78 80 88 82 76 55 61 55 61 65 72 68 70 69 63 83 87 95 70 79 89 89 87 80 86 83 88 85 84 86 97 98 98 94 93 89 82 83 78 76 81 84 82 82 78
18 22 36 51 84 86 84 91 90 61 69 60 60 56 50 55 61 70 77 86 92 97 92 84 89 88 85 80 84 83 82 84 83 91 97 96 94 92 90 85 86 84 81 77 80 85 86 86 74
20 30 28 45 45 58 86 82 71 62 54 58 52 51 52 56 62 76 82 88 88 92 91 80 84 88 88 87 89 90 90 88 83 85 86 94 94 89 86 88 92 88 80 81 81 84 81 80 86
16 18 21 32 36 44 41 90 66 59 57 48 53 56 58 51 54 79 85 90 91 87 92 90 88 88 90 91 95 93 96 91 92 90 89 91 93 91 90 92 93 86 83 83 86 85 80 86 85

GFSSGP_sfc_rhum_108.txt.gz
RH
65 57 62 86 89 91 58 50 43 47 42 35 31 44 48 49 56 78 79 77 74 79 79 74 80 74 74 76 77 76 77 77 78 76 77 75 74 74 75 75 75 72 70 72 72 72 72 70 68
44 40 80 89 89 66 62 51 57 50 47 44 43 48 57 72 64 86 85 70 73 80 85 81 82 76 77 78 78 76 76 76 76 75 75 74 76 76 74 75 69 68 68 71 71 70 70 70 67
45 55 76 90 90 80 58 55 52 46 42 42 52 47 54 77 73 71 71 70 76 84 86 84 79 78 77 77 77 77 77 76 76 74 76 75 76 73 72 69 72 71 71 72 70 69 70 71 70
47 72 77 80 79 63 41 57 49 47 46 45 47 59 54 50 56 61 65 72 76 88 90 78 74 76 76 76 77 77 76 77 76 76 74 73 72 71 71 72 72 72 71 69 69 69 70 70 70
46 71 91 86 81 48 43 48 45 55 59 56 52 63 69 59 57 64 69 70 87 93 87 78 79 76 76 75 75 76 76 76 76 74 73 72 71 72 72 72 72 72 71 70 67 66 68 68 70
72 72 88 78 63 36 43 44 44 56 58 58 60 62 73 58 64 65 69 78 80 86 86 79 78 76 75 75 76 77 76 76 76 74 73 73 74 73 72 71 71 72 72 66 66 66 65 66 70
75 86 86 78 44 42 42 39 49 57 55 55 49 72 69 66 61 64 72 75 77 81 86 86 80 75 75 76 76 77 76 77 76 75 74 74 74 72 71 71 68 64 64 63 62 62 63 65 66
85 86 79 77 39 45 39 46 41 50 57 43 45 67 78 69 61 58 69 74 78 82 86 91 91 89 88 83 75 74 75 74 75 76 74 74 72 70 70 77 73 68 65 62 62 62 63 62 64
77 91 94 74 40 48 46 46 38 40 49 42 39 48 52 54 58 62 69 74 88 77 86 92 92 94 92 88 76 75 74 74 75 76 74 81 90 82 80 75 70 68 66 64 63 62 62 64 65
79 94 89 71 67 66 54 58 41 51 50 48 41 51 53 53 58 64 66 73 87 80 84 87 90 93 90 72 90 90 84 93 94 94 92 94 91 91 82 76 70 68 70 70 68 68 69 71 83
78 92 78 69 61 59 62 56 40 51 52 43 48 56 53 54 59 61 62 65 72 73 73 79 84 88 84 88 95 95 92 91 94 89 91 91 92 90 92 90 89 87 71 78 73 79 86 78 78
83 76 75 61 58 67 68 49 45 58 50 38 40 44 47 51 55 59 57 64 67 67 66 70 74 78 82 91 91 88 88 85 94 94 92 91 86 94 87 86 83 86 93 86 88 86 80 81 77
74 73 69 78 76 69 67 65 47 49 42 37 39 40 47 50 48 51 54 58 58 63 63 70 68 76 84 92 89 94 92 72 89 92 87 91 83 94 86 85 92 91 95 96 95 91 83 81 73
52 61 79 89 78 77 77 61 47 45 42 38 40 40 38 40 50 55 54 58 55 61 70 74 70 68 75 82 81 84 87 79 85 94 88 86 93 93 91 87 93 94 97 96 92 92 76 73 70
50 71 91 90 85 90 70 67 58 42 36 40 39 36 31 39 48 55 56 56 58 63 69 68 67 67 72 70 89 75 79 77 93 85 87 88 91 92 90 95 96 97 97 94 92 85 74 73 67
58 77 83 81 82 78 92 79 51 40 40 39 38 36 35 41 48 55 55 56 59 64 68 64 53 60 70 66 80 73 76 80 84 80 87 86 85 82 91 93 94 95 92 96 97 91 76 75 79
73 86 77 99 87 95 89 84 54 44 44 41 41 41 38 42 42 54 59 58 60 63 66 63 67 66 78 84 80 80 73 76 81 83 83 78 80 85 88 95 92 97 98 96 85 84 71 69 67
75 73 82 89 93 90 91 88 67 57 44 43 44 38 39 43 44 54 59 56 59 62 65 69 72 81 84 94 94 95 90 83 82 82 82 79 77 77 89 93 88 82 90 89 77 76 79 70 68
67 83 89 89 85 86 96 92 95 79 54 58 49 42 41 45 41 50 56 56 62 63 67 72 78 82 78 86 90 84 88 86 85 81 77 73 76 83 87 92 88 89 92 94 82 78 79 74 76
73 89 92 84 84 79 93 92 80 85 86 78 67 44 39 44 46 54 54 55 58 64 67 78 78 82 81 87 93 94 92 90 86 91 82 77 73 79 87 90 89 90 90 82 84 90 83 78 77
70 73 89 81 82 85 90 94 83 82 86 77 73 70 63 43 55 55 52 52 61 66 74 74 83 85 89 92 92 93 94 94 92 93 92 85 86 81 87 87 88 90 92 70 87 95 90 91 84
87 62 65 83 84 95 90 97 96 90 86 82 72 66 69 59 53 53 53 53 61 65 71 76 80 92 89 88 88 86 91 91 94 94 93 89 74 86 84 80 84 86 83 84 89 91 94 88 91
79 58 65 74 92 93 88 92 94 95 87 79 70 65 66 65 52 53 53 51 60 64 69 76 81 91 91 90 88 93 92 85 95 94 89 85 86 82 81 75 85 86 92 90 91 90 94 94 93
54 67 71 76 92 95 82 85 94 95 83 69 61 67 62 63 59 56 51 52 56 62 71 81 88 89 92 88 90 90 89 92 95 94 95 95 94 93 89 79 89 89 86 79 83 90 84 91 94
68 85 97 94 92 89 89 90 85 74 70 61 59 77 66 67 67 63 56 61 60 63 72 80 87 92 93 86 87 86 90 92 90 92 91 94 95 94 89 88 93 89 82 75 86 87 84 88 91
73 66 72 80 96 87 84 88 80 62 52 49 50 59 69 69 68 65 61 66 67 66 70 75 86 92 94 86 86 84 90 92 93 93 96 96 95 94 92 92 91 88 87 83 88 88 87 90 89
67 59 49 76 86 88 88 79 72 57 64 59 59 56 67 66 73 70 70 81 88 82 79 78 87 89 91 85 87 89 88 91 93 94 95 97 94 93 92 90 84 79 85 86 87 88 84 89 86
42 37 52 66 87 93 88 86 88 61 64 68 68 63 64 69 78 76 81 87 93 94 96 94 88 87 86 90 83 85 94 89 91 96 96 96 95 92 94 91 83 76 82 85 87 91 88 84 88
22 34 38 50 64 82 95 89 72 57 57 69 68 62 63 60 70 87 94 94 94 88 90 95 96 90 90 87 94 93 93 91 93 94 94 94 92 90 92 88 82 87 88 85 89 89 88 82 84
18 21 31 36 34 56 59 78 52 55 51 61 62 62 60 54 66 87 89 91 93 91 91 91 96 96 93 95 95 95 95 92 92 94 95 95 94 91 87 88 92 93 86 88 88 85 87 86 87

GFSSGP_sfc_rhum_114.txt.gz
RH
68 72 74 90 81 84 77 69 52 52 52 44 43 50 61 74 68 66 88 80 74 77 78 72 75 75 77 78 77 75 76 77 75 73 74 74 74 75 76 74 73 72 73 74 72 71 71 71 71
64 58 81 90 85 89 85 65 62 61 51 44 52 56 71 83 83 95 81 77 74 86 92 84 81 78 78 78 77 75 74 77 75 74 75 75 76 76 69 68 71 72 74 73 73 70 71 70 72
50 51 78 88 88 86 82 68 71 58 51 52 63 59 66 87 81 81 86 84 88 95 92 87 76 77 77 76 76 74 72 75 73 76 75 75 76 71 69 69 70 72 72 71 74 74 73 73 74
50 79 74 80 78 69 66 68 64 63 57 57 60 75 68 66 73 80 86 88 94 95 92 78 74 74 76 76 76 76 73 75 76 75 75 73 71 73 73 72 72 70 70 74 72 75 74 74 73
55 72 83 81 76 59 58 58 64 70 69 66 64 83 86 76 77 85 89 87 94 96 92 80 76 76 76 75 75 76 75 76 75 75 73 72 72 72 74 73 72 70 69 70 71 71 69 71 72
78 70 83 82 58 61 58 61 64 70 71 70 71 83 92 80 85 85 87 94 91 95 90 85 75 73 76 74 76 77 75 74 75 72 72 72 74 73 75 73 73 67 67 68 69 70 71 71 71
81 82 82 66 64 64 60 58 67 68 65 69 65 94 94 86 84 88 94 96 94 92 92 90 85 77 76 75 76 76 75 74 74 74 74 74 73 73 69 68 66 64 64 65 66 67 69 71 71
85 83 78 76 60 66 60 60 60 59 69 56 60 91 98 87 86 90 94 97 97 95 93 94 91 88 89 86 75 75 75 74 73 74 73 73 72 72 75 78 70 64 63 63 64 66 68 69 71
75 88 86 76 47 70 56 63 55 54 59 56 55 70 74 80 85 92 98 98 98 93 97 96 94 94 94 91 85 78 75 74 73 75 75 86 92 88 82 72 69 70 68 64 64 65 67 73 72
79 86 78 72 68 72 65 58 60 62 62 66 73 75 77 84 86 94 97 90 99 99 98 97 96 95 93 87 94 93 85 95 94 94 92 95 90 91 85 80 76 72 70 68 72 71 75 77 72
83 83 78 64 63 68 70 59 53 61 67 62 77 84 83 84 84 90 92 95 97 96 96 97 96 96 95 96 95 95 95 96 97 92 94 92 93 86 90 90 88 86 75 80 75 77 75 79 79
76 73 70 89 83 57 68 66 58 56 53 52 64 74 78 82 83 81 81 89 93 95 95 94 95 96 94 95 98 94 92 92 94 94 90 94 90 87 88 80 83 86 90 88 88 87 80 76 76
77 72 70 87 77 63 68 66 66 57 49 53 63 70 77 77 77 76 73 79 88 94 90 92 94 96 94 96 95 96 94 88 91 92 90 94 94 93 85 88 91 90 92 92 88 83 80 76 71
68 72 78 75 74 71 75 64 62 57 48 58 67 72 71 73 72 72 75 80 86 86 86 88 90 91 93 95 95 96 89 85 90 93 92 88 93 93 88 88 90 93 94 87 86 86 82 76 72
72 83 81 87 79 80 79 72 75 61 55 59 65 68 68 69 67 69 70 75 79 81 81 85 85 83 90 93 94 94 89 79 92 94 89 91 87 89 91 92 93 93 88 90 88 85 83 76 70
77 79 88 88 89 84 77 87 72 71 57 64 63 63 65 67 66 65 67 71 74 77 83 82 66 78 86 91 91 91 89 94 88 86 90 89 89 88 91 92 93 91 90 90 92 89 79 78 76
76 91 88 88 88 87 87 89 84 69 55 63 63 61 62 65 66 65 64 66 70 77 82 83 78 81 85 87 88 88 86 94 87 84 94 84 83 85 89 93 91 92 94 95 85 90 80 76 71
81 95 86 88 91 84 91 89 89 76 72 57 55 59 62 61 66 63 63 60 71 79 80 80 83 86 87 93 95 95 91 95 88 90 95 85 85 87 93 90 88 92 94 88 84 83 83 76 75
76 85 91 85 85 86 91 93 95 83 80 66 54 54 58 61 60 61 60 61 72 76 79 84 89 93 89 91 93 94 91 90 90 91 88 91 89 89 92 91 81 91 89 86 87 86 82 81 81
82 90 95 86 84 82 93 91 92 86 89 79 62 55 58 65 69 67 62 61 71 75 80 87 88 93 87 88 92 93 93 92 88 93 90 88 89 89 88 89 88 89 84 85 88 88 84 83 86
86 81 93 83 88 88 89 92 93 90 90 83 77 60 58 64 72 69 69 66 71 73 80 85 90 89 89 90 93 96 95 96 94 94 93 90 86 87 88 90 91 90 86 82 90 90 86 89 83
84 69 73 90 90 94 89 95 97 88 93 91 80 69 56 57 65 68 69 70 70 70 76 83 89 90 89 93 90 90 91 92 95 95 95 92 80 87 86 85 85 86 82 87 90 88 88 86 83
59 69 82 82 91 94 95 96 90 94 94 86 82 77 53 54 62 68 66 66 65 66 76 80 90 92 92 92 90 92 92 89 94 94 91 91 87 83 84 85 88 87 93 90 88 88 92 91 87
66 77 83 86 94 97 90 89 95 95 85 79 72 76 66 51 60 65 60 64 66 70 77 81 89 92 93 91 90 90 90 92 95 95 93 94 93 90 87 84 85 88 88 85 87 89 87 90 91
78 84 96 93 97 91 92 92 82 78 87 79 80 77 70 55 62 66 62 67 70 79 79 82 87 92 93 91 90 89 89 91 91 92 90 93 95 95 92 89 93 90 88 84 81 88 85 86 92
86 71 86 74 92 89 92 93 79 58 60 65 58 66 70 65 58 64 60 67 71 74 79 81 88 89 93 91 91 91 90 89 92 92 95 95 96 94 88 89 92 90 86 79 85 87 83 88 87
77 80 71 87 92 90 91 80 67 68 75 78 75 74 76 73 68 64 62 65 77 78 78 82 88 89 92 90 92 92 91 91 92 92 93 95 94 91 90 89 90 88 88 87 89 88 84 86 86
66 59 71 89 88 88 85 85 84 77 74 82 79 74 73 75 74 66 66 69 78 81 84 84 86 87 87 91 89 88 90 91 93 93 93 94 95 94 92 91 88 88 86 87 91 92 87 88 83
45 66 63 71 84 87 84 71 68 64 63 79 66 63 59 65 75 73 69 73 78 81 86 89 91 90 92 92 94 93 93 92 91 93 95 93 92 92 92 92 91 88 85 86 90 93 90 89 88
38 53 50 62 51 86 78 68 72 59 55 57 59 58 62 58 65 75 73 84 88 87 88 89 92 91 91 93 94 94 94 94 94 93 92 93 94 90 90 90 92 90 91 91 92 90 88 90 89

GFSSGP_sfc_rhum_117.txt.gz
RH
52 58 55 71 60 51 54 44 40 40 43 37 38 43 44 56 48 54 50 49 46 63 70 69 71 70 73 77 75 79 76 72 72 74 75 75 75 76 76 72 74 75 74 72 71 72 72 74 74
50 57 61 77 64 49 56 50 44 38 36 39 43 47 53 66 65 61 56 47 42 48 71 60 77 70 69 78 76 75 75 75 75 76 76 75 75 70 71 73 74 74 74 74 72 71 71 74 74
40 45 65 73 65 54 54 51 49 45 37 40 54 48 51 65 60 49 50 48 48 56 51 57 75 77 76 77 75 74 74 72 76 76 75 75 71 68 68 71 72 73 74 76 73 68 71 74 74
41 58 58 66 61 54 52 51 48 49 45 48 45 52 55 50 50 53 52 51 49 55 50 65 77 76 76 76 76 73 75 75 75 75 71 70 75 73 73 73 70 71 73 74 72 70 72 72 73
40 55 67 68 56 50 49 46 46 53 55 51 44 55 57 66 61 56 55 50 52 53 52 49 76 74 75 75 76 75 75 76 75 75 73 73 73 72 71 71 70 70 72 73 70 70 71 71 71
61 54 58 66 51 49 49 47 49 53 56 54 51 55 68 67 63 58 53 54 50 50 56 57 73 75 74 74 76 74 75 76 75 73 72 75 74 74 72 72 67 69 70 69 70 72 71 73 72
62 72 64 50 56 52 52 47 49 50 54 56 50 54 71 67 63 58 57 58 52 54 54 59 57 66 73 74 75 76 73 74 74 74 73 74 71 70 69 66 66 66 67 67 68 70 72 72 71
60 70 58 51 52 52 52 51 48 46 57 44 42 55 60 64 64 58 58 55 64 63 57 64 58 60 62 64 74 74 74 73 75 75 74 73 74 72 71 73 69 64 64 65 66 68 70 72 72
58 66 64 55 50 57 49 54 46 46 46 46 50 46 48 61 60 58 61 62 70 65 58 58 58 67 77 72 71 74 74 72 73 74 81 76 60 61 58 70 68 65 63 63 65 66 70 70 70
68 68 68 69 67 71 50 48 52 49 48 58 61 57 60 62 61 62 60 66 72 64 63 59 63 63 69 65 74 76 65 70 70 70 74 68 66 66 64 70 73 71 68 70 70 70 71 62 46
79 74 69 77 74 78 64 50 46 46 50 50 55 63 62 62 62 58 54 58 62 61 62 64 69 70 73 73 64 65 61 64 68 73 71 71 68 59 54 56 54 55 61 49 49 49 45 56 50
60 61 60 73 68 76 67 51 48 51 42 39 45 54 59 60 58 54 55 57 58 64 64 65 66 73 78 63 67 62 59 58 58 65 73 68 56 60 59 46 53 60 57 62 58 49 56 54 54
55 64 68 64 58 60 59 52 56 47 48 45 52 57 56 56 54 52 51 52 55 59 62 64 70 76 76 77 67 68 62 53 56 63 67 66 61 64 55 62 59 61 59 59 58 54 52 55 47
57 62 72 72 74 64 64 54 55 45 45 57 56 55 54 55 51 52 56 56 56 56 61 63 68 73 72 73 78 70 60 56 59 60 63 70 62 66 57 59 60 60 60 56 57 57 55 52 41
56 77 74 77 70 71 63 60 60 46 48 60 54 56 54 53 51 52 51 54 54 55 59 64 65 66 72 73 72 68 60 54 58 62 70 70 66 67 72 61 62 58 59 68 62 59 57 46 38
59 57 69 80 74 88 63 84 65 53 51 63 52 56 56 54 51 50 49 50 53 54 65 64 51 58 64 68 69 63 60 59 57 62 62 71 68 71 71 62 59 58 65 62 60 55 49 46 42
61 56 76 83 78 81 71 80 70 65 51 47 52 53 52 54 54 52 48 50 52 56 62 65 62 61 64 73 66 65 68 60 60 59 64 70 67 68 67 62 60 70 64 62 54 58 54 47 44
53 64 72 74 80 68 86 87 84 75 54 49 54 53 52 51 50 49 48 48 51 56 60 63 61 66 71 69 74 66 62 63 60 60 65 67 62 68 72 63 64 65 60 57 55 65 58 52 48
38 55 62 74 76 78 75 83 84 80 63 57 63 62 49 48 45 47 48 48 51 56 60 64 66 72 69 68 67 66 84 64 63 61 72 70 69 72 74 62 59 64 62 69 67 58 64 54 56
41 50 67 76 78 73 79 74 86 93 71 58 64 69 48 47 47 51 50 48 51 57 61 66 69 74 73 64 68 62 66 61 58 66 72 69 68 73 69 71 62 69 57 70 70 68 54 55 60
46 36 64 63 78 72 72 73 82 92 85 68 71 50 43 44 47 51 52 49 51 57 62 66 72 76 73 72 70 73 71 88 67 68 66 70 69 70 71 70 69 69 63 58 71 66 66 54 59
33 42 55 76 74 71 74 71 81 83 88 69 62 54 46 42 46 47 49 51 50 54 58 64 72 76 73 75 69 81 66 62 78 88 80 65 68 70 66 69 68 72 57 71 67 63 64 66 57
23 49 56 66 71 71 79 83 68 75 88 72 63 50 47 42 42 46 48 48 47 51 56 60 71 76 72 76 72 62 81 57 67 70 80 74 72 68 65 70 71 70 59 72 73 70 73 59 54
52 58 61 66 70 77 56 67 59 79 75 62 55 48 44 43 40 45 44 47 49 50 54 57 70 78 76 76 74 76 78 80 67 84 67 71 63 60 70 69 70 72 68 70 67 73 73 70 65
52 49 58 65 77 58 71 76 58 55 56 51 52 50 49 45 41 45 50 52 53 54 56 59 68 74 74 73 71 72 72 74 78 76 88 81 89 79 78 81 76 69 73 69 68 75 74 70 65
46 33 26 42 50 58 72 76 48 45 43 52 51 53 56 46 40 45 50 53 56 56 57 60 65 71 72 72 75 75 74 61 61 70 75 64 63 63 69 71 77 76 72 68 69 59 61 68 64
52 49 33 49 61 66 62 57 44 46 48 61 66 58 61 58 46 46 49 59 57 57 59 60 64 67 69 66 72 75 74 74 66 74 73 64 73 66 74 71 70 70 72 70 72 57 68 70 69
43 39 55 62 55 49 49 60 53 57 60 61 64 65 56 60 57 49 50 51 55 57 60 60 60 65 65 65 67 67 68 74 73 73 77 77 74 77 77 74 73 73 73 73 78 79 70 73 62
42 42 46 51 51 40 46 34 45 51 53 67 65 60 55 63 65 64 66 66 64 59 60 67 66 67 67 69 70 72 70 71 74 75 75 77 79 78 79 76 72 74 73 72 76 81 75 75 72
32 33 32 35 46 44 47 32 57 53 46 58 62 62 61 70 66 65 70 75 64 62 62 66 71 70 69 68 75 77 77 76 74 77 76 80 80 76 76 76 75 73 74 72 74 73 66 73 74

GFSSGP_sfc_rhum_120.txt.gz
RH
46 39 35 50 44 26 34 35 30 33 35 29 29 31 33 39 39 50 31 33 52 57 59 62 71 72 76 77 78 74 72 73 75 76 76 74 74 74 72 75 75 74 72 72 72 74 73 74 74
32 42 41 45 36 31 38 33 34 32 30 32 32 32 34 46 36 38 36 36 53 39 40 52 75 70 74 77 75 75 74 75 75 75 76 74 72 73 73 74 74 75 72 71 71 72 73 73 75
33 40 49 47 34 33 35 34 32 33 31 35 41 34 36 46 36 34 30 31 31 38 33 48 72 72 75 75 75 74 72 76 74 73 73 68 67 68 73 74 76 74 70 69 70 71 72 72 73
30 41 46 50 38 40 32 33 33 35 33 37 35 42 38 32 34 32 31 30 32 34 32 60 74 74 75 74 72 73 74 75 74 71 71 75 74 73 72 71 74 73 73 71 71 73 71 71 70
28 36 43 55 43 36 31 32 35 39 40 39 30 36 47 44 34 33 33 31 31 31 32 40 74 75 75 74 72 74 75 75 76 74 73 73 71 70 70 69 70 72 70 70 71 70 70 70 71
40 34 42 65 40 37 35 35 37 39 40 38 32 37 47 41 36 34 31 31 29 30 31 42 71 74 73 75 74 75 74 74 75 73 72 73 72 71 71 68 70 70 69 69 71 73 73 71 69
44 40 42 34 40 40 42 35 36 37 38 35 32 39 43 39 35 33 33 32 30 32 34 38 42 63 73 74 74 74 73 74 75 73 70 72 72 70 66 67 68 68 67 69 70 72 72 72 71
38 37 41 36 37 43 39 38 34 34 41 32 28 36 47 44 38 34 34 32 35 35 35 40 39 39 46 48 73 74 75 73 73 72 72 73 68 66 66 71 68 65 66 67 68 70 73 72 72
42 52 41 39 34 45 37 40 36 34 33 30 34 27 32 39 37 37 37 37 40 38 36 35 37 48 61 58 61 69 72 71 72 70 72 63 40 44 49 67 64 63 63 64 64 67 69 69 70
50 49 53 49 57 59 40 37 38 34 34 39 37 33 37 38 40 39 37 39 39 37 34 35 40 43 48 44 59 61 46 42 45 47 52 43 45 51 47 63 70 71 70 70 71 69 67 64 31
69 74 52 64 65 61 53 39 35 36 37 34 37 40 38 38 39 37 35 36 35 36 35 37 43 47 46 50 44 46 40 43 48 55 47 48 43 42 40 45 43 43 58 35 43 43 33 42 33
51 49 55 52 59 65 60 38 40 36 36 28 28 34 36 38 37 34 34 34 36 40 40 38 42 51 49 43 39 38 39 39 39 46 54 52 40 44 45 36 43 45 37 44 42 34 44 42 39
40 44 57 45 44 52 43 44 42 39 33 26 30 35 36 34 36 33 32 33 36 39 40 40 47 57 57 54 43 40 41 36 39 43 51 43 40 46 41 47 40 43 39 39 41 39 39 39 34
38 46 53 52 51 48 44 43 41 36 34 32 35 35 34 33 33 37 34 36 38 39 42 42 47 56 54 52 56 48 40 39 39 41 45 54 40 49 42 46 41 41 40 38 38 41 38 32 31
42 56 57 61 57 59 54 54 55 35 35 37 35 34 33 33 33 37 35 35 36 37 42 46 48 50 56 57 64 46 40 37 40 42 54 54 50 55 58 44 42 41 46 52 46 43 38 30 29
41 40 52 60 58 61 62 66 64 39 39 41 35 33 35 36 34 36 35 31 34 37 46 47 38 45 52 54 54 43 40 40 40 42 45 54 56 57 57 42 41 45 50 40 37 34 32 32 31
34 30 45 66 60 65 64 71 65 55 40 44 46 33 33 37 38 38 35 34 34 39 47 48 44 47 52 59 50 48 53 44 43 43 43 57 53 55 50 41 43 55 44 42 36 36 35 34 31
26 33 38 45 63 59 55 60 75 61 47 39 38 32 31 34 37 37 36 34 34 40 46 48 47 53 57 55 59 45 44 44 42 43 43 54 50 55 54 43 51 49 40 40 40 47 40 36 33
24 28 33 51 60 58 53 54 71 70 63 45 36 41 30 31 32 35 36 35 36 41 47 53 54 62 56 54 48 46 47 46 44 43 55 57 54 58 60 42 47 48 45 53 51 45 50 38 42
22 25 32 54 60 57 55 57 50 61 63 50 39 57 34 28 30 36 37 36 36 41 47 55 57 64 64 54 59 45 45 43 42 44 53 51 54 57 54 58 48 56 42 57 55 56 38 38 40
21 21 25 40 59 54 54 53 53 59 60 57 44 43 42 30 30 35 38 37 37 42 47 52 59 61 62 59 53 56 69 57 58 50 47 49 53 53 58 57 52 56 51 42 57 53 56 37 44
18 19 22 46 47 44 50 36 52 54 69 63 56 42 50 31 31 31 35 37 36 40 44 49 56 64 64 61 64 73 58 46 54 54 52 55 52 52 52 55 56 61 47 58 51 46 56 59 42
14 20 23 38 41 44 49 48 29 46 67 62 56 44 44 30 28 30 32 35 34 38 42 46 57 66 62 66 65 52 55 44 44 44 60 61 63 55 49 57 60 60 47 56 61 58 62 46 44
18 26 34 40 43 40 27 40 29 45 48 50 52 48 40 32 28 30 30 32 35 36 40 44 58 66 62 69 63 64 58 56 53 56 49 51 47 46 56 54 61 60 56 57 54 60 60 61 56
23 21 28 34 33 29 37 37 33 29 34 37 44 46 38 32 30 29 32 33 37 39 42 45 56 65 62 64 64 60 58 60 60 59 51 61 49 45 54 61 64 53 63 58 58 65 63 58 55
22 16 18 31 21 21 44 40 26 30 28 28 37 42 37 32 29 29 31 35 39 40 44 47 53 62 60 59 61 64 63 67 52 54 60 50 51 51 55 55 56 57 58 57 60 50 49 52 52
21 31 15 18 16 23 21 31 27 26 28 28 30 34 34 32 32 30 30 35 40 42 45 48 52 58 56 53 59 63 66 68 52 55 72 55 75 70 64 60 59 56 56 58 60 49 54 57 57
28 24 25 20 35 32 21 31 32 32 32 33 35 40 44 39 36 33 32 34 39 41 44 46 48 54 54 51 53 55 57 61 60 59 72 58 57 69 62 62 61 62 62 62 69 53 56 60 50
28 30 27 20 23 31 34 27 27 33 37 35 37 38 44 53 50 39 36 37 39 42 42 49 49 51 53 52 54 55 53 53 58 57 61 68 71 66 68 68 65 63 64 62 70 65 58 63 61
14 20 18 24 30 25 24 54 35 38 36 32 36 56 48 55 53 56 40 41 43 44 43 48 51 50 52 53 58 60 59 58 55 62 59 64 69 70 67 66 66 64 62 62 65 69 54 59 61

GFSSGP_sfc_rhum_123.txt.gz
RH
39 38 30 38 62 36 30 28 22 26 27 23 24 26 29 31 36 50 29 35 48 51 42 60 79 71 73 76 73 74 76 75 76 75 74 74 74 75 76 75 74 72 72 73 74 74 73 73 74
26 32 37 39 54 35 36 24 27 27 27 26 27 31 28 35 28 31 31 37 34 42 35 41 78 74 71 76 74 73 73 74 75 74 74 74 74 74 74 72 72 72 71 71 73 74 74 75 76
34 32 38 35 40 34 34 25 28 27 27 35 32 28 28 35 29 29 30 33 28 36 33 53 74 76 76 77 77 74 74 73 74 72 67 68 72 74 72 70 69 70 71 71 72 73 73 72 73
25 32 44 55 38 27 24 24 27 30 28 28 28 34 27 25 26 26 26 26 27 35 42 62 74 75 73 75 72 75 73 74 74 73 74 72 72 72 73 71 71 71 70 74 74 73 71 69 71
24 30 41 38 33 25 23 25 28 30 31 30 24 35 35 28 24 25 26 24 30 32 33 44 74 75 74 71 73 74 74 74 74 74 73 70 72 69 70 71 71 70 70 72 70 69 68 70 71
38 30 63 50 38 27 27 26 26 34 29 28 29 34 37 27 27 26 24 26 26 27 32 41 71 74 73 72 73 74 74 73 73 72 72 71 72 71 69 71 70 68 70 72 74 72 70 68 70
38 38 80 35 34 33 32 25 31 29 27 26 24 37 34 29 26 24 24 23 23 25 32 35 42 64 72 73 73 72 71 72 72 72 73 73 72 68 67 70 69 71 70 71 71 72 72 70 67
40 35 36 47 29 40 30 29 26 25 29 21 22 34 36 30 26 24 25 24 31 32 36 48 35 38 45 49 72 71 72 72 72 71 70 70 67 65 66 71 69 68 68 68 70 71 71 72 71
31 51 73 42 42 37 32 32 28 23 25 24 24 23 26 27 25 25 27 28 28 33 40 37 54 51 66 51 59 69 70 72 72 68 69 68 40 45 54 68 66 64 64 65 66 68 70 72 72
38 72 53 42 42 46 39 32 30 28 26 28 26 27 28 28 28 28 28 32 31 30 40 65 44 37 45 41 56 54 51 52 50 42 47 37 46 47 46 64 72 66 68 68 67 67 66 67 46
46 62 39 39 45 56 53 35 28 28 37 25 29 32 29 29 28 26 26 26 27 26 37 34 37 56 49 46 48 42 36 36 42 48 42 44 40 42 36 47 48 46 60 44 53 51 43 35 31
43 41 41 38 44 52 52 55 33 32 46 23 25 27 28 30 28 25 26 26 26 29 32 33 36 47 54 39 35 44 45 33 35 40 46 47 36 41 41 37 42 42 32 40 38 32 37 36 34
42 39 46 39 36 41 40 44 56 33 27 21 24 27 28 30 26 25 24 25 27 30 32 32 46 68 65 48 49 41 36 34 35 39 40 35 34 47 41 44 37 47 30 32 33 34 35 36 33
36 32 39 38 38 40 36 41 45 29 27 24 26 26 25 29 25 27 26 28 30 31 32 34 44 67 45 56 54 42 38 42 40 58 41 46 40 46 41 42 36 34 32 30 32 39 37 30 30
27 38 46 52 48 50 36 48 45 32 28 29 26 25 24 26 26 28 27 29 29 31 34 38 43 46 49 52 48 39 32 29 33 53 49 46 44 52 48 39 58 34 42 44 40 40 35 28 26
26 28 46 44 48 51 59 67 54 41 33 31 31 24 25 29 26 27 26 27 30 33 40 41 33 43 50 56 49 38 42 36 56 60 41 48 51 50 56 40 41 39 42 33 31 33 30 28 27
23 32 36 46 45 47 52 90 77 68 40 38 40 24 24 30 32 28 26 26 29 35 41 43 39 56 64 53 51 58 43 56 50 55 51 49 48 50 48 44 41 51 33 32 45 30 32 31 27
18 21 22 38 48 48 48 56 55 66 57 71 34 30 24 27 32 28 26 26 28 36 41 42 39 53 59 47 67 68 44 48 41 64 64 50 45 49 54 40 45 55 32 51 60 58 35 34 28
17 21 22 32 44 46 44 45 50 48 56 47 50 38 23 26 25 29 27 27 29 35 42 45 46 56 53 46 44 55 46 62 62 51 50 51 47 51 56 42 48 73 51 70 45 44 50 40 35
15 18 21 33 40 44 37 42 37 50 48 37 75 38 27 25 25 29 27 26 29 36 43 48 50 59 60 45 65 72 64 67 61 51 49 47 48 52 48 57 45 66 42 55 50 66 63 32 34
14 16 18 24 40 38 39 40 39 38 46 40 46 49 26 25 28 27 28 27 29 36 42 49 54 61 61 73 48 58 69 54 41 44 44 46 48 49 53 53 56 52 54 49 50 52 56 92 37
13 12 15 20 35 38 42 35 39 37 44 46 39 43 31 28 24 25 26 28 28 35 37 46 53 60 57 61 66 60 54 50 44 46 48 45 48 48 47 50 53 57 48 61 47 40 57 58 65
11 11 14 18 25 26 28 37 24 29 45 46 41 35 39 30 27 25 24 28 27 31 36 40 54 62 60 63 75 54 60 65 53 67 69 57 55 50 44 50 54 57 47 54 59 56 56 49 44
8 13 16 20 23 30 21 26 23 34 37 38 39 39 41 28 28 24 26 28 32 29 37 38 54 66 66 64 61 68 74 72 75 51 58 47 42 46 51 48 55 57 55 56 53 57 58 61 59
10 13 21 25 23 23 22 22 21 29 30 27 34 38 40 37 27 26 27 28 34 33 37 38 51 62 60 63 58 58 58 58 59 61 48 48 59 65 63 58 57 52 61 57 57 60 63 57 54
12 12 16 29 19 40 26 26 26 42 21 20 24 30 36 36 30 28 29 29 39 39 36 40 48 58 57 58 61 62 60 48 46 54 43 43 43 40 56 54 54 56 56 55 57 51 48 54 47
15 17 10 14 12 14 25 27 19 26 21 22 24 29 38 36 35 36 28 25 36 38 39 42 48 54 53 51 57 63 61 58 52 66 58 49 55 46 55 54 56 55 55 56 59 52 52 54 54
14 31 24 14 26 28 18 23 25 31 23 24 27 31 34 37 37 38 32 29 28 32 37 39 44 52 51 47 49 51 53 58 58 71 63 58 69 62 59 60 57 58 57 57 66 57 57 59 50
16 17 26 24 26 32 26 33 78 26 28 30 31 30 29 32 32 31 59 34 30 34 35 43 44 49 51 49 52 54 51 51 54 54 59 64 66 65 64 66 69 65 62 62 73 75 68 65 62
14 24 20 19 31 39 34 48 49 24 20 32 40 32 38 34 38 46 38 43 40 37 37 41 45 45 49 50 57 56 54 52 48 54 52 67 70 72 73 67 67 64 65 68 73 70 58 71 61